     2.11           OBSERVATION DATA    G (GPS)             RINEX VERSION / TYPE
teqc 2010Oct21 OPUS Account 20111027 15:37:28UTC            PGM / RUN BY / DATE
W 1524                                                      MARKER NAME
3002                                                        MARKER NUMBER
CSMIDDLETON NGS                                             OBSERVER / AGENCY
0220280359 TRIMBLE 5700 NP 2.32 / SP 2.32                   REC # / TYPE / VERS
11885611 TRM41249.00 NONE                                   ANT # / TYPE
  -761600.6257 -5536876.7925  3062923.5352                  APPROX POSITION XYZ
        1.9990        0.0000        0.0000                  ANTENNA: DELTA H/E/N
     1     1                                                WAVELENGTH FACT L1/2
     5    L1    L2    C1    P1    P2                        # / TYPES OF OBSERV
    15                                                      LEAP SECONDS
  2011     8    15     0     0   30.0000000     GPS         TIME OF FIRST OBS
                                                            END OF HEADER
 11  8 15  0  0 30.0000000  0  8G12G10G28G17G05G04G09G02
 -22015608.96957 -16829185.54354  22501464.0554                   22501461.7464
 -37859000.87557 -28259519.23055  21235404.1414                   21235402.6604
 -90117533.76656 -68746983.41852  23773440.3674                   23773440.7344
 -78649110.97357 -61241659.04755  22377307.8914                   22377306.2034
 -11448537.31256  -8856622.77353  23480838.4144                   23480839.1994
 -64574313.62157 -49832119.85255  20569070.1334                   20569068.2894
 -35913760.31256 -27063287.43454  22559615.6644                   22559614.4654
 -47351509.57457 -36849647.92656  20751688.5864                   20751684.7974
 11  8 15  0  1  0.0000000  0  8G12G10G28G17G05G04G09G02
 -22193830.09447 -16968059.12944  22467549.4454                   22467547.3244
 -37999895.74247 -28369307.41845  21208592.5864                   21208591.1094
 -90113054.69146 -68743493.32842  23774291.7114                   23774293.2114
 -78698833.24647 -61280403.68444  22367846.0704                   22367844.1524
 -11645673.43446  -9010235.21143  23443324.8524                   23443325.6994
 -64608440.58647 -49858712.30545  20562576.1174                   20562574.4414
 -35951269.41446 -27092515.35544  22552477.2974                   22552476.9654
 -47470877.51247 -36942661.88346  20728973.9064                   20728970.1524
 11  8 15  0  1 30.0000000  0  8G12G10G28G17G05G04G09G02
 -22371811.97347 -17106746.28944  22433680.7894                   22433678.8674
 -38140263.26247 -28478684.66845  21181881.4774                   21181879.6414
 -90108325.37145 -68739808.28143  23775191.4534                   23775192.6724
 -78748436.16047 -61319055.33244  22358407.0234                   22358404.9844
 -11842735.96946  -9163790.27744  23405824.9064                   23405825.4964
 -64642233.30147 -49885044.31645  20556145.4774                   20556143.6024
 -35988336.98846 -27121399.21144  22545423.6954                   22545423.0234
 -47589874.48847 -37035386.77045  20706329.3204                   20706325.6094
 11  8 15  0  2  0.0000000  0  8G12G10G28G17G05G04G09G02
 -22549563.86747 -17245254.23844  22399855.5234                   22399853.4534
 -38280112.95347 -28587658.42645  21155269.0394                   21155267.4884
 -90103359.43045 -68735938.85242  23776137.0084                   23776138.1994
 -78797931.00447 -61357622.76244  22348987.7344                   22348986.3134
 -12039733.93446  -9317295.06244  23368337.5314                   23368338.1764
 -64675706.27347 -49911127.16845  20549776.1884                   20549774.6724
 -36024977.70746 -27149950.45743  22538450.5164                   22538449.9224
 -47708512.82447 -37127832.19546  20683753.6564                   20683748.9104
 11  8 15  0  2 30.0000000  0  8G12G10G28G17G05G04G09G02
 -22727083.71947 -17383581.36744  22366074.8594                   22366072.5004
 -38419443.02047 -28696227.27745  21128755.4224                   21128753.8714
 -90098159.69145 -68731887.22742  23777126.0084                   23777127.5044
 -78847317.80147 -61396105.98844  22339590.0704                   22339587.8364
 -12236664.76646  -9470747.51243  23330863.2034                   23330862.9804
 -64708862.38347 -49936963.12145  20543466.7274                   20543464.4574
 -36061195.12146 -27178171.84843  22531558.7344                   22531558.2704
 -47826793.51247 -37219998.94546  20661245.2974                   20661241.4734
 11  8 15  0  3  0.0000000  0  8G12G10G28G17G05G04G09G02
 -22904364.75047 -17521722.41044  22332339.2894                   22332336.6644
 -38558246.93747 -28804386.14845  21102341.4924                   21102340.0354
 -90092723.78545 -68727651.62542  23778161.1024                   23778161.2384
 -78896591.81247 -61434501.34444  22330213.7894                   22330211.6414
 -12433521.58646  -9624142.27743  23293402.0084                   23293402.3914
 -64741699.93447 -49962550.84045  20537217.6564                   20537215.7194
 -36096988.76646 -27206063.05143  22524748.2274                   22524747.2274
 -47944713.12947 -37311884.34046  20638806.1174                   20638801.5904
 11  8 15  0  3 30.0000000  0  8G12G10G28G17G05G04G09G02
 -21505978.00847 -16432070.35244  22598442.9844                   22598441.6334
 -37121097.02347 -27684529.04345  21375822.3054                   21375820.4654
 -88511633.08645 -67495633.01242  24079032.9614                   24079033.2154
 -77370330.21147 -60245206.62944  22620652.2734                   22620649.7664
 -11054874.29746  -8549871.52343  23555749.5554                   23555749.7664
 -63198799.60947 -48760290.85545  20830821.8134                   20830820.0984
 -34556939.57046 -26006024.76644  22817809.2664                   22817809.5984
 -46486847.68047 -36175885.26246  20916229.1564                   20916224.6524
 11  8 15  0  4  0.0000000  0  8G12G10G28G17G05G04G09G02
 -21682771.34047 -16569831.35944  22564801.0164                   22564798.5984
 -37258838.45347 -27791860.00445  21349611.1804                   21349608.7774
 -88505727.77346 -67491031.58242  24080156.7274                   24080157.4654
 -77419374.34447 -60283422.85944  22611319.5314                   22611317.0824
 -11251571.59446  -8703142.01643  23518319.2734                   23518319.0274
 -63231004.36747 -48785385.49645  20824693.6254                   20824691.9064
 -34591891.15246 -26033259.80144  22811159.0944                   22811158.0704
 -46604043.64147 -36267206.75845  20893926.8054                   20893922.6684
 11  8 15  0  4 30.0000000  0  8G12G10G28G17G05G04G09G02
 -21859314.88747 -16707397.73045  22531205.8914                   22531203.5704
 -37396043.45347 -27898772.96145  21323501.6334                   21323499.5004
 -88499588.58646 -67486247.96142  24081324.9304                   24081325.7114
 -77468300.73447 -60321547.35544  22602008.9614                   22602006.7464
 -11448182.76646  -8856345.41443  23480905.4454                   23480905.6054
 -63262894.46147 -48810234.93045  20818625.1884                   20818623.2384
 -34626424.50846 -26060168.94143  22804587.1804                   22804586.2274
 -46720876.59847 -36358245.40246  20871693.6724                   20871690.1804
 11  8 15  0  5  0.0000000  0  8G12G10G28G17G05G04G09G02
 -22035606.96547 -16844768.13744  22497658.6414                   22497655.5664
 -37532710.69947 -28005266.90245  21297494.7424                   21297492.4304
 -88493218.18746 -67481284.13742  24082537.8444                   24082537.5514
 -77517109.44147 -60359580.16444  22592721.0784                   22592718.6644
 -11644705.94946  -9009480.22343  23443507.9384                   23443508.2464
 -63294473.17247 -48834841.74245  20812615.9304                   20812613.8404
 -34660543.61346 -26086755.32844  22798094.0704                   22798093.4494
 -46837348.03147 -36449002.35246  20849530.3134                   20849526.1214
 11  8 15  0  5 30.0000000  0  8G12G10G28G17G05G04G09G02
 -22211644.76647 -16981940.41444  22464160.0634                   22464157.1134
 -37668837.70347 -28111339.86345  21271590.8364                   21271588.4304
 -88486618.69946 -67476141.82042  24083793.6724                   24083793.9734
 -77565800.08246 -60397520.95344  22583455.1024                   22583453.0784
 -11841138.06246  -9162544.09043  23406128.0474                   23406128.4574
 -63325742.52747 -48859207.47745  20806665.5004                   20806663.5474
 -34694251.50446 -26113021.23443  22791680.1804                   22791680.1024
 -46953458.29747 -36539477.86346  20827435.3284                   20827430.6954
 11  8 15  0  6  0.0000000  0  8G12G10G28G17G05G04G09G02
 -22387426.68447 -17118913.28944  22430709.3594                   22430706.3674
 -37804422.94947 -28216990.67245  21245789.6094                   21245787.6454
 -88479792.23446 -67470822.59842  24085092.1954                   24085093.6804
 -77614372.60946 -60435369.71144  22574211.3364                   22574210.1914
 -12037476.25846  -9315534.74244  23368766.4304                   23368766.1294
 -63356705.46147 -48883334.45745  20800773.1724                   20800771.9104
 -34727551.77046 -26138969.53144  22785342.4844                   22785342.7774
 -47069208.76647 -36629673.01646  20805408.8364                   20805404.2774
 11  8 15  0  6 30.0000000  0  8G12G10G28G17G05G04G09G02
 -22562948.19147 -17255683.25045  22397307.7274                   22397306.2664
 -37939462.46947 -28322216.24645  21220092.2664                   21220090.4494
 -88472739.10245 -67465326.70342  24086436.0004                   24086436.4614
 -77662824.36746 -60473124.34444  22564992.0944                   22564989.8244
 -12233716.82446  -9468449.34844  23331423.4304                   23331422.7504
 -63387362.87947 -48907223.36745  20794939.2274                   20794937.6054
 -34760445.79346 -26164601.28543  22779083.8754                   22779082.6094
 -47184597.85947 -36719586.59046  20783450.9614                   20783446.9384
 11  8 15  0  7  0.0000000  0  8G12G10G28G17G05G04G09G02
 -22738204.13347 -17392246.28144  22363958.7504                   22363955.9534
 -38073951.35547 -28427012.75845  21194499.6334                   21194498.2664
 -88465458.840 5                  24087819.672
 -77711152.59847 -60510782.76244  22555795.6644                   22555793.7234
 -12429853.48446  -9621283.00044  23294099.1724                   23294099.2704
 -63417714.50847 -48930874.00045  20789163.6564                   20789162.4304
 -34792933.95746 -26189916.79743  22772901.6024                   22772900.6994
 -47299624.03947 -36809217.34446  20761562.1484                   20761557.9884
 11  8 15  0  7 30.0000000  0  8G12G10G28G17G05G04G09G02
 -22913192.73447 -17528600.99645  22330659.6254                   22330656.9384
 -38207888.39547 -28531379.24645  21169012.9774                   21169011.0314
 -88457954.488 5                  24089247.422
 -77759357.65247 -60548345.20344  22546623.0864                   22546620.3914
 -12625884.07046  -9774033.97744  23256795.7344                   23256796.0234
 -63447763.47347 -48954288.80145  20783446.0944                   20783444.1254
 -34825020.53946 -26214919.36743  22766795.8594                   22766795.1604
 -47414288.55947 -36898566.32046  20739742.6334                   20739737.8444
 11  8 15  0  8  0.0000000  0  8G12G10G28G17G05G04G09G02
 -23087913.82447 -17664747.26245  22297410.9384                   22297408.6454
 -38341273.61347 -28635315.76245  21143630.6254                   21143628.3404
 -88450229.598 5                  24090717.609
 -77807440.91446 -60585812.72344  22537472.6884                   22537470.6644
 -12821808.62946  -9926702.35244  23219512.1884                   23219512.4064
 -63477514.52347 -48977471.44145  20777784.5004                   20777782.5354
 -34856710.85246 -26239613.17643  22760765.5234                   22760764.9884
 -47528594.41847 -36987635.80546  20717990.5864                   20717986.2384
 11  8 15  0  8 30.0000000  0  8G12G10G28G17G05G04G09G02
 -23262362.10247 -17800680.94945  22264214.7114                   22264211.9384
 -38474102.38347 -28738818.69145  21118353.8834                   21118351.9534
 -88442284.316 5                  24092230.906
 -77855399.69146 -60623183.24644  22528346.6174                   22528344.5234
 -13017621.38747 -10079283.61744  23182250.8444                   23182250.3914
 -63506967.56647 -49000421.89145  20772179.7664                   20772178.0784
 -34888005.46546 -26263998.62144  22754809.7894                   22754809.5864
 -47642539.75447 -37076424.35945  20696307.3594                   20696303.1374
 11  8 15  0  9  0.0000000  0  8G12G10G28G17G05G04G09G02
 -23436531.91847 -17936397.64545  22231071.2814                   22231068.4494
 -38606369.65647 -28841884.08245  21093184.4144                   21093182.1604
 -88434117.25445 -67462432.30952  24093784.4454                   24093786.2304
 -77903229.64147 -60660453.40244  22519244.7274                   22519242.3134
 -13213315.82846 -10231772.67644  23145011.2114                   23145009.8244
 -63536121.83647 -49023139.52745  20766631.5314                   20766629.6844
 -34918904.18746 -26288075.60543  22748930.2584                   22748929.8164
 -47756121.70347 -37164929.76246  20674693.8134                   20674689.1174
 11  8 15  0  9 30.0000000  0  8G12G10G28G17G05G04G09G02
 -23610422.84447 -18071897.05545  22197980.8134                   22197978.4414
 -38738075.28147 -28944511.82045  21068121.5234                   21068119.2894
 -88425732.18046 -67455898.60242  24095380.5084                   24095381.6844
 -77950932.55546 -60697624.55144  22510167.4454                   22510165.1054
 -13408891.65246 -10384169.31644  23107794.4844                   23107793.7304
 -63564981.52747 -49045627.61745  20761140.4144                   20761138.2424
 -34949412.51246 -26311848.37544  22743124.9774                   22743123.9304
 -47869343.23047 -37253154.32445  20653148.2194                   20653143.9734
 11  8 15  0 10  0.0000000  0  8G12G10G28G17G05G04G09G02
 -23784030.71547 -18207175.88745  22164944.1174                   22164941.5864
 -38869215.97747 -29046699.35945  21043166.7814                   21043163.7234
 -88417129.77745 -67449195.53942  24097017.4144                   24097018.3714
 -77998506.31647 -60734695.07044  22501114.6884                   22501112.5004
 -13604344.15646 -10536469.85544  23070600.5164                   23070600.1604
 -63593547.69947 -49067886.99645  20755703.5554                   20755702.3014
 -34979532.40646 -26335318.48044  22737390.8834                   22737392.6524
 -47982203.48447 -37341097.36746  20631671.2584                   20631667.1484
 11  8 15  0 10 30.0000000  0  8G12G10G28G17G05G04G09G02
 -23957355.20747 -18342233.90644  22131961.5394                   22131959.2894
 -38999791.48047 -29148446.48845  21018318.1414                   21018316.2814
 -88408314.00845 -67442326.23842  24098694.5474                   24098696.2704
 -78045952.41047 -60771666.09044  22492085.8674                   22492083.5784
 -13799672.53146 -10688673.70343  23033430.5554                   23033429.8524
 -63621824.80147 -49089921.12145  20750322.8674                   20750320.8794
 -35009268.53146 -26358489.52743  22731734.3284                   22731733.8554
 -48094705.23047 -37428761.05546  20610263.1884                   20610258.8634
 11  8 15  0 11  0.0000000  0  8G12G10G28G17G05G04G09G02
 -24130391.85247 -18477067.65244  22099033.9924                   22099030.8674
 -39129797.87947 -29249750.15245  20993579.6024                   20993576.8634
 -88399285.23445 -67435290.91442  24100412.9924                   24100415.4534
 -78093268.09846 -60808535.50044  22483082.0864                   22483079.6564
 -13994871.94547 -10840777.05944  22996286.0944                   22996285.0354
 -63649813.36747 -49111730.40245  20744997.1414                   20744995.0784
 -35038622.69146 -26381362.95743  22726149.1884                   22726148.5084
 -48206847.30147 -37516144.47346  20588923.4304                   20588918.7034
 11  8 15  0 11 30.0000000  0  8G12G10G28G17G05G04G09G02
 -24303136.85247 -18611674.13745  22066161.1334                   22066158.8324
 -39259232.48847 -29350608.26245  20968948.2114                   20968946.5164
 -88390044.25045 -67428090.19542  24102171.8444                   24102173.8134
 -78140452.24646 -60845302.41844  22474103.0394                   22474100.9494
 -14189938.50447 -10992776.85544  22959165.8134                   22959165.1024
 -63677514.79347 -49133315.94945  20739725.6024                   20739723.5664
 -35067597.12146 -26403940.50844  22720634.6094                   22720634.6804
 -48318629.42647 -37603247.41046  20567652.0394                   20567647.1564
 11  8 15  0 12  0.0000000  0  8G12G10G28G17G05G04G09G02
 -22900163.96947 -17518448.49645  22333138.3134                   22333136.0744
 -37812670.60947 -28223417.17245  21244219.8674                   21244217.7774
 -86805175.30945 -66195172.50452  24403762.3364                   24403762.9734
 -76612084.65246 -59654366.65644  22764941.2194                   22764939.5274
 -12809444.48446  -9917067.11344  23221864.3134                   23221863.9654
 -62129512.09847 -47927080.10245  21034300.8134                   21034298.7854
 -33520775.84846 -25198625.27044  23014985.1724                   23014985.1844
 -46854630.20347 -36462468.78546  20846241.4064                   20846236.6644
 11  8 15  0 12 30.0000000  0  8G12G10G28G17G05G04G09G02
 -23072320.51647 -17652596.44145  22300378.1334                   22300375.7704
 -37940958.24247 -28323381.53145  21219807.7974                   21219805.5204
 -86795518.37945 -66187647.77742  24405600.2974                   24405601.0164
 -76659006.27346 -59690929.01644  22756012.9454                   22756010.1174
 -13004238.87946 -10068854.87544  23184796.5084                   23184795.8874
 -62156648.30947 -47948225.22345  21029136.7504                   21029135.0164
 -33549002.92246 -25220620.45744  23009614.0944                   23009613.8874
 -46965696.63347 -36549014.03946  20825106.2274                   20825102.0044
 11  8 15  0 13  0.0000000  0  8G12G10G28G17G05G04G09G02
 -23244175.98847 -17786509.79345  22267675.1724                   22267673.2114
 -38068666.67647 -28422894.57445  21195505.5234                   21195503.1334
 -86785653.89545 -66179961.19542  24407477.0554                   24407479.6954
 -76705792.64846 -59727385.95344  22747109.4144                   22747107.0164
 -13198889.40247 -10220530.50844  23147755.1174                   23147754.9804
 -62183502.74647 -47969150.77745  21024026.5554                   21024024.9494
 -33576858.05146 -25242325.81644  23004314.3284                   23004313.7974
 -47076403.35947 -36635279.00446  20804039.1644                   20804034.9454
 11  8 15  0 13 30.0000000  0  7G12G10G17G05G04G09G02
 -23415726.55547 -17920185.52745  22235029.5234                   22235027.7504
 -38195792.18047 -28521953.38745  21171314.5164                   21171312.1294
 -76752441.64146 -59763735.87144  22738232.5084                   22738230.4614
 -13393391.94147 -10372090.83644  23110743.2034                   23110742.2774
 -62210076.27347 -47989857.43745  21018969.7344                   21018968.4884
 -33604343.21146 -25263742.89144  22999083.5784                   22999082.8954
 -47186749.85247 -36721263.27046  20783041.5474                   20783036.6484
 11  8 15  0 14  0.0000000  0  7G12G10G17G05G04G09G02
 -23586969.02347 -18053621.21145  22202443.7424                   22202441.2584
 -38322332.57847 -28620556.27745  21147234.4454                   21147232.2464
 -76798952.31246 -59799977.97344  22729381.9844                   22729379.9774
 -13587743.34847 -10523533.38744  23073758.6724                   23073758.3714
 -62236370.74647 -48010346.65245  21013966.3364                   21013964.3444
 -33631461.10946 -25284873.78543  22993922.4534                   22993923.1174
 -47296736.22347 -36806966.91846  20762111.4774                   20762106.8874
 11  8 15  0 14 30.0000000  0  7G12G10G17G05G04G09G02
 -23757899.60947 -18186813.85545  22169916.0474                   22169914.0204
 -38448285.14147 -28718701.11345  21123266.3914                   21123264.2894
 -76845323.19546 -59836111.16044  22720557.3594                   22720556.4454
 -13781939.48847 -10674854.94944  23036804.9614                   23036804.3014
 -62262387.43447 -48030619.41845  21009015.4844                   21009013.1844
 -33658214.02046 -25305720.29343  22988831.8594                   22988831.5314
 -47406362.15647 -36892389.69946  20741250.2664                   20741246.3284
 11  8 15  0 15  0.0000000  0  7G12G10G17G05G04G09G02
 -23928511.02347 -18319757.80145  22137449.7344                   22137447.9574
 -38573643.03947 -28816382.57845  21099411.6174                   21099409.4844
 -76891548.19146 -59872130.66444  22711761.4384                   22711760.0864
 -13975972.27046 -10826049.21544  22999881.0944                   22999881.1294
 -62288123.84447 -48050673.78145  21004117.8364                   21004115.9104
 -33684600.40246 -25326281.19944  22983811.0164                   22983811.1524
 -47515623.47747 -36977528.38746  20720458.7894                   20720453.6334
 11  8 15  0 15 30.0000000  0  7G12G10G17G05G04G09G02
 -24098798.93447 -18452449.67245  22105045.6804                   22105043.0204
 -38698402.91847 -28913598.05945  21075670.6724                   21075668.5744
 -76937625.90646 -59908035.38744  22702993.3284                   22702991.5984
 -14169837.31646 -10977112.78144  22962990.2814                   22962990.0164
 -62313580.78547 -48070510.37545  20999273.5474                   20999272.0004
 -33710622.07846 -25346557.88743  22978860.0004                   22978859.6914
 -47624519.32447 -37062382.26646  20699736.7114                   20699731.9384
 11  8 15  0 16  0.0000000  0  7G12G10G17G05G04G09G02
 -24268761.85547 -18584888.30145  22072702.4224                   22072700.0354
 -38822563.92247 -29010346.86345  21052043.1254                   21052041.2194
 -76983555.87146 -59943825.00044  22694253.6334                   22694251.5274
 -14363532.30546 -11128043.83644  22926131.1414                   22926130.9144
 -62338761.14847 -48090131.44545  20994482.4924                   20994480.5944
 -33736282.80146 -25366553.30543  22973975.9774                   22973976.2344
 -47733051.41447 -37146952.71146  20679083.2504                   20679079.2464
 11  8 15  0 16 30.0000000  0  7G12G10G17G05G04G09G02
 -24438401.40647 -18717074.95745  22040421.1414                   22040419.2704
 -38946128.53147 -29106630.95745  21028529.9924                   21028527.9184
 -77029342.38746 -59979502.84044  22685540.4774                   22685538.7464
 -14557058.77047 -11278843.57044  22889303.5164                   22889303.3594
 -62363671.89547 -48109542.42645  20989741.6954                   20989739.9694
 -33761590.49646 -25386273.66043  22969160.5474                   22969160.2234
 -47841224.87947 -37231243.69946  20658498.9774                   20658494.2464
 11  8 15  0 17  0.0000000  0  7G12G10G17G05G04G09G02
 -24607713.57847 -18849006.50445  22008202.6094                   22008200.4104
 -39069093.72747 -29202447.98045  21005129.8834                   21005128.0314
 -77074983.21146 -60015067.14544  22676854.7584                   22676853.3364
 -14750412.27346 -11429508.53144  22852509.4304                   22852509.9964
 -62388313.79747 -48128743.92245  20985052.4144                   20985051.2424
 -33786546.87946 -25405720.26243  22964411.1094                   22964411.0474
 -47949039.05947 -37315254.73846  20637982.0314                   20637977.6844
 11  8 15  0 17 30.0000000  0  7G12G10G17G05G04G09G02
 -24776694.21147 -18980679.69545  21976046.4694                   21976043.7774
 -39191456.45347 -29297795.54345  20981845.1954                   20981843.3674
 -77120476.38346 -60050516.39144  22668197.7894                   22668196.4454
 -14943588.49647 -11580035.37544  22815749.7894                   22815748.8984
 -62412687.89847 -48147736.74645  20980414.4614                   20980412.7114
 -33811153.96946 -25424894.67244  22959730.0234                   22959728.8404
 -48056493.44547 -37398985.42246  20617534.7424                   20617530.2114
 11  8 15  0 18  0.0000000  0  7G12G10G17G05G04G09G02
 -24945342.94547 -19112094.27045  21943952.9844                   21943951.4494
 -39313216.73047 -29392673.65645  20958674.9924                   20958673.1684
 -77165823.03946 -60085851.47344  22659568.7424                   22659567.6804
 -15136586.28547 -11730423.17644  22779023.5704                   22779022.7274
 -62436798.16047 -48166523.97345  20975826.8754                   20975824.7584
 -33835416.70346 -25443800.75844  22955112.4774                   22955112.3714
 -48163590.43047 -37482437.59846  20597154.5004                   20597150.5984
 11  8 15  0 18 30.0000000  0  7G12G10G17G05G04G09G02
 -25113656.76647 -19243247.87545  21911924.5784                   21911922.0664
 -39434372.93447 -29487081.07445  20935620.2114                   20935617.5634
 -77211022.43046 -60121071.82044  22650968.0784                   22650966.6134
 -15329402.26247 -11880669.32844  22742331.9064                   22742330.8014
 -62460646.89547 -48185107.41845  20971288.5084                   20971286.7234
 -33859338.64546 -25462441.28543  22950559.8984                   22950559.6604
 -48270331.02347 -37565612.07846  20576842.6484                   20576838.1254
 11  8 15  0 19  0.0000000  0  7G12G10G17G05G04G09G02
 -25281635.08647 -19374140.07045  21879958.9924                   21879956.1644
 -39554925.27747 -29581017.94545  20912679.5084                   20912677.5234
 -77256075.73046 -60156178.30544  22642396.0554                   22642393.3404
 -15522035.61747 -12030773.18044  22705674.8134                   22705674.6484
 -62484237.94547 -48203490.06245  20966798.7274                   20966796.8484
 -33882924.72746 -25480820.09443  22946072.0314                   22946071.2974
 -48376717.48047 -37648510.60946  20556598.0084                   20556593.4414
 11  8 15  0 19 30.0000000  0  7G12G10G17G05G04G09G02
 -25449273.94147 -19504767.74245  21848058.7814                   21848055.5824
 -39674871.10947 -29674482.22745  20889853.5864                   20889852.5234
 -77300981.28146 -60191169.68444  22633849.3914                   22633847.4494
 -15714481.93047 -12180731.24244  22669052.5704                   22669052.2504
 -62507573.00447 -48221673.23445  20962358.2664                   20962356.7154
 -33906177.30146 -25498939.04743  22941646.7664                   22941646.5554
 -48482749.51247 -37731132.96146  20536420.4224                   20536416.0704
 11  8 15  0 20  0.0000000  0  7G12G10G17G05G04G09G02
 -25616568.17647 -19635126.87145  21816223.2504                   21816220.8094
 -39794206.09847 -29767470.49645  20867146.1884                   20867143.9884
 -77345735.61346 -60226043.24244  22625333.2424                   22625331.0044
 -15906735.49647 -12330539.13744  22632469.0234                   22632467.6914
 -62530651.18047 -48239656.23845  20957966.5864                   20957964.5744
 -33929096.91046 -25516798.57843  22937285.5084                   22937285.8444
 -48588426.03147 -37813478.29346  20516311.2274                   20516306.9924
 11  8 15  0 20 30.0000000  0  7G12G10G17G05G04G09G02
 -24208092.00847 -18537612.97345  22084247.7584                   22084244.9304
 -38337507.01647 -28632380.30145  21144347.0634                   21144344.8554
 -75814918.88746 -59033199.09044  22916637.4064                   22916635.8794
 -14523369.21947 -11252591.29744  22895714.5314                   22895714.0394
 -60978056.46147 -47029842.17245  21253415.8754                   21253413.8634
 -32376268.30146 -24306802.30543  23232779.2664                   23232778.4614
 -47118325.62147 -36667945.48846  20796061.9384                   20796057.6054
 11  8 15  0 21  0.0000000  0  7G12G10G17G05G04G09G02
 -24374692.06647 -18667431.16845  22052544.7974                   22052542.1844
 -38455618.47347 -28724415.17645  21121870.5634                   21121869.0514
 -75859371.92246 -59067837.87544  22908178.2814                   22908176.0554
 -14715231.17247 -11402094.05144  22859204.4064                   22859203.6524
 -61000630.77047 -47047432.55145  21249119.8364                   21249118.0234
 -32398534.53946 -24324152.68043  23228542.3754                   23228542.1294
 -47223294.43447 -36749739.37546  20776087.0084                   20776082.4614
 11  8 15  0 21 30.0000000  0  7G12G10G17G05G04G09G02
 -24540941.05947 -18796975.82045  22020908.7504                   22020906.7854
 -38573115.91847 -28815971.59445  21099511.6484                   21099509.6484
 -75903673.62146 -59102358.73043  22899747.6884                   22899746.3634
 -14906893.23047 -11551441.03144  22822732.3594                   22822731.4144
 -61022956.77047 -47064829.45345  21244871.6334                   21244869.3554
 -32420479.24246 -24341252.47743  23224366.2034                   23224365.6334
 -47327910.91047 -36831258.70346  20756178.9774                   20756174.4344
 11  8 15  0 22  0.0000000  0  7G12G10G17G05G04G09G02
 -24706835.39847 -18926244.12545  21989339.8134                   21989337.4884
 -38689996.80147 -28907047.59445  21077269.9924                   21077268.1024
 -75947821.68746 -59136759.88344  22891346.9454                   22891345.3754
 -15098350.81647 -11700628.68444  22786299.0634                   22786298.4304
 -61045035.28547 -47082033.50045  21240670.1884                   21240668.2274
 -32442104.03946 -24358103.03143  23220251.6174                   23220251.0514
 -47432174.93447 -36912503.40646  20736338.3054                   20736333.8364
 11  8 15  0 22 30.0000000  0  7G12G10G17G05G04G09G02
 -24872374.05947 -19055235.27745  21957838.5704                   21957836.3794
 -38806260.92647 -28997643.00845  21055145.6414                   21055143.8794
 -75991817.10546 -59171042.04344  22882974.9534                   22882974.0784
 -15289602.42647 -11849655.82044  22749904.8134                   22749904.2544
 -61066870.26647 -47099047.77045  21236514.6024                   21236513.1254
 -32463414.18046 -24374708.39843  23216195.5474                   23216195.7734
 -47536088.64547 -36993475.11746  20716564.3204                   20716559.9144
 11  8 15  0 23  0.0000000  0  7G12G10G17G05G04G09G02
 -25037553.27347 -19183946.33245  21926406.6024                   21926404.0434
 -38921905.99647 -29087756.04345  21033139.3754                   21033136.8984
 -76035658.70346 -59205204.37544  22874632.4064                   22874631.0664
 -15480644.12147 -11998519.38744  22713550.5164                   22713550.0044
 -61088463.06247 -47115873.36345  21232406.0394                   21232404.1094
 -32484412.29746 -24391070.65643  23212200.2814                   23212200.0634
 -47639652.21947 -37074174.01246  20696856.6024                   20696852.4574
 11  8 15  0 23 30.0000000  0  7G12G10G17G05G04G09G02
 -25202369.91047 -19312374.85945  21895042.5704                   21895040.4024
 -39036930.33647 -29177385.39145  21011250.3834                   21011248.7504
 -76079344.85546 -59239245.57444  22866319.3984                   22866318.1844
 -15671472.56647 -12147216.80944  22677236.7894                   22677236.1604
 -61109815.23047 -47132511.41445  21228342.8674                   21228340.5984
 -32505101.24246 -24407191.99243  23208263.6644                   23208263.2894
 -47742865.87947 -37154600.24246  20677216.0164                   20677211.5314
 11  8 15  0 24  0.0000000  0  7G12G10G17G05G04G09G02
 -25366822.66047 -19440519.84845  21863748.7894                   21863746.2734
 -39151333.38347 -29266530.59845  20989480.2034                   20989478.4534
 -76122876.16047 -59273166.12544  22858036.2034                   22858034.0084
 -15862085.20747 -12295746.04744  22640964.4924                   22640964.0084
 -61130929.95747 -47148964.46945  21224324.2814                   21224322.8444
 -32525484.98046 -24423075.47744  23204384.6724                   23204384.4734
 -47845731.21947 -37234755.04746  20657641.3204                   20657637.0784
 11  8 15  0 24 30.0000000  0  7G12G10G17G05G04G09G02
 -25530908.72347 -19568379.10545  21832524.0944                   21832521.4494
 -39265114.04347 -29355190.84045  20967828.7974                   20967826.8984
 -76166252.07446 -59306965.57044  22849781.7974                   22849779.7304
 -16052479.51647 -12444105.18044  22604733.8364                   22604732.4804
 -61151809.66847 -47165234.39145  21220351.3754                   21220349.5004
 -32545567.04346 -24438723.89143  23200562.5634                   23200562.8874
 -47948249.50847 -37314639.43446  20638132.3754                   20638128.2664
 11  8 15  0 25  0.0000000  0  7G12G10G17G05G04G09G02
 -25694627.01647 -19695951.78545  21801369.4454                   21801366.8164
 -39378271.63347 -29443365.57445  20946295.7034                   20946293.4304
 -76209472.84046 -59340644.10944  22841556.6564                   22841555.1804
 -16242653.65646 -12592292.75844  22568544.5314                   22568543.5704
 -61172457.46147 -47181323.59845  21216422.3524                   21216420.9104
 -32565351.81646 -24454140.63343  23196798.1094                   23196797.9654
 -48050422.44947 -37394254.71146  20618689.3914                   20618685.3284
 11  8 15  0 25 30.0000000  0  7G12G10G17G05G04G09G02
 -25857973.33647 -19823234.61345  21770285.9694                   21770282.9224
 -39490803.98047 -29531053.10545  20924881.0314                   20924879.0234
 -76252536.60246 -59374200.34044  22833362.2034                   22833360.3204
 -16432603.29746 -12740305.39844  22532398.8284                   22532396.8404
 -61192874.44547 -47197232.95345  21212537.3524                   21212535.2034
 -32584841.62546 -24469327.60543  23193089.4304                   23193089.3444
 -48152249.96547 -37473600.82446  20599312.4844                   20599308.2814
 11  8 15  0 26  0.0000000  0  7G12G10G17G05G04G09G02
 -26020945.66447 -19950226.02745  21739273.3054                   21739270.2894
 -39602710.25847 -29618252.79745  20903586.5784                   20903584.1374
 -76295443.39546 -59407634.25044  22825197.2584                   22825195.7504
 -16622325.63347 -12888140.92644  22496295.4614                   22496294.5314
 -61213063.50047 -47212964.70745  21208695.5784                   21208693.6054
 -32604040.42246 -24484287.77743  23189436.4384                   23189435.5434
 -48253733.41847 -37552678.83246  20580001.2584                   20579996.4454
 11  8 15  0 26 30.0000000  0  7G12G10G17G05G04G09G02
 -26183541.64547 -20076924.17645  21708331.7584                   21708329.6884
 -39713989.52747 -29704963.91045  20882410.8134                   20882408.4804
 -76338192.74246 -59440945.45744  22817062.0554                   22817060.6684
 -16811818.26247 -13035797.44944  22460236.5784                   22460235.7974
 -61233026.77747 -47228520.54745  21204897.0004                   21204894.5274
 -32622951.55946 -24499023.79743  23185837.5474                   23185837.2544
 -48354873.63347 -37631489.38746  20560754.8204                   20560750.3594
 11  8 15  0 27  0.0000000  0  7G12G10G17G05G04G09G02
 -26345758.41847 -20203326.83245  21677463.3054                   21677460.8244
 -39824640.41047 -29791185.36745  20861354.6174                   20861352.3524
 -76380783.57046 -59474133.15244  22808957.5944                   22808956.1054
 -17001077.50047 -13183272.10544  22424221.7114                   22424220.4494
 -61252766.13747 -47243901.89145  21201140.6024                   21201138.6134
 -32641578.08246 -24513538.00843  23182292.5784                   23182292.7704
 -48455671.23847 -37710032.96946  20541573.2424                   20541568.8914
 11  8 15  0 27 30.0000000  0  8G12G10G25G17G05G04G09G02
 -26507593.89547 -20329432.41045  21646667.2894                   21646664.4804
 -39934661.91047 -29876916.39145  20840417.8284                   20840416.0514
   4439345.27755   3660596.71953  24534307.3204                   24534309.7734
 -76423215.69146 -59507197.16444  22800883.1564                   22800882.0164
 -17190100.89547 -13330563.00044  22388251.4534                   22388250.4344
 -61272284.19147 -47259110.79345  21197426.0004                   21197424.5554
 -32659923.37946 -24527833.12543  23178801.2274                   23178801.8404
 -48556127.59847 -37788310.65246  20522456.9534                   20522453.0554
 11  8 15  0 28  0.0000000  0  8G12G10G25G17G05G04G09G02
 -26669049.07447 -20455241.62545  21615942.9844                   21615940.7504
 -40044056.18447 -29962158.68045  20819601.2504                   20819598.9064
   4244710.35246   3508933.27743  24497269.8054                   24497271.3404
 -76465491.96946 -59540139.75844  22792838.3204                   22792837.5354
 -17378888.75847 -13477670.35944  22352326.1414                   22352325.1954
 -61291586.59447 -47274151.65645  21193752.9384                   21193751.5394
 -32677994.77046 -24541914.80943  23175363.1884                   23175362.8094
 -48656247.10947 -37866325.84846  20503405.2504                   20503400.5274
 11  8 15  0 28 30.0000000  0  8G12G10G25G17G05G04G09G02
 -26830125.39147 -20580755.62145  21585291.2734                   21585288.7664
 -40152826.20747 -30046914.51645  20798903.0474                   20798900.6214
   4050194.41046   3357362.43043  24460255.3444                   24460256.9414
 -76507615.80146 -59572963.55144  22784821.4694                   22784821.1214
 -17567442.27347 -13624595.10944  22316445.3054                   22316444.3674
 -61310679.80147 -47289029.51245  21190119.6484                   21190118.1054
 -32695799.44946 -24555788.63743  23171974.7974                   23171975.3834
 -48756034.91847 -37944082.58246  20484416.0704                   20484411.5664
 11  8 15  0 29  0.0000000  0  8G12G10G25G17G05G04G09G02
 -25415395.20747 -19478368.45745  21854505.1564                   21854503.0234
 -38685547.95347 -28903580.81245  21078116.7424                   21078114.5744
   5431225.89546   4433490.88743  24723056.9924                   24723057.3094
 -74974165.55146 -58378067.29344  23076628.7734                   23076626.5984
 -16180332.61347 -12543730.37144  22580404.1724                   22580402.9024
 -59754145.57047 -46076145.72745  21486318.1954                   21486316.6564
 -31137920.95746 -23341857.41043  23468429.1024                   23468429.3484
 -47280069.08247 -36793979.32046  20765283.0314                   20765278.6764
 11  8 15  0 29 30.0000000  0  8G12G10G25G17G05G04G09G02
 -25575705.32847 -19603285.42245  21823999.6884                   21823996.8554
 -38793065.88747 -28987361.00445  21057656.5554                   21057654.3364
   5236956.02046   4282111.79743  24686088.6334                   24686089.0904
 -75015981.79746 -58410651.42244  23068670.2504                   23068668.9574
 -16368407.58647 -12690282.24245  22544614.1254                   22544613.2664
 -59772825.77347 -46090701.76245  21482763.3754                   21482762.3244
 -31155202.12946 -23355323.32044  23465140.9774                   23465141.1484
 -47379195.45747 -36871220.64546  20746419.5944                   20746415.2114
 11  8 15  0 30  0.0000000  0  8G12G10G25G17G05G04G09G02
 -25735624.70747 -19727897.91845  21793567.7274                   21793565.2464
 -38899952.48047 -29070649.25445  21037316.8054                   21037314.4384
   5042816.73846   4130834.51243  24649145.5394                   24649145.9384
 -75057639.71946 -58443112.18743  23060743.4774                   23060741.8134
 -16556235.09447 -12836641.27744  22508872.0634                   22508870.4104
 -59791298.82847 -46105096.39545  21479248.5944                   21479247.0634
 -31172222.69946 -23368586.18043  23461902.3594                   23461902.5904
 -47477988.80947 -36948202.47346  20727620.1644                   20727616.0084
 11  8 15  0 30 30.0000000  0  8G12G10G25G17G05G04G09G02
 -25895151.19547 -19852204.26245  21763210.9224                   21763208.4694
 -39006206.66447 -29153444.71145  21017097.4694                   21017095.2384
   4848810.26646   3979660.66843  24612226.5634                   24612227.2274
 -75099138.85246 -58475449.23043  23052846.9144                   23052845.1804
 -16743812.41047 -12982805.37144  22473176.9924                   22473176.0554
 -59809567.37947 -46119331.65645  21475772.1094                   21475770.3054
 -31188986.28946 -23381648.76243  23458712.1804                   23458712.0004
 -47576450.39147 -37024925.77346  20708883.3204                   20708878.7854
 11  8 15  0 31  0.0000000  0  8G12G10G25G17G05G04G09G02
 -26054280.31647 -19976200.97345  21732929.6414                   21732927.1604
 -39111825.72747 -29235745.27345  20996998.5084                   20996996.2234
   4654941.16046   3828593.89142  24575334.6724                   24575335.4884
 -75140476.69946 -58507660.59443  23044979.8674                   23044978.1764
 -16931134.52047 -13128770.58245  22437530.5084                   22437529.9304
 -59827631.56647 -46133407.69545  21472335.0004                   21472332.9844
 -31205494.52346 -23394512.40643  23455571.0234                   23455570.9884
 -47674579.07447 -37101389.66846  20690210.3204                   20690205.5704
 11  8 15  0 31 30.0000000  0  8G12G10G25G17G05G04G09G02
 -26213010.40247 -20099886.74245  21702724.3364                   21702722.1214
 -39216809.81647 -29317551.04745  20977020.6094                   20977018.1254
   4461211.01646   3677635.42243  24538468.2664                   24538469.7664
 -75181653.41446 -58539746.39544  23037144.9064                   23037142.5904
 -17118199.19147 -13274535.20745  22401933.6804                   22401932.7544
 -59845494.18047 -46147326.64145  21468935.8054                   21468933.7894
 -31221751.68746 -23407180.36343  23452477.3984                   23452477.7504
 -47772376.41847 -37177595.38346  20671600.0234                   20671595.5704
 11  8 15  0 32  0.0000000  0  8G12G10G25G17G05G04G09G02
 -26371338.37947 -20223259.17645  21672595.1414                   21672593.3324
 -39321157.23847 -29398860.71145  20957164.1174                   20957161.1724
   4267623.01646   3526787.62542  24501630.0164                   24501631.2154
 -75222667.74246 -58571705.65644  23029339.9064                   23029338.4574
 -17305002.94147 -13420096.51645  22366385.8364                   22366384.9574
 -59863157.05147 -46161089.96945  21465574.4064                   21465572.8674
 -31237760.43446 -23419654.76643  23449430.7974                   23449431.1884
 -47869843.19147 -37253543.50846  20653052.7504                   20653048.4104
 11  8 15  0 32 30.0000000  0  8G12G10G25G17G05G04G09G02
 -26529262.19547 -20346316.67645  21642543.4144                   21642541.3634
 -39424867.59847 -29479673.96145  20937429.1484                   20937426.5124
   4074179.14546   3376052.19942  24464818.7114                   24464819.5354
 -75263519.71546 -58603538.40244  23021566.3444                   23021564.6454
 -17491543.39847 -13565452.66445  22330888.7504                   22330887.3754
 -59880622.69947 -46174699.59845  21462251.3674                   21462249.3594
 -31253524.38746 -23431938.40643  23446431.7114                   23446431.4304
 -47966980.77047 -37329235.11746  20634567.6174                   20634563.3404
 11  8 15  0 33  0.0000000  0  8G12G10G25G17G05G04G09G02
 -26686779.43047 -20469057.35945  21612568.5314                   21612566.5164
 -39527939.95347 -29559990.07845  20917815.1094                   20917812.1914
   3880882.14846   3225431.17242  24428036.2274                   24428036.5944
 -75304208.16046 -58635243.74244  23013824.7194                   23013821.6994
 -17677817.24247 -13710601.04745  22295441.8204                   22295441.0044
 -59897892.99647 -46188157.02345  21458964.1644                   21458962.9964
 -31269046.82446 -23444033.87543  23443477.5474                   23443477.7154
 -48063790.08247 -37404670.94946  20616146.1174                   20616140.9804
 11  8 15  0 33 30.0000000  0  8G12G10G25G17G05G04G09G02
 -26843886.80147 -20591478.68745  21582672.2894                   21582669.9024
 -39630372.84847 -29639807.90645  20898322.8364                   20898319.5864
   3687735.07446   3074927.03142  24391281.0314                   24391282.4884
 -75344732.07846 -58666820.84843  23006112.4224                   23006110.5904
 -17863820.94547 -13855538.94945  22260046.9694                   22260045.4614
 -59914969.41047 -46201463.36345  21455714.9534                   21455713.5474
 -31284330.62546 -23455943.39543  23440569.5704                   23440568.7344
 -48160271.84447 -37479851.53146  20597786.0084                   20597781.6804
 11  8 15  0 34  0.0000000  0  8G12G10G25G17G05G04G09G02
 -27000581.14547 -20713578.16445  21552854.0634                   21552851.7304
 -39732165.05147 -29719126.49645  20878951.8204                   20878949.5474
   3494740.79746   2924541.84842  24354555.3594                   24354555.8914
 -75385090.77346 -58698269.24644  22998431.2034                   22998430.4654
 -18049551.15247 -14000263.73045  22224703.2664                   22224701.7424
 -59931853.88347 -46214620.13345  21452502.4304                   21452500.2154
 -31299379.25446 -23467669.64543  23437705.2274                   23437705.7074
 -48256426.16047 -37554776.96546  20579488.6414                   20579484.0904
 11  8 15  0 34 30.0000000  0  8G12G10G25G17G05G04G09G02
 -27156862.10247 -20835355.52045  21523115.0164                   21523112.7384
 -39833317.33647 -29797946.43445  20859703.1094                   20859700.9774
   3301900.21946   2774276.52742  24317859.0474                   24317859.5664
 -75425285.24646 -58729589.64143  22990783.5634                   22990782.0314
 -18235006.75447 -14144774.53145  22189412.2194                   22189410.5904
 -59948550.21947 -46227630.29745  21449325.0704                   21449323.7854
 -31314197.39146 -23479216.31643  23434885.3134                   23434886.1524
 -48352255.83647 -37629449.43746  20561252.4064                   20561248.2194
 11  8 15  0 35  0.0000000  0  8G12G10G25G17G05G04G09G02
 -27312725.18747 -20956807.25445  21493455.1564                   21493452.8714
 -39933826.87147 -29876265.55545  20840576.6644                   20840574.8364
   3109218.39146   2624134.84043  24281193.1024                   24281194.1024
 -75465312.46146 -58760779.72344  22983166.4384                   22983164.0164
 -18420182.12147 -14289066.98045  22154174.4144                   22154172.3554
 -59965058.21147 -46240493.69945  21446183.7974                   21446182.3444
 -31328786.15646 -23490584.25843  23432109.5474                   23432110.4454
 -48447759.69947 -37703868.02346  20543078.7424                   20543074.8364
 11  8 15  0 35 30.0000000  0  8G12G10G25G17G05G04G09G02
 -27468168.71547 -21077932.07445  21463875.0784                   21463873.0514
 -40033693.94547 -29954084.04745  20821572.1884                   20821570.4344
   2916696.67646   2474117.94143  24244557.8594                   24244558.8984
 -75505172.72346 -58791839.71544  22975581.2734                   22975578.9454
 -18605075.68447 -14433139.83245  22118989.9454                   22118988.8444
 -59981380.69547 -46253212.56645  21443077.6024                   21443076.3674
 -31343150.10946 -23501777.00843  23429377.0084                   23429376.8634
 -48542939.60547 -37778034.18446  20524966.4304                   20524962.1914
 11  8 15  0 36  0.0000000  0  8G12G10G25G17G05G04G09G02
 -27623189.51247 -21198727.47745  21434376.2584                   21434373.4144
 -40132917.15247 -30031400.81245  20802690.7504                   20802689.0474
   2724338.27046   2324228.29743  24207951.8834                   24207953.9844
 -75544864.99246 -58822768.82444  22968028.0314                   22968025.7234
 -18789683.64547 -14576990.14145  22083859.7424                   22083859.1134
 -59997519.36347 -46265788.16845  21440006.2664                   21440004.6844
 -31357291.91046 -23512796.69143  23426685.3284                   23426686.2154
 -48637796.41447 -37851948.57046  20506915.9304                   20506911.3754
 11  8 15  0 36 30.0000000  0  8G12G10G25G17G05G04G09G02
 -27777786.27747 -21319192.47345  21404957.1884                   21404954.9804
 -40231497.12547 -30108216.37145  20783932.2424                   20783929.7704
   2532144.70746   2174467.08643  24171379.7664                   24171380.8164
 -75584389.69146 -58853567.34044  22960507.0394                   22960504.9774
 -18974004.12547 -14720616.41045  22048784.8754                   22048783.3954
 -60013477.54347 -46278223.15245  21436969.6954                   21436968.1954
 -31371216.05546 -23523646.70343  23424035.4064                   23424035.9104
 -48732331.96147 -37925612.63746  20488926.1414                   20488922.4264
 11  8 15  0 37  0.0000000  0  8G12G10G25G17G05G04G09G02
 -27931954.37547 -21439323.43745  21375620.2734                   21375617.1914
 -40329430.99247 -30184528.48045  20765295.3594                   20765294.0314
   2340120.81346   2024838.12143  24134838.3834                   24134840.4734
 -75623744.17246 -58884233.24644  22953018.3674                   22953016.3014
 -19158032.24647 -14864014.89545  22013765.0864                   22013764.0984
 -60029254.63747 -46290517.02745  21433967.2034                   21433965.9104
 -31384923.71546 -23534328.07043  23421427.1174                   23421427.9064
 -48826545.01647 -37999025.39846  20470997.9224                   20470993.7774
 11  8 15  0 37 30.0000000  0  8G12G10G25G17G05G04G09G02
 -26510265.57847 -20331513.97745  21646158.2424                   21646155.7974
 -38851294.33647 -29032733.66445  21046575.2814                   21046574.0784
   3723696.16046   3102948.78143  24398123.6094                   24398125.5434
 -74087505.79346 -57687164.44144  23245355.2424                   23245353.3874
 -17766337.93747 -13779577.71945  22278596.4924                   22278594.7384
 -58469431.81247 -45075070.69945  21730791.5394                   21730790.1604
 -29822997.41846 -22317242.71543  23718651.6954                   23718652.3054
 -47345012.84047 -36844584.73846  20752924.5394                   20752920.0234
 11  8 15  0 38  0.0000000  0  8G12G10G25G17G05G04G09G02
 -26663571.49647 -20450973.12145  21616984.9534                   21616982.5784
 -38947936.57847 -29108039.29345  21028185.4454                   21028183.7894
   3532017.03946   2953588.45343  24361648.9924                   24361650.0784
 -74126520.00846 -57717565.16044  23237930.1174                   23237929.0864
 -17949774.34447 -13922515.12145  22243689.7894                   22243687.8364
 -58484855.78147 -45087089.41044  21727856.5784                   21727855.3524
 -29836284.69946 -22327596.50443  23716123.5474                   23716124.4414
 -47438586.57047 -36917499.33246  20735118.0394                   20735113.6094
 11  8 15  0 38 30.0000000  0  8G12G10G25G17G05G04G09G02
 -26816440.12947 -20570091.52045  21587895.2424                   21587892.8954
 -39043929.40247 -29182838.89545  21009918.4384                   21009916.8164
   3340516.71146   2804367.44543  24325206.8674                   24325208.7974
 -74165360.85946 -57747830.81243  23230539.5164                   23230538.1914
 -18132907.94947 -14065216.57445  22208840.7814                   22208839.1564
 -58500103.52047 -45098970.78544  21724954.9614                   21724953.4344
 -29849364.16846 -22337788.39543  23713635.2814                   23713634.7854
 -47531839.60547 -36990164.02746  20717372.3984                   20717367.5594
 11  8 15  0 39  0.0000000  0  8G12G10G25G17G05G04G09G02
 -26968872.31647 -20688869.82845  21558888.0314                   21558886.3794
 -39139275.54347 -29257134.58245  20991774.5784                   20991773.0004
   3149194.68846   2655285.38343  24288799.9384                   24288801.7114
 -74204030.55546 -57777963.09443  23223180.5634                   23223179.4184
 -18315738.87147 -14207682.17245  22174048.6024                   22174047.2544
 -58515180.21547 -45110718.89844  21722086.6564                   21722084.7544
 -29862242.44146 -22347823.48043  23711184.3444                   23711184.2344
 -47624776.04347 -37062582.04746  20699687.1804                   20699683.0664
 11  8 15  0 39 30.0000000  0  8G12G10G25G17G05G04G09G02
 -27120865.11747 -20807305.75045  21529965.1174                   21529962.4654
 -39233974.55147 -29330926.00845  20973754.3674                   20973751.7934
   2958053.85246   2506344.52343  24252426.9144                   24252428.3634
 -74242528.39846 -57807961.48443  23215855.2034                   23215853.6374
 -18498263.88347 -14349909.39145  22139315.5554                   22139313.8794
 -58530087.78947 -45122335.23044  21719249.5704                   21719247.7344
 -29874922.73846 -22357704.30143  23708770.4304                   23708771.9344
 -47717396.67247 -37134753.95746  20682062.0474                   20682057.7504
 11  8 15  0 40  0.0000000  0  8G12G10G25G17G05G04G09G02
 -27272417.77747 -20925398.70345  21501125.2734                   21501122.6524
 -39328027.14147 -29404213.73445  20955856.5784                   20955854.5004
   2767095.40646   2357545.77743  24216089.4534                   24216090.2854
 -74280855.28146 -57837826.65643  23208561.9384                   23208560.0354
 -18680481.46547 -14491897.08245  22104640.5554                   22104639.1374
 -58544829.60547 -45133822.39544  21716444.2584                   21716442.6094
 -29887409.98046 -22367434.67243  23706395.0474                   23706395.5944
 -47809704.34447 -37206682.01246  20664497.0394                   20664492.4064
 11  8 15  0 40 30.0000000  0  8G12G10G25G17G05G04G09G02
 -27423525.14147 -21043144.67245  21472370.6174                   21472367.9144
 -39421430.50047 -29476995.57045  20938082.4384                   20938080.8284
   2576324.59446   2208893.25843  24179786.0704                   24179787.1094
 -74319008.04746 -57867556.10543  23201301.7584                   23201300.0864
 -18862386.44147 -14633641.14845  22070025.2194                   22070023.8364
 -58559405.09847 -45145179.94144  21713670.4454                   21713669.0044
 -29899704.74246 -22377015.10943  23704055.0234                   23704056.1644
 -47901697.19947 -37278364.76246  20646990.8524                   20646986.8324
 11  8 15  0 41  0.0000000  0  8G12G10G25G17G05G04G09G02
 -27574186.45347 -21160543.08245  21443700.4144                   21443698.4144
 -39514185.04747 -29549271.83645  20920432.4774                   20920429.9734
   2385742.87146   2060388.07443  24143519.5554                   24143520.5474
 -74356986.99646 -57897150.14844  23194074.1804                   23194072.3754
 -19043976.63747 -14775139.96145  22035469.7114                   22035468.1334
 -58573817.26247 -45156410.23444  21710928.3204                   21710926.1764
 -29911811.46546 -22386448.98443  23701750.8674                   23701751.9574
 -47993377.50047 -37349803.96946  20629544.7974                   20629540.1214
 11  8 15  0 41 30.0000000  0  8G12G10G25G17G05G04G09G02
 -27724400.12947 -21277592.67245  21415115.8054                   21415113.8874
 -39606291.94547 -29621043.44545  20902903.9774                   20902902.5434
   2195351.61346   1912031.32843  24107290.0004                   24107290.3014
 -74394793.12546 -57926609.49643  23186879.9454                   23186878.5704
 -19225250.42247 -14916392.21145  22000974.5004                   22000973.6994
 -58588069.55547 -45167515.94545  21708216.3134                   21708214.4534
 -29923734.82846 -22395740.01643  23699482.3984                   23699483.1094
 -48084747.67647 -37421001.49646  20612157.4454                   20612153.1684
 11  8 15  0 42  0.0000000  0  8G12G10G25G17G05G04G09G02
 -27874164.87147 -21394292.45745  21386616.3674                   21386614.3404
 -39697751.58647 -29692310.69145  20885500.6954                   20885498.0744
   2005152.78546   1763824.47343  24071095.7734                   24071096.2934
 -74432426.59446 -57955934.32443  23179718.7194                   23179717.3594
 -19406205.86347 -15057396.39845  21966539.6804                   21966538.3634
 -58602164.38347 -45178498.95344  21705534.0554                   21705532.5904
 -29935478.85246 -22404891.29743  23697248.2034                   23697248.1334
 -48175809.34847 -37491958.65646  20594829.0474                   20594825.0634
 11  8 15  0 42 30.0000000  0  8G12G10G25G17G05G04G09G02
 -28023477.41047 -21510639.87545  21358204.2274                   21358200.9734
 -39788562.77347 -29763072.65645  20868219.3594                   20868217.7234
   1815149.80146   1615770.25443  24034939.5554                   24034940.1414
 -74469885.96146 -57985123.47343  23172590.1024                   23172588.7664
 -19586838.95747 -15198149.41445  21932166.2034                   21932165.1094
 -58616102.98447 -45189360.22744  21702881.5554                   21702879.7734
 -29947046.05546 -22413904.77743  23695047.3674                   23695047.3634
 -48266562.78147 -37562675.61746  20577559.7894                   20577554.8134
 11  8 15  0 43  0.0000000  0  8G12G10G25G17G05G04G09G02
 -28172334.37547 -21626632.30945  21329876.7274                   21329873.8404
 -39878724.00447 -29833328.15645  20851063.0784                   20851060.3524
   1625346.35546   1467871.52743  23998820.8054                   23998822.0474
 -74507168.90246 -58014175.14543  23165495.7734                   23165494.3794
 -19767145.98047 -15338648.33245  21897854.6884                   21897853.9614
 -58629886.41447 -45200100.58244  21700258.7584                   21700256.9304
 -29958438.98446 -22422782.48443  23692878.1254                   23692879.6604
 -48357007.98447 -37633152.40646  20560347.5704                   20560343.2664
 11  8 15  0 43 30.0000000  0  8G12G10G25G17G05G04G09G02
 -28320732.96547 -21742267.56245  21301637.2274                   21301635.0904
 -39968234.61347 -29903076.68445  20834028.8984                   20834026.4654
   1435745.65646   1320130.73843  23962741.3364                   23962742.1094
 -74544275.21546 -58043089.19943  23158435.1884                   23158433.4964
 -19947123.43447 -15478890.45345  21863605.8914                   21863604.7774
 -58643515.84047 -45210720.92244  21697665.4064                   21697663.6604
 -29969660.30946 -22431526.44943  23690743.8134                   23690744.7974
 -48447145.85547 -37703389.70346  20543195.4064                   20543191.1954
 11  8 15  0 44  0.0000000  0  8G12G10G25G17G05G04G09G02
 -28468670.20347 -21857543.32845  21273486.2504                   21273483.7704
 -40057093.79747 -29972317.60545  20817119.8364                   20817117.7774
   1246350.87546   1172550.44943  23926700.7034                   23926701.7234
 -74581203.69146 -58071864.68043  23151408.0084                   23151406.0474
 -20126767.75447 -15618873.00045  21829420.6414                   21829419.4884
 -58656992.93747 -45221222.58644  21695100.3674                   21695099.0204
 -29980712.62946 -22440138.71143  23688640.2894                   23688641.2034
 -48536976.63347 -37773387.71146  20526101.3834                   20526096.8404
 11  8 15  0 44 30.0000000  0  8G12G10G25G17G05G04G09G02
 -28616144.78547 -21972458.58645  21245422.6564                   21245420.4574
 -40145302.37947 -30041051.55945  20800334.2894                   20800332.1804
   1057163.75846   1025131.97343  23890699.5634                   23890700.6454
 -74617954.39846 -58100501.62143  23144413.9774                   23144412.3244
 -20306077.06647 -15758594.48445  21795299.3524                   21795297.5864
 -58670320.49247 -45231607.71144  21692564.0634                   21692562.4264
 -29991600.58246 -22448622.92243  23686568.8134                   23686569.2584
 -48626502.40247 -37843148.05946  20509065.1484                   20509061.2464
 11  8 15  0 45  0.0000000  0  8G12G10G25G17G05G04G09G02
 -28763155.60947 -22087012.48445  21217447.3364                   21217445.0904
 -40232861.87147 -30109279.74245  20783672.0864                   20783670.3324
    868185.65646    877876.37143  23854738.0704                   23854739.0704
 -74654528.34046 -58129000.85244  23137454.1724                   23137452.9924
 -20485049.68447 -15898053.61745  21761242.1024                   21761240.7934
 -58683501.44547 -45241878.61744  21690056.1804                   21690054.5044
 -30002328.91046 -22456982.71143  23684526.7894                   23684527.4884
 -48715725.69947 -37912672.69946  20492086.6954                   20492082.0124
 11  8 15  0 45 30.0000000  0  8G12G10G25G17G05G04G09G02
 -28909699.96147 -22201202.89845  21189561.2274                   21189558.2854
 -40319771.01247 -30177001.15245  20767134.0864                   20767131.6094
    679420.00046    730786.28943  23818816.9144                   23818818.0204
 -74690924.05546 -58157361.21543  23130528.0164                   23130527.5744
 -20663681.91847 -16037247.52345  21727249.7034                   21727247.9144
 -58696537.23847 -45252036.39144  21687575.6564                   21687573.9534
 -30012900.04746 -22465220.04343  23682515.0784                   23682515.8364
 -48804646.45347 -37981961.59846  20475165.3284                   20475160.9734
 11  8 15  0 46  0.0000000  0  8G12G10G25G17G05G04G09G02
 -29055774.37947 -22315027.12145  21161763.8914                   21161761.3094
 -40406028.80947 -30244215.02045  20750719.5164                   20750717.6804
    490870.57446    583864.71143  23782937.5394                   23782938.0984
 -74727139.64146 -58185581.20344  23123636.6254                   23123635.8484
 -20841970.19547 -16176173.41445  21693322.8134                   21693321.2464
 -58709428.67247 -45262081.68744  21685122.5394                   21685120.6414
 -30023315.98046 -22473336.41443  23680533.5084                   23680534.3524
 -48893265.20347 -38051015.16846  20458301.8284                   20458297.2624
 11  8 15  0 46 30.0000000  0  8G12G10G25G17G05G04G09G02
 -27625952.58247 -21200880.28545  21433849.9614                   21433847.3484
 -38916213.31647 -29083319.82845  21034222.7344                   21034220.0314
   1877965.33646   1664717.78943  24046892.5164                   24046893.6374
 -73187754.43746 -56986060.30143  23416571.8364                   23416571.1414
 -19444486.42647 -15087224.97745  21959254.5864                   21959253.1054
 -57146758.14847 -44044416.37944  21982488.4064                   21982487.0354
 -28458161.10946 -21253735.27743  23978373.3054                   23978373.2544
 -47406160.93447 -36892232.62546  20741288.9144                   20741284.4104
 11  8 15  0 47  0.0000000  0  8G12G10G25G17G05G04G09G02
 -27771083.66847 -21313969.46145  21406232.1564                   21406230.1524
 -39001171.95347 -29149521.35545  21018055.3134                   21018052.9384
   1689852.44146   1518136.35243  24011096.0394                   24011096.5204
 -73223612.52746 -57014001.72343  23409748.9614                   23409747.7734
 -19622081.70747 -15225610.85545  21925459.2734                   21925458.2034
 -57159370.25047 -44054244.02744  21980088.6174                   21980087.0234
 -28468281.23846 -21261621.13743  23976446.8364                   23976447.3594
 -47494182.59447 -36960820.91846  20724538.7114                   20724534.0204
 11  8 15  0 47 30.0000000  0  8G12G10G25G17G05G04G09G02
 -27915738.50447 -21426687.50445  21378705.4614                   21378703.1414
 -39085479.09047 -29215215.23845  21002011.9304                   21002010.0394
   1501963.60946   1371729.52743  23975341.9384                   23975343.3164
 -73259288.98446 -57041801.60244  23402959.6954                   23402958.6484
 -19799324.28947 -15363721.91845  21891730.7344                   21891729.6024
 -57171843.78147 -44063963.69144  21977714.6254                   21977713.3094
 -28478256.55546 -21269394.18443  23974549.0234                   23974549.4534
 -47581905.38347 -37029176.34046  20707845.2034                   20707841.0234
 11  8 15  0 48  0.0000000  0  8G12G10G25G17G05G04G09G02
 -28059914.96147 -21539032.81245  21351269.8134                   21351267.0744
 -39169134.87547 -29280401.55545  20986092.7504                   20986090.7504
   1314301.52046   1225499.37143  23939630.6174                   23939632.4144
 -73294783.84846 -57069459.98444  23396205.5554                   23396204.2854
 -19976211.50847 -15501556.06645  21858070.8524                   21858069.0944
 -57184180.60247 -44073576.82444  21975368.0084                   21975366.4924
 -28488090.51246 -21277057.06243  23972677.1884                   23972678.4654
 -47669330.62547 -37097299.90246  20691208.9614                   20691204.6604
 11  8 15  0 48 30.0000000  0  8G12G10G25G17G05G04G09G02
 -28203612.87947 -21651005.23045  21323925.0474                   21323922.6914
 -39252141.89147 -29345082.34845  20970297.0704                   20970294.5824
   1126866.29346   1079446.00443  23903963.6724                   23903964.3284
 -73330098.94946 -57096978.29743  23389485.4304                   23389484.4884
 -20152743.26247 -15639113.22745  21824477.4454                   21824475.9804
 -57196384.98047 -44083086.75444  21973045.3834                   21973043.8204
 -28497788.85946 -21284614.27043  23970832.4694                   23970833.0434
 -47756461.96947 -37165194.45746  20674628.4224                   20674624.2074
 11  8 15  0 49  0.0000000  0  8G12G10G25G17G05G04G09G02
 -28346830.77747 -21762603.57845  21296671.6024                   21296668.9694
 -39334500.99647 -29409258.27345  20954624.8834                   20954622.2854
    939660.00046    933571.02743  23868339.5314                   23868340.3054
 -73365234.35546 -57124356.59043  23382799.2274                   23382798.5124
 -20328916.96947 -15776391.38745  21790952.6174                   21790951.4344
 -57208459.64547 -44092495.60944  21970747.5554                   21970745.8834
 -28507355.68446 -21292068.99643  23969010.8674                   23969012.1454
 -47843301.09447 -37232861.30946  20658103.3674                   20658099.0164
 11  8 15  0 49 30.0000000  0  8G12G10G25G17G05G04G09G02
 -28489564.30147 -21873824.49645  21269510.3054                   21269507.6604
 -39416209.82047 -29472927.49245  20939075.4924                   20939073.9184
    752687.62946    787878.30143  23832759.0004                   23832760.6054
 -73400186.66846 -57151592.21543  23376147.8914                   23376146.4574
 -20504727.93747 -15913386.91045  21757497.1644                   21757495.5274
 -57220403.91447 -44101802.86344  21968474.4774                   21968472.8794
 -28516792.05946 -21299422.07043  23967215.6564                   23967216.4924
 -47929846.76247 -37300299.49246  20641634.0634                   20641630.0204
 11  8 15  0 50  0.0000000  0  8G12G10G25G17G05G04G09G02
 -28631810.69947 -21984665.85545  21242441.7584                   21242438.9454
 -39497268.16847 -29536089.84845  20923651.0634                   20923649.1254
    565952.42246    642370.38343  23797224.7584                   23797225.7504
 -73434955.62246 -57178684.96143  23369530.9224                   23369530.3364
 -20680172.34047 -16050096.78145  21724111.0704                   21724109.4574
 -57232219.18747 -44111009.57844  21966225.8134                   21966224.6214
 -28526100.44146 -21306675.41843  23965444.5164                   23965445.6884
 -48016099.80947 -37367509.66046  20625220.8984                   20625216.8954
 11  8 15  0 50 30.0000000  0  8G12G10G25G17G05G04G09G02
 -28773571.10247 -22095128.50045  21215465.9614                   21215463.1764
 -39577679.34447 -29598747.90645  20908349.4614                   20908347.5864
    379453.89546    497046.89843  23761735.0314                   23761736.0164
 -73469543.82446 -57205636.85243  23362950.2424                   23362948.3914
 -20855250.50447 -16186521.28145  21690794.8444                   21690793.2074
 -57243910.31247 -44120119.59444  21964001.3984                   21963999.7274
 -28535287.41046 -21313834.17643  23963696.2734                   23963696.9184
 -48102064.27347 -37434494.95346  20608862.5864                   20608858.2034
 11  8 15  0 51  0.0000000  0  8G12G10G25G17G05G04G09G02
 -28914840.82447 -22205208.79345  21188582.5474                   21188580.7384
 -39657441.19547 -29660899.99645  20893171.5084                   20893168.9304
    193197.19146    351911.84443  23726292.2194                   23726292.8754
 -73503947.94546 -57232445.31243  23356403.7974                   23356401.1604
 -21029957.77047 -16322656.76645  21657549.1334                   21657548.1294
 -57255476.87147 -44129132.53944  21961800.7274                   21961798.6214
 -28544353.95346 -21320899.10243  23961970.7504                   23961971.7544
 -48187739.19947 -37501254.62546  20592559.0784                   20592554.8014
 11  8 15  0 51 30.0000000  0  8G12G10G25G17G05G04G09G02
 -29055617.62147 -22314904.98845  21161793.7584                   21161791.5634
 -39736553.19547 -29722545.72345  20878117.0554                   20878114.6094
      7185.14846    206967.44543  23690894.3134                   23690895.3204
 -73538167.17646 -57259109.69943  23349891.6334                   23349890.4614
 -21204290.93047 -16458500.73445  21624374.4304                   21624372.9614
 -57266920.38347 -44138049.57844  21959622.8444                   21959620.9494
 -28553303.14846 -21327872.53143  23960268.8364                   23960269.1254
 -48273125.16847 -37567789.14846  20576310.9694                   20576306.2934
 11  8 15  0 52  0.0000000  0  8G12G10G25G17G05G04G09G02
 -29195899.43747 -22424215.48445  21135099.1414                   21135096.3054
 -39815016.19947 -29783685.71545  20863185.2274                   20863183.5664
   -178579.73846     62215.60943  23655544.3524                   23655545.9614
 -73572201.43746 -57285629.97343  23343414.9224                   23343414.1684
 -21378247.31647 -16594051.12145  21591271.7194                   21591269.6564
 -57278242.80147 -44146872.27744  21957468.0474                   21957466.6334
 -28562138.44946 -21334757.29343  23958586.7034                   23958587.9264
 -48358223.66047 -37634099.66446  20560116.8754                   20560112.5314
 11  8 15  0 52 30.0000000  0  8G12G10G25G17G05G04G09G02
 -29335686.33247 -22533140.30945  21108498.6174                   21108495.8754
 -39892832.36347 -29844321.68445  20848377.3914                   20848375.6604
   -364096.58246    -82342.93043  23620241.8054                   23620242.9884
 -73606052.44546 -57312007.42643  23336973.6484                   23336972.0664
 -21551826.17647 -16729307.33245  21558240.6334                   21558239.2274
 -57289447.75847 -44155603.44944  21955336.7344                   21955334.5704
 -28570864.94546 -21341557.21143  23956926.0634                   23956928.1954
 -48443037.78547 -37700188.58246  20543977.2974                   20543972.7974
 11  8 15  0 53  0.0000000  0  8G12G10G25G17G05G04G09G02
 -29474976.77747 -22641678.30545  21081993.1174                   21081989.6954
 -39970002.69547 -29904454.41845  20833692.4534                   20833690.8364
   -549363.48846   -226706.71943  23584986.7664                   23584987.9184
 -73639720.02346 -57338241.92243  23330566.9924                   23330565.8014
 -21725025.67647 -16864267.93745  21525281.8674                   21525280.4264
 -57300537.83647 -44164245.11344  21953225.6334                   21953224.5824
 -28579486.89546 -21348275.69543  23955286.2814                   23955286.7074
 -48527569.50447 -37766057.46546  20527891.3984                   20527886.9964
 11  8 15  0 53 30.0000000  0  8G12G10G25G17G05G04G09G02
 -29613768.81647 -22749827.94145  21055581.5004                   21055578.5164
 -40046527.66047 -29964084.26245  20819130.5704                   20819128.4384
   -734377.69546   -370873.62943  23549779.5784                   23549781.0004
 -73673203.83646 -57364333.23043  23324194.8204                   23324193.7734
 -21897842.65247 -16998930.46545  21492395.6174                   21492393.8834
 -57311514.71147 -44172798.57844  21951137.1414                   21951135.8404
 -28588007.67646 -21354915.34042  23953664.4384                   23953665.7384
 -48611819.94547 -37831707.16446  20511859.1484                   20511854.4264
 11  8 15  0 54  0.0000000  0  8G12G10G25G17G05G04G09G02
 -29752059.00447 -22857586.53145  21029265.0314                   21029262.9144
 -40122406.26247 -30023210.44545  20804691.3914                   20804689.4734
   -919135.03146   -514840.35243  23514621.6564                   23514623.0204
 -73706501.96546 -57390279.84843  23317857.7664                   23317857.1524
 -22070273.09847 -17133291.81645  21459583.0864                   21459581.5944
 -57322378.83247 -44181264.14144  21949069.4454                   21949068.4694
 -28596428.91846 -21361477.42643  23952062.3364                   23952063.3524
 -48695788.62547 -37897137.30146  20495880.3054                   20495876.3324
 11  8 15  0 54 30.0000000  0  8G12G10G25G17G05G04G09G02
 -29889846.87147 -22964953.68745  21003045.0004                   21003042.7344
 -40197640.51247 -30081834.53945  20790374.5234                   20790372.4384
  -1103634.52746   -658606.20743  23479512.4774                   23479512.9104
 -73739615.29346 -57416082.48043  23311556.8204                   23311556.8054
 -22242316.00047 -17267351.17645  21426844.6174                   21426843.5824
 -57333133.53947 -44189644.46944  21947023.1724                   21947021.6844
 -28604755.72746 -21367965.96943  23950477.8594                   23950478.9024
 -48779478.43447 -37962350.14146  20479954.6644                   20479950.7974
 11  8 15  0 55  0.0000000  0  8G12G10G25G17G05G04G09G02
 -28451706.46947 -21844324.79745  21276714.1724                   21276711.7344
 -38696808.78547 -28912355.28145  21075973.5554                   21075971.4494
    287552.04346    425435.30143  23744246.5394                   23744247.1174
 -72197123.02046 -56214140.49243  23605083.4924                   23605083.2584
 -20838543.57447 -16173502.48845  21693973.7504                   21693971.6334
 -55768360.89147 -42970341.16044  22244789.6724                   22244787.9734
 -27037571.36346 -20146783.40643  24248702.7114                   24248704.2814
 -47287468.22747 -36799744.78946  20763874.9844                   20763870.3094
 11  8 15  0 55 30.0000000  0  8G12G10G25G17G05G04G09G02
 -28588483.90247 -21950904.60945  21250686.0394                   21250683.6334
 -38770755.49247 -28969976.08245  21061902.0704                   21061900.0314
    103576.29346    282077.57843  23709237.3674                   23709238.1954
 -72229865.99646 -56239654.55143  23598853.0314                   23598852.1844
 -21009803.37947 -16306951.64545  21661384.1564                   21661382.5904
 -55778901.95347 -42978554.99644  22242783.0164                   22242781.6804
 -27045718.60946 -20153132.04343  24247152.5784                   24247153.0314
 -47370603.83647 -36864525.78946  20748054.3674                   20748049.9144
 11  8 15  0 56  0.0000000  0  8G12G10G25G17G05G04G09G02
 -28724752.07447 -22057087.60545  21224755.3984                   21224752.7304
 -38844058.55147 -29027095.35945  21047952.9694                   21047950.8874
    -80132.73446    138927.68443  23674278.1564                   23674279.3324
 -72262422.47346 -56265023.27743  23592658.1564                   23592657.0434
 -21180666.60547 -16440091.78145  21628869.8284                   21628868.2504
 -55789338.28947 -42986687.23444  22240797.7274                   22240796.2464
 -27053780.53546 -20159414.16043  24245618.9924                   24245619.4844
 -47453463.21547 -36929091.54346  20732287.4774                   20732282.7234
 11  8 15  0 56 30.0000000  0  8G12G10G25G17G05G04G09G02
 -28860510.71547 -22162873.56245  21198920.7974                   21198918.3954
 -38916719.55147 -29083714.31645  21034125.8524                   21034123.9064
   -263573.51246     -4013.11343  23639370.5314                   23639372.1294
 -72294792.77346 -56290246.96544  23586499.3594                   23586496.8284
 -21351131.87947 -16572921.82445  21596431.7034                   21596429.6994
 -55799672.31647 -42994739.76244  22238831.1414                   22238829.6294
 -27061761.30546 -20165633.00042  24244100.3284                   24244101.1334
 -47536048.90647 -36993444.03546  20716571.6414                   20716566.9574
 11  8 15  0 57  0.0000000  0  8G12G10G25G17G05G04G09G02
 -28995757.11347 -22268260.37945  21173185.2894                   21173181.9734
 -38988738.54347 -29139833.00845  21020421.1484                   21020419.3164
   -446742.74246   -146742.39843  23604515.2814                   23604516.0124
 -72326975.94146 -56315324.81644  23580374.6334                   23580373.3444
 -21521196.25047 -16705439.48045  21564068.9304                   21564067.2704
 -55809905.47347 -43002713.67244  22236883.6954                   22236882.2854
 -27069663.66846 -20171790.82043  24242595.5314                   24242597.1484
 -47618361.30947 -37057583.57446  20700908.1644                   20700903.3754
 11  8 15  0 57 30.0000000  0  8G12G10G25G17G05G04G09G02
 -29130488.55147 -22373245.93045  21147546.4224                   21147543.8244
 -39060115.31647 -29195451.27745  21006838.8364                   21006836.6604
   -629636.91846   -289257.34043  23569711.3134                   23569712.3714
 -72358970.97746 -56340256.06643  23574285.9454                   23574284.7344
 -21690855.93447 -16837641.78545  21531784.3444                   21531782.1524
 -55820038.59447 -43010609.67644  22234955.1724                   22234953.8914
 -27077490.02746 -20177889.36742  24241106.8364                   24241108.2074
 -47700400.83647 -37121510.49246  20685296.3524                   20685291.8874
 11  8 15  0 58  0.0000000  0  8G12G10G25G17G05G04G09G02
 -29264702.74247 -22477828.42245  21122006.2664                   21122003.8674
 -39130850.45347 -29250569.55145  20993378.3674                   20993376.4184
   -812253.12946   -431555.66843  23534961.0234                   23534961.8404
 -72390776.96146 -56365039.98843  23568233.0314                   23568232.7234
 -21860108.11747 -16969526.55545  21499576.2894                   21499574.7154
 -55830073.29347 -43018428.95744  22233046.1174                   22233044.5864
 -27085243.45746 -20183931.11343  24239631.6024                   24239633.5394
 -47782168.34447 -37185225.44546  20669736.6724                   20669732.0634
 11  8 15  0 58 30.0000000  0  8G12G10G25G17G05G04G09G02
 -29398398.96947 -22582007.30145  21096565.0634                   21096562.0634
 -39200945.91847 -29305189.40245  20980039.3134                   20980037.5474
   -994589.98846   -573636.32444  23500263.6024                   23500264.1684
 -72422394.98046 -56389677.43043  23562215.9844                   23562216.3674
 -22028951.60547 -17101092.87945  21467446.4384                   21467444.7774
 -55840012.31647 -43026173.68744  22231154.9844                   22231153.5004
 -27092928.44545 -20189919.52042  24238169.3054                   24238171.2194
 -47863666.50047 -37248730.50446  20654228.2034                   20654223.3874
 11  8 15  0 59  0.0000000  0  8G12G10G25G17G05G04G09G02
 -29531574.99647 -22685780.84845  21071222.3674                   21071219.4454
 -39270401.84047 -29359310.89545  20966822.2814                   20966820.5554
  -1176644.44547   -715496.89544  23465619.6254                   23465620.2114
 -72453824.23046 -56414167.80143  23556234.7974                   23556235.0634
 -22197383.75047 -17232338.65245  21435394.7344                   21435393.0554
 -55849856.95747 -43033844.87944  22229281.6334                   22229280.5824
 -27100547.94546 -20195856.84442  24236719.1564                   24236721.3134
 -47944896.04747 -37312026.27046  20638770.5474                   20638766.3554
 11  8 15  0 59 30.0000000  0  8G12G10G25G17G05G04G09G02
 -29664227.33247 -22789146.31645  21045979.4614                   21045976.0314
 -39339216.66047 -29412932.82845  20953727.1484                   20953725.4104
  -1358411.69946   -857133.69544  23431030.8054                   23431031.0904
 -72485062.17646 -56438509.10543  23550290.3134                   23550290.7814
 -22365399.15247 -17363259.69945  21403422.4064                   21403420.6024
 -55859606.91447 -43041442.30144  22227425.8674                   22227425.0744
 -27108102.77346 -20201743.83242  24235282.1564                   24235283.3164
 -48025856.16847 -37375112.09446  20623364.5864                   20623359.9924
 11  8 15  1  0  0.0000000  0  8G12G10G25G17G05G04G09G02
 -29796355.10247 -22892103.02745  21020836.1254                   21020833.4144
 -39407392.62947 -29466056.96545  20940754.0784                   20940751.7154
  -1539890.54747   -998545.75844  23396496.1644                   23396496.8484
 -72516109.82846 -56462702.08643  23544382.4064                   23544382.6374
 -22532996.78547 -17493855.21545  21371529.2424                   21371527.9964
 -55869265.25446 -43048968.28544  22225588.0004                   22225587.1764
 -27115598.13745 -20207584.48843  24233856.0004                   24233857.1214
 -48106549.51247 -37437990.03946  20608008.8834                   20608004.3524
 11  8 15  1  0 30.0000000  0  8G12G10G25G17G05G04G09G02
 -29927958.93047 -22994651.47745  20995792.7424                   20995789.9144
 -39474932.55547 -29518685.48045  20927901.8054                   20927899.3164
  -1721080.14147  -1139732.41844  23362016.9924                   23362016.9384
 -72546968.32846 -56486747.71143  23538510.4224                   23538509.9184
 -22700176.17247 -17624124.82845  21339716.2344                   21339714.9184
 -55878835.32846 -43056425.52344  22223767.3284                   22223765.6954
 -27123038.80146 -20213382.52342  24232439.3524                   24232441.5124
 -48186979.06247 -37500662.41846  20592703.6954                   20592699.0434
 11  8 15  1  1  0.0000000  0  8G12G10G25G17G05G04G09G02
 -30059037.10247 -23096790.33245  20970849.1254                   20970846.8634
 -39541837.55147 -29570819.25845  20915170.2504                   20915167.3444
  -1901978.20747  -1280691.94544  23327593.1954                   23327593.5664
 -72577638.18746 -56510646.35243  23532674.7734                   23532673.8714
 -22866935.38347 -17754067.02345  21307983.2584                   21307981.9924
 -55888319.44147 -43063815.78544  22221961.8444                   22221961.0784
 -27130428.51246 -20219140.82842  24231033.4694                   24231035.1054
 -48267146.26647 -37563130.38746  20577448.9384                   20577444.1524
 11  8 15  1  1 30.0000000  0  8G12G10G25G17G05G04G09G02
 -30189585.79747 -23198516.59445  20946006.9304                   20946004.1134
 -39608106.72747 -29622457.58245  20902559.5944                   20902556.9304
  -2082580.12547  -1421420.66444  23293225.1414                   23293226.4104
 -72608116.94546 -56534396.07043  23526875.6484                   23526873.7734
 -23033269.03547 -17883677.62545  21276331.2424                   21276329.2344
 -55897717.19147 -43071138.74644  22220174.2584                   22220172.8164
 -27137768.50845 -20224860.40642  24229637.2814                   24229638.2464
 -48347050.53947 -37625393.47346  20562243.2734                   20562238.8554
 11  8 15  1  2  0.0000000  0  8G12G10G25G17G05G04G09G02
 -30319604.71947 -23299830.04745  20921265.0314                   20921262.0124
 -39673742.13347 -29673602.05945  20890069.3204                   20890067.4024
  -2262884.43446  -1561917.51244  23258914.6334                   23258915.1214
 -72638405.33246 -56557997.46143  23521111.5944                   23521110.2384
 -23199177.13347 -18012956.62145  21244759.7194                   21244758.1334
 -55907031.32447 -43078396.56244  22218401.4454                   22218400.2154
 -27145063.17645 -20230544.66042  24228248.5474                   24228250.8554
 -48426694.20347 -37687453.48846  20547087.6804                   20547082.8714
 11  8 15  1  2 30.0000000  0  8G12G10G25G17G05G04G09G02
 -30449089.73847 -23400727.47345  20896625.0234                   20896622.0474
 -39738742.40247 -29724251.61745  20877700.3834                   20877697.6724
  -2442886.27346  -1702178.66444  23224661.1884                   23224662.5164
 -72668500.96146 -56581448.62543  23515383.1174                   23515382.5354
 -23364654.47347 -18141899.95745  21213270.3594                   21213268.5984
 -55916261.43747 -43085588.92244  22216645.6804                   22216643.7734
 -27152313.55545 -20236194.41042  24226870.1884                   24226870.5474
 -48506076.40247 -37749309.76246  20531982.1174                   20531976.9224
 11  8 15  1  3  0.0000000  0  8G12G10G25G17G05G04G09G02
 -30578041.80947 -23501209.61745  20872086.4774                   20872083.6914
 -39803111.10247 -29774409.05545  20865451.1954                   20865449.0394
  -2622585.66046  -1842204.13744  23190465.0864                   23190466.3444
 -72698405.83646 -56604751.19143  23509693.1254                   23509691.7854
 -23529700.87947 -18270507.51245  21181863.2814                   21181861.2344
 -55925411.75847 -43092719.08644  22214904.3594                   22214902.8754
 -27159525.51645 -20241814.20742  24225496.7114                   24225498.6024
 -48585200.96947 -37810965.28145  20516924.5864                   20516920.2384
 11  8 15  1  3 30.0000000  0  8G12G10G25G17G05G04G09G02
 -30706458.69947 -23601274.72345  20847649.1804                   20847646.4494
 -39866848.69547 -29824074.72345  20853322.4454                   20853320.0164
  -2801979.27346  -1981991.35944  23156327.9384                   23156329.2114
 -72728119.56246 -56627904.75043  23504040.0784                   23504038.2974
 -23694313.44947 -18398777.00845  21150538.1414                   21150536.4614
 -55934483.15247 -43099787.75044  22213177.9304                   22213177.1994
 -27166701.43746 -20247405.90642  24224131.8984                   24224133.3794
 -48664068.47747 -37872420.49646  20501916.7734                   20501912.1214
 11  8 15  1  4  0.0000000  0  8G12G10G25G17G05G04G09G02
 -29258915.32047 -22473318.84045  21123107.6024                   21123104.6174
 -38354534.58247 -28645648.14545  21141106.3284                   21141104.3874
  -1405639.35546   -893934.25444  23422042.8984                   23422043.1844
 -71182221.11746 -55423308.55943  23798213.3054                   23798213.9694
 -22283065.19547 -17299103.01245  21419089.9454                   21419088.2034
 -54368057.85247 -41879196.64544  22511258.4144                   22511258.0124
 -25598425.51246 -19025372.79742  24522565.1724                   24522566.4224
 -47167258.27347 -36706074.89846  20786749.8834                   20786745.6254
 11  8 15  1  4 30.0000000  0  8G12G10G25G17G05G04G09G02
 -29386259.25047 -22572547.88345  21098874.9694                   21098872.6294
 -38417014.82047 -28694334.05945  21129216.8914                   21129214.4964
  -1584415.94146  -1033240.66444  23388022.7114                   23388023.9804
 -71211552.89546 -55446164.46543  23792632.2734                   23792631.6914
 -22446805.26247 -17426692.63745  21387931.0084                   21387929.3954
 -54376978.77746 -41886148.06244  22509561.0394                   22509560.2464
 -25605541.76246 -19030917.97742  24521209.7424                   24521212.4574
 -47245617.61347 -36767134.14146  20771839.3524                   20771834.6094
 11  8 15  1  5  0.0000000  0  8G12G10G25G17G05G04G09G02
 -29513060.67647 -22671354.18045  21074745.2114                   21074743.0904
 -38478864.48847 -28742528.61745  21117447.2734                   21117444.8054
  -1762876.32446  -1172300.66444  23354062.4844                   23354063.8674
 -71240690.11346 -55468868.78943  23787088.4614                   23787087.3404
 -22610101.76647 -17553936.62145  21356856.6484                   21356855.3364
 -54385823.23447 -41893039.86744  22507878.6804                   22507877.4224
 -25612629.25046 -19036440.87142  24519861.8364                   24519863.5664
 -47323721.12147 -36827994.02745  20756976.1724                   20756971.6884
 11  8 15  1  5 30.0000000  0  8G12G10G25G17G05G04G09G02
 -29639322.03147 -22769739.64846  21050718.8134                   21050715.8834
 -38540088.52047 -28790235.66845  21105796.1644                   21105794.8794
  -1941021.94946  -1311115.39843  23320162.7194                   23320163.4534
 -71269635.88346 -55491423.97343  23781579.8054                   23781578.6374
 -22772956.20347 -17680836.14545  21325866.6024                   21325865.2384
 -54394596.62946 -41899876.32844  22506208.8594                   22506207.1764
 -25619695.37145 -19041946.99642  24518517.1484                   24518518.9964
 -47401573.82847 -36888658.48446  20742161.3284                   20742156.7664
 11  8 15  1  6  0.0000000  0  8G12G10G25G17G05G04G09G02
 -29765041.16047 -22867702.60545  21026794.6564                   21026792.2624
 -38600687.86347 -28837455.94145  21094264.9304                   21094262.6414
  -2118849.59046  -1449682.37944  23286323.0234                   23286323.6524
 -71298389.61746 -55513829.46543  23776107.0784                   23776107.1954
 -22935365.77347 -17807389.02045  21294960.8364                   21294958.9264
 -54403300.38346 -41906658.52344  22504552.9304                   22504551.2934
 -25626742.52046 -19047438.32443  24517176.1644                   24517178.1024
 -47479176.65647 -36949128.23045  20727394.2194                   20727389.7664
 11  8 15  1  6 30.0000000  0  8G12G10G25G17G05G04G09G02
 -29890213.46947 -22965239.46145  21002975.8754                   21002973.4734
 -38660661.05947 -28884188.30945  21082852.5314                   21082850.2424
  -2296354.19946  -1587997.66844  23252545.6564                   23252545.3834
 -71326948.48846 -55536083.13743  23770673.6724                   23770672.9924
 -23097325.60247 -17933591.44545  21264141.2814                   21264139.2304
 -54411933.30146 -41913385.51244  22502909.6804                   22502907.8524
 -25633771.58245 -19052915.61743  24515839.0704                   24515840.6054
 -47556528.23047 -37009402.18446  20712674.6954                   20712670.5044
 11  8 15  1  7  0.0000000  0  8G12G10G25G17G05G04G09G02
 -30014838.83647 -23062350.13345  20979260.1884                   20979257.3244
 -38720009.61747 -28930433.94145  21071559.2504                   21071556.7584
  -2473533.59846  -1726059.50844  23218829.1644                   23218829.8164
 -71355312.69146 -55558185.12943  23765276.2504                   23765274.6334
 -23258833.56647 -18059441.78145  21233407.1094                   21233404.9104
 -54420497.32846 -41920058.82044  22501279.7274                   22501278.8754
 -25640786.24245 -19058381.66842  24514503.9454                   24514506.0634
 -47633630.55147 -37069481.93046  20698002.5944                   20697998.4144
 11  8 15  1  7 30.0000000  0  8G12G10G25G17G05G04G09G02
 -30138916.73447 -23159034.19945  20955648.5314                   20955646.0474
 -38778735.86747 -28976194.66045  21060383.1254                   21060381.0514
  -2650386.20346  -1863866.70344  23185175.4614                   23185175.6484
 -71383483.03546 -55580136.06243  23759915.6174                   23759914.5824
 -23419888.66047 -18184939.21145  21202759.3204                   21202757.5704
 -54428995.40646 -41926680.73844  22499662.9064                   22499661.9224
 -25647790.61345 -19063839.71142  24513171.3834                   24513173.5084
 -47710485.63747 -37129369.01245  20683377.3054                   20683373.2424
 11  8 15  1  8  0.0000000  0  8G12G10G25G17G05G04G09G02
 -30262445.33647 -23255290.24645  20932142.0474                   20932139.7934
 -38836841.07047 -29021471.46545  21049326.4144                   21049324.0394
  -2826909.60246  -2001417.35944  23151584.3364                   23151584.5634
 -71411459.54346 -55601935.94543  23754591.9064                   23754590.7344
 -23580489.06647 -18310082.34845  21172198.1724                   21172196.5664
 -54437428.91047 -41933252.34444  22498058.1884                   22498057.2814
 -25654787.93745 -19069292.30942  24511839.8134                   24511842.1884
 -47787094.86347 -37189064.52346  20668799.1024                   20668795.0864
 11  8 15  1  8 30.0000000  0  8G12G10G25G17G05G04G09G02
 -30385424.75447 -23351118.36345  20908739.6724                   20908737.0004
 -38894328.28147 -29066266.69945  21038387.2114                   21038385.0514
  -3003102.69147  -2138710.65644  23118055.0474                   23118056.5944
 -71439243.21546 -55623585.60543  23749304.5004                   23749303.5474
 -23740633.52347 -18434870.20345  21141723.7814                   21141721.8794
 -54445800.98846 -41939776.07844  22496465.0394                   22496464.3874
 -25661782.98845 -19074743.06242  24510509.6254                   24510511.0434
 -47863460.96147 -37248570.56646  20654267.2274                   20654263.0744
 11  8 15  1  9  0.0000000  0  8G12G10G25G17G05G04G09G02
 -30507851.76247 -23446516.02045  20885442.8834                   20885440.3874
 -38951196.80547 -29110579.84845  21027565.0474                   21027563.0314
  -3178961.12147  -2275743.20344  23084590.8524                   23084591.2274
 -71466832.39146 -55645083.69543  23744053.2814                   23744053.4534
 -23900317.80547 -18559299.47745  21111337.0704                   21111334.5944
 -54454111.41847 -41946251.76244  22494883.8834                   22494882.6914
 -25668777.22745 -19080193.22742  24509177.8674                   24509180.3954
 -47939583.55947 -37307886.87545  20639781.2194                   20639777.1254
 11  8 15  1  9 30.0000000  0  8G12G10G25G17G05G04G09G02
 -30629725.34447 -23541482.44145  20862251.2584                   20862248.8484
 -39007448.28947 -29154412.18445  21016861.0864                   21016858.9804
  -3354482.45346  -2412513.04344  23051190.4844                   23051190.7544
 -71494226.80545 -55666430.05143  23738841.3674                   23738839.5594
 -24059540.40647 -18683369.00445  21081036.9924                   21081035.8954
 -54462361.93746 -41952680.76244  22493313.5864                   22493313.2854
 -25675773.92245 -19085645.28142  24507844.8834                   24507849.9184
 -48015463.91447 -37367014.42646  20625342.3134                   20625337.5704
 11  8 15  1 10  0.0000000  0  8G12G10G25G17G05G04G09G02
 -30751043.04747 -23636015.71145  20839165.5004                   20839162.6334
 -39063083.29747 -29197764.15245  21006273.6174                   21006271.7034
  -3529663.40247  -2549017.63744  23017854.1954                   23017854.4924
 -71521425.57046 -55687623.91843  23733665.5394                   23733664.3914
 -24218298.13747 -18807076.29345  21050827.0164                   21050824.9344
 -54470553.24246 -41959063.62144  22491754.9224                   22491753.8984
 -25682775.53145 -19091101.17642  24506513.9694                   24506517.5744
 -48091102.55947 -37425953.62146  20610948.6024                   20610944.4344
 11  8 15  1 10 30.0000000  0  8G12G10G25G17G05G04G09G02
 -30871804.35947 -23730115.42645  20816184.8444                   20816182.7704
 -39118103.56247 -29240637.09445  20995804.0314                   20995801.9144
  -3704501.78547  -2685255.29744  22984583.2584                   22984583.4924
 -71548428.87545 -55708665.46943  23728526.8834                   23728525.3094
 -24376589.00447 -18930419.78945  21020705.4224                   21020703.2274
 -54478687.43046 -41965401.93744  22490207.3444                   22490205.6994
 -25689785.73045 -19096563.82442  24505179.9304                   24505183.5824
 -48166501.39147 -37484705.94946  20596600.8054                   20596596.5044
 11  8 15  1 11  0.0000000  0  8G12G10G25G17G05G04G09G02
 -30992008.64847 -23823781.10545  20793310.8054                   20793308.2464
 -39172511.07447 -29283032.57045  20985451.2894                   20985448.4304
  -3878995.74647  -2821224.60244  22951378.8524                   22951378.8754
 -71575236.77346 -55729554.71543  23723425.6094                   23723424.6484
 -24534411.65647 -19053398.43745  20990672.2424                   20990670.4694
 -54486766.64146 -41971697.46943  22488669.6254                   22488668.3094
 -25696808.09045 -19102035.86742  24503844.3444                   24503848.2074
 -48241662.21947 -37543272.82846  20582298.0554                   20582293.7894
 11  8 15  1 11 30.0000000  0  8G12G10G25G17G05G04G09G02
 -31111651.91047 -23917009.61745  20770543.4534                   20770540.3554
 -39226305.04347 -29324949.95345  20975213.8204                   20975211.9224
  -4053140.39547  -2956921.70344  22918239.7274                   22918240.5784
 -71601847.42646 -55750290.26243  23718361.8284                   23718361.0084
 -24691761.27347 -19176008.48845  20960730.2974                   20960728.3524
 -54494789.94546 -41977949.39544  22487142.3594                   22487141.2934
 -25703843.508 5                  24502504.688
 -48316583.86347 -37601653.32046  20568041.1174                   20568036.8794
 11  8 15  1 12  0.0000000  0  8G12G10G25G17G05G04G09G02
 -31230735.77047 -24009802.22745  20747882.4224                   20747879.8524
 -39279489.79747 -29366392.62945  20965093.0944                   20965090.9774
  -4226935.87947  -3092346.72744  22885167.1094                   22885168.1374
 -71628263.09846 -55770873.94943  23713335.8364                   23713334.6334
 -24848638.59047 -19298250.52745  20930876.8754                   20930875.3054
 -54502761.71546 -41984161.18044  22485625.7814                   22485624.3524
 -25710897.848 5                  24501162.281
 -48391270.41447 -37659850.62146  20553828.7894                   20553823.9774
 11  8 15  1 12 30.0000000  0  8G12G10G25G17G05G04G09G02
 -29773832.56247 -22874552.96545  21025122.0164                   21025119.4924
 -37756642.41847 -28179758.31245  21254881.3754                   21254879.3554
  -2824951.47347  -1999891.33244  23151956.3364                   23151957.1604
 -70079060.19546 -54563702.87943  24008139.1174                   24008137.7424
 -23429614.14547 -18192517.15245  21200908.6484                   21200906.5354
 -52935260.65646 -40762731.79743  22783911.5784                   22783910.3244
 -24142551.484 5                  24799608.898
 -46890298.31247 -36490261.96546  20839453.8984                   20839449.7934
 11  8 15  1 13  0.0000000  0  8G12G10G25G17G05G04G09G02
 -29891791.59047 -22966469.10245  21002675.2034                   21002672.3284
 -37808610.79347 -28220253.16445  21244992.4774                   21244990.1294
  -2998038.95347  -2134764.65244  23119019.2344                   23119019.7274
 -70105083.20346 -54583980.57043  24003186.6954                   24003185.5314
 -23585538.74647 -18314016.81645  21171236.6484                   21171234.7304
 -52943131.34046 -40768864.80944  22782413.7034                   22782412.7894
                                  24798258.539
 -46964516.43047 -36548094.25046  20825330.9614                   20825326.6604
 11  8 15  1 13 30.0000000  0  8G12G10G25G17G05G04G09G02
 -30009186.49247 -23057945.64845  20980336.0784                   20980332.8014
 -37859973.46547 -28260276.03545  21235218.2274                   21235216.0704
  -3170768.52747  -2269359.14144  23086149.4304                   23086150.4224
 -70130909.68746 -54604105.12143  23998271.6174                   23998271.0204
 -23740983.49247 -18435142.55145  21141656.7114                   21141654.9534
 -52950953.97346 -40774960.37543  22780924.9694                   22780924.1214
 -24156777.121 5                  24796901.695
 -47038502.15247 -36605745.45346  20811251.8444                   20811247.7774
 11  8 15  1 14  0.0000000  0  8G12G10G25G17G05G04G09G02
 -30126014.91447 -23148980.77346  20958103.9304                   20958100.9774
 -37910730.75447 -28299827.17245  21225559.7424                   21225557.4774
  -3343136.73447  -2403672.01644  23053348.8674                   23053349.4224
 -70156538.42246 -54624075.57043  23993394.7424                   23993394.4924
 -23895945.49247 -18555892.12545  21112168.1644                   21112166.3164
 -52958728.56246 -40781018.51243  22779444.8754                   22779444.9024
 -24163932.836 5                  24795540.344
 -47112255.49647 -36663215.59046  20797217.0004                   20797212.9454
 11  8 15  1 14 30.0000000  0  8G12G10G25G17G05G04G09G02
 -30242276.89847 -23239574.52745  20935980.1174                   20935977.3914
 -37960885.81247 -28338909.04345  21216015.1024                   21216013.0044
  -3515142.30547  -2537702.31644  23020617.5784                   23020618.3674
 -70181970.73846 -54643892.97343  23988554.9534                   23988554.9534
 -24050424.05147 -18676264.99645  21082771.6174                   21082770.0434
 -52966458.09846 -40787041.54344  22777974.9454                   22777973.4024
 -24171122.031 5                  24794173.539
 -47185779.61347 -36720507.10246  20783225.2114                   20783221.3834
 11  8 15  1 15  0.0000000  0  8G12G10G25G17G05G04G09G02
 -30357969.94147 -23329724.95345  20913964.7034                   20913961.8094
 -38010438.74647 -28377521.73445  21206585.1094                   21206583.5864
  -3686781.35247  -2671447.00844  22987955.4774                   22987956.1484
 -70207204.83246 -54663555.91443  23983754.0314                   23983753.0864
 -24204415.42247 -18796258.23445  21053468.8754                   21053466.8014
 -52974142.72746 -40793029.57444  22776512.6884                   22776511.0044
 -24178346.676 5                  24792797.625
 -47259073.83247 -36777619.46946  20769278.2114                   20769274.3164
 11  8 15  1 15 30.0000000  0  8G12G10G25G17G05G04G09G02
 -30473092.57447 -23419430.90245  20892057.1094                   20892054.7234
 -38059391.12547 -28415666.46145  21197270.5704                   21197268.6214
  -3858051.36347  -2804904.14144  22955364.1254                   22955364.3134
 -70232240.80946 -54683064.47343  23978990.1884                   23978988.7074
 -24357917.68447 -18915870.35546  21024257.7194                   21024255.7734
 -52981783.84046 -40798983.70743  22775058.3204                   22775057.0864
 -24185609.879 5                  24791416.031
 -47332139.44947 -36834553.70746  20755373.9844                   20755370.1884
 11  8 15  1 16  0.0000000  0  8G12G10G25G17G05G04G09G02
 -30587644.62147 -23508692.23446  20870258.4454                   20870255.6174
 -38107744.91047 -28453344.74245  21188068.7194                   21188066.8444
  -4028950.04347  -2938071.95744  22922843.2734                   22922843.9264
 -70257078.63346 -54702418.63343  23974262.9534                   23974261.9264
 -24510929.12947 -19035100.01645  20995140.3364                   20995138.6884
 -52989382.92646 -40804905.08243  22773612.2974                   22773611.1764
 -24192914.750 5                  24790026.797
 -47404978.13347 -36891311.12146  20741513.8134                   20741509.3984
 11  8 15  1 16 30.0000000  0  8G12G10G25G17G05G04G09G02
 -30701625.40647 -23597508.43045  20848569.2664                   20848566.0984
 -38155502.20747 -28490558.23045  21178980.8444                   21178979.3244
  -4199475.57047  -3070948.98444  22890393.1954                   22890393.9344
 -70281718.97745 -54721618.91842  23969573.1024                   23969573.0274
 -24663448.41847 -19153946.17645  20966116.7194                   20966115.5474
 -52996941.92246 -40810795.24643  22772174.5084                   22772172.6214
 -24200264.996 5                  24788627.070
 -47477591.86747 -36947893.25446  20727696.0394                   20727691.4264
 11  8 15  1 17  0.0000000  0  8G12G10G25G17G05G04G09G02
 -30815035.74647 -23685880.13346  20826987.8834                   20826985.1804
 -38202667.01647 -28527310.03145  21170005.8134                   21170004.0554
  -4369627.43047  -3203534.83244  22858014.4304                   22858015.3984
 -70306163.59045 -54740666.70742  23964921.4144                   23964920.9694
 -24815475.44547 -19272408.75846  20937187.8444                   20937185.8444
 -53004464.41046 -40816656.93743  22770742.2194                   22770740.4654
 -24207665.738 5                  24787219.172
 -47549983.64847 -37004302.42646  20713919.7814                   20713915.6054
 11  8 15  1 17 30.0000000  0  8G12G10G25G17G05G04G09G02
 -30927872.69147 -23773805.02345  20805515.6724                   20805512.8244
 -38249239.10947 -28563599.99245  21161143.0944                   21161141.4924
  -4539401.12547  -3335826.00844  22825707.4774                   22825708.1374
 -70330410.51645 -54759560.46142  23960307.9224                   23960306.8874
 -24967006.16447 -19390484.60545  20908352.0234                   20908350.5984
 -53011949.87146 -40822489.80543  22769317.9774                   22769316.3014
 -24215118.043 5                  24785801.586
 -47622152.81647 -37060538.15246  20700186.7344                   20700182.7074
 11  8 15  1 18  0.0000000  0  8G12G10G25G17G05G04G09G02
 -31040134.82447 -23861282.01246  20784153.2814                   20784149.8634
 -38295220.28947 -28599429.49645  21152393.0864                   21152391.5554
  -4708794.13347  -3467820.55144  22793472.9304                   22793474.0044
 -70354459.34445 -54778299.84042  23955731.9844                   23955731.0944
 -25118038.79747 -19508172.33245  20879611.3364                   20879609.6174
 -53019399.49246 -40828294.70344  22767900.6484                   22767899.4414
 -24222624.422 5                  24784372.430
 -47694100.69147 -37116601.42246  20686495.4224                   20686491.2234
 11  8 15  1 18 30.0000000  0  8G12G10G25G17G05G04G09G02
 -31151819.96547 -23948309.40245  20762899.4534                   20762897.0354
 -38340610.34447 -28634798.37945  21143756.1094                   21143753.8524
  -4877802.34447  -3599515.25844  22761312.0164                   22761312.8404
 -70378308.55945 -54796883.68043  23951193.3054                   23951192.5984
 -25268569.64547 -19625469.05946  20850966.1644                   20850964.9224
 -53026812.98846 -40834071.48043  22766489.6094                   22766488.8444
 -24230186.754 5                  24782933.633
 -47765826.70347 -37172491.82046  20672846.6254                   20672842.5124
 11  8 15  1 19  0.0000000  0  8G12G10G25G17G05G04G09G02
 -31262927.32847 -24034886.57446  20741757.1024                   20741753.8834
 -38385411.69947 -28669708.52745  21135230.8834                   21135228.7074
  -5046423.57047  -3730908.43444  22729224.0634                   22729225.3054
 -70401958.39845 -54815312.12543  23946693.2894                   23946692.7704
 -25418597.08647 -19742373.53146  20822416.8284                   20822415.2664
 -53034192.06246 -40839821.43043  22765085.5944                   22765084.5474
 -24237808.293 5                  24781482.852
 -47837332.22347 -37228210.41046  20659239.1804                   20659235.0394
 11  8 15  1 19 30.0000000  0  7G12G10G25G17G05G04G02
 -31373456.41847 -24121013.14546  20720724.1484                   20720721.2974
 -38429626.73847 -28704161.80945  21126816.8834                   21126815.1414
  -5214656.37147  -3861998.89144  22697210.7584                   22697211.6724
 -70425409.58646 -54833585.79743  23942231.0704                   23942230.0164
 -25568120.16847 -19858884.98846  20793963.7344                   20793961.8404
 -53041539.03946 -40845546.39843  22763687.5474                   22763686.1684
 -47908619.71947 -37283759.11745  20645673.9534                   20645669.6134
 11  8 15  1 20  0.0000000  0  7G12G10G25G17G05G04G02
 -31483406.09447 -24206688.21946  20699801.3674                   20699798.3984
 -38473256.72747 -28738159.21145  21118514.0634                   21118512.4694
  -5382497.18447  -3992783.92644  22665271.8754                   22665272.8204
 -70448661.36746 -54851704.07843  23937806.5634                   23937805.5004
 -25717135.93047 -19975001.13746  20765607.0864                   20765605.1684
 -53048854.22346 -40851246.54743  22762295.7664                   22762294.0164
 -47979689.65247 -37339138.28946  20632149.5234                   20632145.4924
 11  8 15  1 20 30.0000000  0  7G12G10G25G17G05G04G02
 -31592772.88347 -24291909.11746  20678989.4304                   20678986.8524
 -38516301.35547 -28771700.48845  21110323.0634                   21110321.4454
  -5549941.18447  -4123259.75444  22633407.5634                   22633408.7734
 -70471711.19546 -54869664.99243  23933419.9924                   23933419.2114
 -25865640.24247 -20090718.74245  20737347.7344                   20737345.5474
 -53056136.47346 -40856921.07843  22760909.6094                   22760908.9264
 -48050540.27347 -37394346.57845  20618667.3444                   20618662.9804
 11  8 15  1 21  0.0000000  0  7G12G10G25G17G05G04G02
 -31701552.65647 -24376672.58246  20658289.6094                   20658287.1094
 -38558759.03147 -28804784.39545  21102243.5314                   21102241.8914
  -5716982.99647  -4253422.20744  22601621.5634                   22601621.8054
 -70494555.99246 -54887466.11743  23929072.7034                   23929071.8404
 -26013628.29747 -20206034.07846  20709186.4304                   20709184.4144
 -53063384.32446 -40862568.77743  22759530.7274                   22759529.9144
 -48121170.21147 -37449382.89145  20605227.1724                   20605222.5634
 11  8 15  1 21 30.0000000  0  7G12G10G25G17G05G04G02
 -30234320.55947 -23233374.85546  20937494.1884                   20937491.7584
 -37025209.87147 -27609811.03145  21394068.8284                   21394066.6644
  -4308194.24246  -3155664.70344  22869704.2814                   22869705.4264
 -68941774.55546 -53677506.59043  24224556.2894                   24224556.6644
 -24585672.90647 -19093341.53546  20980916.9924                   20980915.3874
 -51495178.32046 -39640590.11743  23057950.0164                   23057949.0634
 -46616158.03547 -36276646.14845  20891621.4614                   20891616.3754
 11  8 15  1 22  0.0000000  0  7G12G10G25G17G05G04G02
 -30341924.19147 -23317221.85546  20917018.1414                   20917015.5514
 -37066500.09447 -27641985.22745  21386210.9384                   21386209.1214
  -4474424.69147  -3285194.88744  22838071.3204                   22838072.4964
 -68964209.32446 -53694988.20343  24220287.5784                   24220287.1484
 -24732623.27347 -19207848.28546  20952953.1094                   20952951.6374
 -51502361.36746 -39646187.32443  23056583.4064                   23056582.6804
 -46686350.57447 -36331341.63746  20878263.8364                   20878259.7304
 11  8 15  1 22 30.0000000  0  7G12G10G25G17G05G04G02
 -30448942.99247 -23400613.12946  20896653.0554                   20896650.3874
 -37107214.13747 -27673710.46145  21378463.6884                   21378461.5594
  -4640250.26647  -3414409.62944  22806515.8594                   22806516.5434
 -68986443.57846 -53712313.62543  24216056.7504                   24216056.1484
 -24879056.61347 -19321952.14846  20925088.4694                   20925086.3164
 -51509518.23046 -39651764.14843  23055221.7344                   23055220.6724
 -46756330.60547 -36385871.53945  20864947.5864                   20864942.6294
 11  8 15  1 23  0.0000000  0  7G12G10G25G17G05G04G02
 -30555375.26647 -23483547.37946  20876399.8364                   20876397.0634
 -37147352.51647 -27704987.12545  21370825.3984                   21370823.5984
  -4805667.53547  -3543306.19944  22775037.9844                   22775039.2464
 -69008476.25846 -53729481.94943  24211863.8834                   24211863.4884
 -25024970.04347 -19435650.88746  20897321.7974                   20897319.7114
 -51516649.25846 -39657320.80543  23053864.3674                   23053863.6844
 -46826098.35547 -36440236.02345  20851670.5394                   20851665.9964
 11  8 15  1 23 30.0000000  0  7G12G10G25G17G05G04G02
 -30661221.14147 -23566024.68746  20856257.8364                   20856255.1254
 -37186918.60247 -27735817.83645  21363296.0314                   21363294.3554
  -4970675.24247  -3671883.61344  22743638.5394                   22743639.2544
 -69030308.42246 -53746494.08242  24207708.5394                   24207709.5314
 -25170362.94147 -19548944.01646  20869654.7274                   20869652.0474
 -51523756.86346 -39662859.23843  23052512.6804                   23052510.6914
 -46895656.20347 -36494436.95745  20838434.3594                   20838429.8244
 11  8 15  1 24  0.0000000  0  7G12G10G25G17G05G04G02
 -30766480.50447 -23648044.97346  20836227.4614                   20836224.9494
 -37225915.53547 -27766205.07045  21355875.7504                   21355873.4264
  -5135272.08647  -3800140.87944  22712316.7814                   22712317.6374
 -69051941.03945 -53763350.64842  24203593.2194                   24203592.6954
 -25315234.71947 -19661831.08646  20842086.3364                   20842083.8404
 -51530843.44546 -39668381.30143  23051163.5394                   23051162.6724
 -46965006.31647 -36548476.02045  20825237.7504                   20825233.0394
 11  8 15  1 24 30.0000000  0  7G12G10G25G17G05G04G02
 -30871153.65247 -23729608.46546  20816308.7894                   20816306.6294
 -37264345.21147 -27796150.27045  21348561.8984                   21348559.9884
  -5299455.46547  -3928075.96944  22681073.6804                   22681074.3244
 -69073374.34845 -53780051.96542  24199513.9534                   24199513.9414
 -25459583.57047 -19774310.67646  20814617.5394                   20814615.4454
 -51537910.15246 -39673887.86743  23049818.5944                   23049817.9454
 -47034149.81247 -36602354.07046  20812080.1024                   20812075.6914
 11  8 15  1 25  0.0000000  0  7G12G10G25G17G05G04G02
 -30975238.38747 -23810713.46546  20796502.5234                   20796499.8754
 -37302208.50847 -27825654.14145  21341357.7274                   21341355.4654
  -5463222.06647  -4055686.29344  22649910.0864                   22649910.6294
 -69094607.27045 -53796597.11742  24195473.1024                   24195473.6294
 -25603406.51247 -19886380.45746  20787248.7814                   20787246.6684
 -51544956.91846 -39679378.87543  23048478.1564                   23048476.8204
 -47103086.82847 -36656071.23045  20798961.6484                   20798957.3054
 11  8 15  1 25 30.0000000  0  7G12G10G25G17G05G04G02
 -31078736.18747 -23891361.10546  20776807.1414                   20776804.8554
 -37339510.00447 -27854720.24245  21334258.7894                   21334257.0314
  -5626571.73847  -4182971.76244  22618825.5944                   22618826.3674
 -69115641.82045 -53812987.66042  24191470.7814                   24191471.4924
 -25746704.32447 -19998041.05546  20759980.0164                   20759978.3054
 -51551987.41046 -39684857.21943  23047140.0634                   23047138.7034
 -47171821.05147 -36709630.37946  20785881.8524                   20785877.6644
 11  8 15  1 26  0.0000000  0  7G12G10G25G17G05G04G02
 -31181645.17247 -23971549.92646  20757224.3984                   20757221.4804
 -37376250.89147 -27883349.52345  21327267.3914                   21327265.6764
  -5789501.17647  -4309929.76644  22587821.1254                   22587821.8094
 -69136477.13745 -53829223.05542  24187505.7274                   24187506.7194
 -25889474.70747 -20109290.66846  20732811.9454                   20732809.9574
 -51559001.91446 -39690323.12143  23045805.1954                   23045803.7734
 -47240352.53947 -36763031.54746  20772840.6174                   20772836.6024
 11  8 15  1 26 30.0000000  0  7G12G10G25G17G05G04G02
 -31283964.00847 -24051278.89846  20737753.7664                   20737751.3554
 -37412431.96547 -27911542.55944  21320382.2504                   21320380.4804
  -5952007.08247  -4436557.73044  22556897.4454                   22556898.1134
 -69157112.36345 -53845302.52742  24183579.3754                   24183579.6994
 -26031714.77347 -20220127.04746  20705744.0084                   20705742.0234
 -51566000.53546 -39695776.63743  23044473.3834                   23044472.5204
 -47308681.62147 -36816274.99246  20759838.2974                   20759834.0084
 11  8 15  1 27  0.0000000  0  7G12G10G25G17G05G04G02
 -31385692.79747 -24130548.08646  20718395.3284                   20718392.8984
 -37448055.75047 -27939301.36744  21313603.6564                   21313601.5004
  -6114087.25447  -4562853.97344  22526054.3914                   22526054.9534
 -69177547.85945 -53861226.27742  24179690.2424                   24179691.1254
 -26173422.87547 -20330548.91446  20678778.4064                   20678776.3754
 -51572984.59446 -39701218.78943  23043145.2424                   23043143.6054
 -47376809.78147 -36869361.87545  20746873.9384                   20746869.8954
 11  8 15  1 27 30.0000000  0  7G12G10G25G17G05G04G02
 -31486831.68047 -24209357.60946  20699149.5864                   20699146.8594
 -37483125.82847 -27966628.70344  21306930.0394                   21306927.9844
  -6275740.73447  -4688817.72344  22495293.1254                   22495293.2854
 -69197784.83645 -53876995.32443  24175840.2274                   24175839.7664
 -26314599.08247 -20440556.32046  20651913.1414                   20651911.4414
 -51579956.87546 -39706651.73443  23041817.2194                   23041816.4654
 -47444739.08647 -36922293.81245  20733947.7114                   20733943.2384
 11  8 15  1 28  0.0000000  0  7G12G10G25G17G05G04G02
 -31587379.31647 -24287706.42646  20680015.6094                   20680013.3204
 -37517643.49247 -27993525.59845  21300361.4694                   21300359.3794
  -6436964.34047  -4814446.51644  22464612.8204                   22464613.5234
 -69217822.32045 -53892608.96943  24172028.1174                   24172026.8714
 -26455240.64547 -20550147.10946  20625149.5784                   20625147.8164
 -51586917.39846 -39712075.55943  23040493.0944                   23040492.4534
 -47512470.19547 -36975071.30545  20721058.4454                   20721054.6884
 11  8 15  1 28 30.0000000  0  7G12G10G25G17G05G04G02
 -31687336.37947 -24365595.06245  20660994.4534                   20660992.1294
 -37551612.37547 -28019994.85544  21293897.1564                   21293895.4574
  -6597757.16847  -4939739.62544  22434015.4774                   22434015.2464
 -69237662.23046 -53908068.73043  24168251.6024                   24168251.5084
 -26595347.74647 -20659321.43746  20598487.9614                   20598486.1804
 -51593868.98446 -39717492.43443  23039170.8674                   23039169.7774
 -47580005.51647 -37027696.23046  20708207.3754                   20708203.0594
 11  8 15  1 29  0.0000000  0  8G12G10G25G17G05G04G29G02
 -31786702.51647 -24443023.23045  20642085.6644                   20642083.2114
 -37585033.97347 -28046037.67644  21287537.2504                   21287535.5514
  -6758116.32847  -5064694.81244  22403499.8914                   22403499.7664
 -69257303.78946 -53923373.85943  24164514.4384                   24164513.7894
 -26734918.25447 -20768077.65646  20571928.9144                   20571926.9654
 -51600812.00446 -39722902.59843  23037848.8594                   23037848.5314
  15502703.92215                  24524037.430
 -47647345.90647 -37080169.27045  20695392.9614                   20695388.5124
 11  8 15  1 29 30.0000000  0  8G12G10G25G17G05G04G29G02
 -31885480.73047 -24519993.28146  20623288.8204                   20623286.5394
 -37617914.38347 -28071658.77344  21281281.0554                   21281278.5984
  -6918043.27047  -5189313.22344  22373066.7504                   22373066.5314
 -69276750.60546 -53938527.21543  24160814.4454                   24160813.3284
 -26873954.55147 -20876417.59446  20545471.6644                   20545469.4574
 -51607751.52746 -39728310.04743  23036529.0314                   23036528.3954
  15333639.414 5                  24491865.086
 -47714495.97347 -37132493.99645  20682614.3984                   20682610.2034
 11  8 15  1 30  0.0000000  0  8G12G10G25G17G05G04G29G02
 -30408247.39547 -23368902.37945  20904397.2734                   20904394.7584
 -36074834.87547 -26869259.16844  21574919.2424                   21574916.8054
  -5502110.73447  -4085989.18044  22642510.0634                   22642510.2814
 -67720582.72746 -52725928.91043  24456942.7114                   24456942.0084
 -25437030.69547 -19756736.63746  20818909.1414                   20818906.5354
 -50039268.59046 -38506115.60943  23335001.1094                   23335000.6844
  16739933.30945  13426911.23852  24759475.0164                   24759473.5004
 -46206035.08647 -35957069.92646  20969664.8204                   20969660.6134
 11  8 15  1 30 30.0000000  0  8G12G10G25G17G05G04G29G02
 -30505851.05947 -23444957.21146  20885823.7034                   20885821.1604
 -36106642.21147 -26894044.13344  21568866.1414                   21568864.2854
  -5661169.45747  -4209931.04745  22612241.2424                   22612242.9774
 -67739643.94146 -52740781.84843  24453314.9924                   24453314.9964
 -25574996.68047 -19864242.57046  20792654.7424                   20792652.1134
 -50046207.12146 -38511522.28543  23333681.0084                   23333680.2424
  16570732.94146  13295066.78143  24727277.2504                   24727276.8054
 -46272811.52347 -36009103.52045  20956957.4144                   20956953.6374
 11  8 15  1 31  0.0000000  0  8G12G10G25G17G05G04G29G02
 -30602867.12947 -23520554.16445  20867362.1024                   20867359.8484
 -36137916.68047 -26918413.84845  21562914.8524                   21562912.6954
  -5819790.84047  -4333532.12145  22582057.5394                   22582058.4454
 -67758512.78146 -52755484.85543  24449726.2664                   24449724.5124
 -25712425.56647 -19971329.97746  20766502.6254                   20766500.3364
 -50053146.88346 -38516929.90643  23332359.4844                   23332359.7074
  16401465.43046  13163169.96943  24695066.3754                   24695066.5354
 -46339402.97347 -36060992.96545  20944286.1884                   20944282.1414
 11  8 15  1 31 30.0000000  0  8G12G10G25G17G05G04G29G02
 -30699294.50047 -23595692.39146  20849012.6804                   20849010.2974
 -36168660.30147 -26942369.93744  21557064.3134                   21557062.5274
  -5977971.91047  -4456790.09845  22551956.5784                   22551957.2114
 -67777188.60546 -52770037.47743  24446170.3674                   24446170.8444
 -25849315.34447 -20077997.31246  20740453.5394                   20740450.8444
 -50060088.68746 -38522339.16843  23331039.2344                   23331038.2894
  16232131.52746  13031221.50843  24662842.7734                   24662842.6724
 -46405809.75047 -36112738.50445  20931649.3524                   20931644.9574
 11  8 15  1 32  0.0000000  0  8G12G10G25G17G05G04G29G02
 -30795130.69947 -23670369.95346  20830775.5784                   20830773.2814
 -36198872.89147 -26965912.22745  21551315.5164                   21551313.6644
  -6135708.23447  -4579701.51245  22521939.9534                   22521940.6564
 -67795669.07045 -52784437.87543  24442653.6094                   24442654.0984
 -25985662.35547 -20184241.69946  20714507.7894                   20714505.2854
 -50067031.19146 -38527748.93043  23329717.9844                   23329717.2464
  16062734.23446  12899223.61343  24630608.3594                   24630607.8484
 -46472030.92647 -36164339.41845  20919047.4224                   20919043.6174
 11  8 15  1 32 30.0000000  0  8G12G10G25G17G05G04G29G02
 -30890373.49247 -23744585.13745  20812651.5004                   20812649.0044
 -36228555.02347 -26989041.18044  21545667.4224                   21545664.8404
  -6292995.87947  -4702263.31244  22492009.5554                   22492009.9344
 -67813952.67245 -52798684.87942  24439174.8984                   24439174.7464
 -26121463.40647 -20290060.67246  20688665.1094                   20688663.3554
 -50073973.62946 -38533158.63743  23328397.0554                   23328396.0594
  15893275.62546  12767177.95343  24598360.8674                   24598361.7664
 -46538066.07847 -36215795.38345  20906481.4224                   20906477.4104
 11  8 15  1 33  0.0000000  0  8G12G10G25G17G05G04G29G02
 -30985023.65647 -23818338.53546  20794640.2894                   20794637.8634
 -36257709.69147 -27011759.11744  21540119.0004                   21540117.3134
  -6449833.27747  -4824474.25844  22462164.4144                   22462164.7664
 -67832040.46145 -52812779.28942  24435732.2664                   24435732.4614
 -26256718.03547 -20395453.85946  20662927.2664                   20662925.1334
 -50080917.86746 -38538569.71943  23327076.0394                   23327074.8674
  15723755.43846  12635084.31343  24566102.0864                   24566103.5594
 -46603916.66047 -36267107.52745  20893950.8284                   20893946.6214
 11  8 15  1 33 30.0000000  0  8G12G10G25G17G05G04G29G02
 -31079080.26647 -23891629.42646  20776742.0554                   20776739.8914
 -36286338.87147 -27034067.58244  21534671.3834                   21534668.8714
  -6606217.85947  -4946332.34845  22432405.2194                   22432405.1334
 -67849932.02045 -52826720.84442  24432328.5784                   24432328.2584
 -26391424.34047 -20500419.78146  20637293.5004                   20637291.5704
 -50087864.59046 -38543982.72743  23325753.5234                   23325752.7504
  15554174.65646  12502943.42643  24533832.0004                   24533832.8954
 -46669583.67247 -36318276.62545  20881454.6174                   20881450.4884
 11  8 15  1 34  0.0000000  0  8G12G10G25G17G05G04G29G02
 -31172542.48447 -23964457.14146  20758956.8524                   20758954.1334
 -36314444.69947 -27055968.24244  21529322.3204                   21529321.0744
  -6762147.08247  -5067835.61344  22402732.5164                   22402732.9574
 -67867627.26645 -52840509.28142  24428961.6024                   24428961.4574
 -26525580.41447 -20604956.95346  20611764.5314                   20611762.2934
 -50094814.38746 -38549398.14543  23324431.1484                   23324430.1334
  15384533.96546  12370755.91043  24501550.0314                   24501550.6564
 -46735067.82847 -36369303.23445  20868993.4224                   20868989.3164
 11  8 15  1 34 30.0000000  0  8G12G10G25G17G05G04G29G02
 -31265407.55547 -24036819.53946  20741285.1174                   20741282.8984
 -36342026.92247 -27077460.89844  21524074.0944                   21524072.0904
  -6917615.98047  -5188980.19144  22373147.9144                   22373148.3674
 -67885123.08645 -52854142.40642  24425632.2424                   24425632.6134
 -26659182.84447 -20709062.71146  20586340.1564                   20586338.4494
 -50101765.55546 -38554814.62943  23323108.4924                   23323107.4614
  15214836.87146  12238524.43043  24469258.4224                   24469258.2074
 -46800367.48447 -36420186.09845  20856567.3524                   20856562.8204
 11  8 15  1 35  0.0000000  0  8G12G10G25G17G05G04G29G02
 -31357677.61347 -24108718.30546  20723726.6024                   20723724.1844
 -36369089.82447 -27098548.88744  21518924.3914                   21518922.4224
  -7072624.67247  -5309766.15245  22343650.4844                   22343651.3244
 -67902422.641 5                  24422338.898
 -26792232.00047 -20812737.34846  20561023.0164                   20561020.2304
 -50108721.27346 -38560234.67643  23321785.0634                   23321784.4264
  15045081.46146  12106247.50843  24436955.4064                   24436955.3134
 -46865485.84847 -36470927.69145  20844175.8834                   20844171.0904
 11  8 15  1 35 30.0000000  0  8G12G10G25G17G05G04G29G02
 -31449352.08247 -24180152.96146  20706281.6254                   20706279.1764
 -36395635.73047 -27119234.02044  21513873.1414                   21513870.8484
  -7227170.57047  -5430191.47345  22314241.6564                   22314242.2304
 -67919525.312 5                  24419083.453
 -26924726.54747 -20915979.82046  20535809.1954                   20535807.4304
 -50115682.30546 -38565658.85943  23320459.9924                   23320459.8014
  14875269.01246  11973926.11742  24404640.5634                   24404640.4734
 -46930423.77747 -36521528.67245  20831817.9924                   20831814.2734
 11  8 15  1 36  0.0000000  0  8G12G10G25G17G05G04G29G02
 -31540430.92247 -24251123.49645  20688949.9064                   20688947.5394
 -36421667.32047 -27139518.39144  21508919.2504                   21508917.1334
  -7381251.83647  -5550254.76245  22284920.8914                   22284921.5594
 -67936431.629 5                  24415865.789
 -27056665.54747 -21018789.40646  20510702.1954                   20510700.2194
 -50122649.85546 -38571088.10543  23319134.3674                   23319133.7894
  14705399.38746  11841560.19943  24372316.1564                   24372315.2544
 -46995183.00047 -36571990.41845  20819494.7734                   20819491.0004
 11  8 15  1 36 30.0000000  0  8G12G10G25G17G05G04G29G02
 -31630912.08647 -24321628.29746  20671731.8834                   20671729.1414
 -36447184.60247 -27159402.00044  21504063.2664                   21504060.9534
  -7534863.98047  -5669952.50045  22255689.7034                   22255690.1804
 -67953139.613 5                  24412689.313
 -27188045.50447 -21121163.37146  20485701.5084                   20485700.0004
 -50129622.72746 -38576521.54343  23317807.4694                   23317807.0664
  14535475.53146  11709152.02043  24339980.7664                   24339979.9694
 -47059762.02047 -36622311.73046  20807206.1024                   20807202.0164
 11  8 15  1 37  0.0000000  0  8G12G10G25G17G05G04G29G02
 -31720796.80547 -24391668.33645  20654627.8364                   20654625.0314
 -36472191.99647 -27178888.30144  21499304.6094                   21499302.4414
  -7688006.70747  -5789284.45345  22226547.2194                   22226548.2704
 -67969650.844 5                  24409546.906
 -27318867.02047 -21223102.17646  20460807.4304                   20460804.6094
 -50136603.43046 -38581961.05543  23316480.0864                   23316478.6334
  14365496.41846  11576700.74243  24307635.0394                   24307634.5594
 -47124163.51247 -36672494.72346  20794951.5864                   20794946.6524
 11  8 15  1 37 30.0000000  0  7G12G10G25G05G04G29G02
 -31810086.35247 -24461244.60545  20637636.0784                   20637633.5004
 -36496693.11347 -27197980.08244  21494641.9774                   21494640.0554
  -7840679.12947  -5908249.93045  22197494.4384                   22197495.2624
 -27449130.01647 -21324605.78946  20436019.1644                   20436016.1954
 -50143594.33646 -38587408.53143  23315149.2034                   23315148.2774
  14195461.31346  11444205.86342  24275278.3524                   24275278.3874
 -47188389.89547 -36722541.25045  20782728.9844                   20782724.8984
 11  8 15  1 38  0.0000000  0  7G12G10G25G05G04G29G02
 -31898779.44547 -24530356.11346  20620758.1954                   20620755.8794
 -36520689.45747 -27216678.54745  21490075.7894                   21490073.7974
  -7992878.12947  -6026846.51245  22168532.1564                   22168532.6564
 -27578832.53147 -21425672.65646  20411336.8444                   20411334.6524
 -50150595.41046 -38592863.91443  23313816.9844                   23313816.0434
  14025371.90646  11311668.69543  24242910.6484                   24242911.5704
 -47252441.31647 -36772451.46145  20770540.4064                   20770536.1214
 11  8 15  1 38 30.0000000  0  7G12G10G25G05G04G29G02
 -31986871.75447 -24598999.46146  20603994.9454                   20603992.5824
 -36544178.72347 -27234981.89144  21485606.1954                   21485603.6644
  -8144596.78147  -6145068.81645  22139661.1094                   22139661.7074
 -27707968.29347 -21526297.89546  20386763.4694                   20386760.9494
 -50157602.64546 -38598324.08643  23312482.7734                   23312482.7074
  13855233.46146  11179093.35542  24210534.5164                   24210534.8444
 -47316313.98447 -36822222.37145  20758385.9304                   20758381.3094
 11  8 15  1 39  0.0000000  0  7G12G10G25G05G04G29G02
 -30498940.35547 -23439572.40646  20887138.6804                   20887136.4804
 -34991742.43447 -26025291.27344  21781024.7504                   21781022.6604
  -6720407.86347  -5035311.17645  22410675.8594                   22410675.0474
 -26261112.17247 -20398877.51246  20662090.9144                   20662088.9104
 -48589196.66846 -37376189.58643  23610940.9384                   23610940.1054
  15260472.27045  12274084.60543  24477942.1804                   24477942.9844
 -45804586.73447 -35644253.08245  21046058.5864                   21046053.6054
 11  8 15  1 39 30.0000000  0  7G12G10G25G05G04G29G02
 -30585828.75047 -23507277.64546  20870604.2894                   20870602.0354
 -35014222.69947 -26042808.37144  21776747.1804                   21776744.9534
  -6871157.30547  -5152778.24245  22381988.3984                   22381988.6764
 -26389109.54747 -20498615.69946  20637733.6804                   20637731.7894
 -48596216.56246 -37381659.63743  23609604.5704                   23609604.0514
  15090240.08245  12141436.19543  24445548.5004                   24445549.6994
 -45868102.57447 -35693745.95345  21033971.5004                   21033967.5124
 11  8 15  1 40  0.0000000  0  7G12G10G25G05G04G29G02
 -30672117.50847 -23574515.64145  20854184.2194                   20854181.8404
 -35036204.87547 -26059937.34844  21772564.0314                   21772561.8364
  -7021421.64547  -5269867.31645  22353394.4144                   22353394.1644
 -26516538.65647 -20597911.08246  20613484.6884                   20613482.9734
 -48603246.98046 -37387137.92643  23608267.5704                   23608267.0704
  14919959.35546  12008749.94942  24413145.4924                   24413145.6564
 -45931444.37947 -35743103.20345  21021917.7664                   21021914.0634
 11  8 15  1 40 30.0000000  0  7G12G10G25G05G04G29G02
 -30757806.19947 -23641286.05546  20837878.3134                   20837875.7974
 -35057690.87547 -26076679.69944  21768475.5164                   21768473.3794
  -7171198.29347  -5386576.36745  22324892.6564                   22324893.4494
 -26643398.00047 -20696762.49246  20589344.4844                   20589342.1684
 -48610288.02046 -37392624.44543  23606928.4454                   23606926.7034
  14749631.26246  11876026.69942  24380732.9304                   24380733.2974
 -45994612.65247 -35792325.23845  21009897.3444                   21009893.5634
 11  8 15  1 41  0.0000000  0  7G12G10G25G05G04G29G02
 -30842896.37147 -23707590.08246  20821686.1414                   20821684.1094
 -35078684.87947 -26093038.67644  21764480.4064                   21764477.8014
  -7320486.82847  -5502905.07045  22296483.1174                   22296484.6914
 -26769687.98047 -20795170.23846  20565312.3134                   20565310.0784
 -48617342.30146 -37398121.34042  23605584.1484                   23605584.2854
  14579255.15245  11743266.10942  24348312.1174                   24348311.9884
 -46057609.84447 -35841413.96545  20997909.3914                   20997904.9064
 11  8 15  1 41 30.0000000  0  7G12G10G25G05G04G29G02
 -30927391.64547 -23773430.56246  20805607.0704                   20805604.9454
 -35099192.65647 -26109018.77344  21760577.5004                   21760576.1454
  -7469288.19547  -5618854.19145  22268167.5234                   22268167.8484
 -26895410.61347 -20893135.89846  20541387.8984                   20541385.4734
 -48624413.47346 -37403631.33242  23604238.4774                   23604238.2664
  14408828.37146  11659162.97353  24315880.1954                   24315877.7154
 -46120439.88347 -35890372.43445  20985952.9384                   20985949.1884
 11  8 15  1 42  0.0000000  0  7G12G10G25G05G04G29G02
 -31011290.68747 -23838806.45746  20789642.0944                   20789639.7234
 -35119215.61747 -26124621.09444  21756767.7974                   21756765.4654
  -7617599.38347  -5734421.35945  22239945.5784                   22239945.5744
 -27020563.97347 -20990657.96146  20517571.7424                   20517569.5164
 -48631501.47346 -37409154.49642  23602890.5004                   23602889.0664
  14238352.91445  11526324.94142  24283440.2734                   24283439.6804
 -46183102.90247 -35939200.76645  20974029.0394                   20974024.8484
 11  8 15  1 42 30.0000000  0  7G12G10G25G05G04G29G02
 -31094593.28947 -23903717.56646  20773789.6484                   20773787.4884
 -35138755.64847 -26139847.10244  21753049.0164                   21753046.9024
  -7765417.69947  -5849604.46145  22211816.4844                   22211816.5664
 -27145146.32847 -21087735.08246  20493864.7504                   20493862.2734
 -48638606.62546 -37414690.98443  23601538.6954                   23601536.9924
  14067829.89546  11393449.89842  24250989.8674                   24250991.0274
 -46245599.16847 -35987899.16445  20962136.0704                   20962132.1484
 11  8 15  1 43  0.0000000  0  7G12G10G25G05G04G29G02
 -31177299.96547 -23968164.33246  20758051.5234                   20758049.3014
 -35157815.48447 -26154698.94544  21749421.8834                   21749420.0354
  -7912741.46147  -5964402.21545  22183781.8524                   22183781.7624
 -27269157.30547 -21184366.98846  20470266.1954                   20470263.8284
 -48645729.80546 -37420241.58643  23600183.3134                   23600181.7114
  13897259.65646  11260538.01242  24218531.7034                   24218531.2664
 -46307929.92247 -36036468.59445  20950275.3524                   20950270.6954
 11  8 15  1 43 30.0000000  0  7G12G10G25G05G04G29G02
 -31259410.69547 -24032146.72746  20742426.0234                   20742424.2074
 -35176398.25047 -26169179.03944  21745886.0704                   21745883.8484
  -8059569.02347  -6078813.30545  22155841.4614                   22155841.6414
 -27392596.21947 -21280553.12146  20446776.3054                   20446774.2074
 -48652872.23046 -37425807.13343  23598824.4384                   23598823.0234
  13726643.02046  11127589.98043  24186064.5864                   24186063.7304
 -46370096.73447 -36084910.27745  20938445.5474                   20938441.0514
 11  8 15  1 44  0.0000000  0  7G12G10G25G05G04G29G02
 -31340926.17647 -24095665.29746  20726914.6564                   20726911.8014
 -35194506.43447 -26183289.32444  21742440.4694                   21742438.3984
  -8205898.35547  -6192836.16045  22127995.7344                   22127995.5824
 -27515461.92247 -21376292.60246  20423395.9454                   20423393.4304
 -48660034.50846 -37431388.17243  23597461.1954                   23597460.6524
  13555980.90246  10994606.52743  24153588.6414                   24153588.1994
 -46432100.21147 -36133224.68746  20926646.2114                   20926642.6804
 11  8 15  1 44 30.0000000  0  7G12G10G25G05G04G29G02
 -31421846.80947 -24158720.33646  20711515.7894                   20711513.0044
 -35212142.98447 -26197032.10544  21739083.2504                   21739082.0274
  -8351727.77047  -6306469.47345  22100245.0394                   22100245.3444
 -27637753.96547 -21471585.07446  20400124.6954                   20400122.1254
 -48667217.77046 -37436985.52743  23596094.6414                   23596093.6254
  13385273.46546  10861587.80543  24121103.5944                   24121104.8834
 -46493941.66847 -36181412.84845  20914878.2424                   20914873.8324
 11  8 15  1 45  0.0000000  0  7G12G10G25G05G04G29G02
 -31502172.02047 -24221311.41446  20696230.0314                   20696227.7734
 -35229309.66047 -26210408.75844  21735817.1094                   21735815.0394
  -8497054.52347  -6419711.10245  22072590.4534                   22072590.8594
 -27759470.66847 -21566429.23046  20376962.5314                   20376960.5704
 -48674422.14546 -37442599.36343  23594723.5004                   23594722.5824
  13214522.34046  10728535.03943  24088611.5634                   24088611.7584
 -46555621.59047 -36229475.13345  20903141.3914                   20903137.3794
 11  8 15  1 45 30.0000000  0  7G12G10G25G05G04G29G02
 -31581903.82047 -24283440.10246  20681057.9384                   20681055.2304
 -35246010.78547 -26223422.64544  21732639.0004                   21732636.9494
  -8641878.53547  -6532560.98845  22045031.5394                   22045031.5164
 -27880613.11347 -21660825.91846  20353909.6954                   20353907.4574
 -48681650.09846 -37448231.57443  23593347.8834                   23593347.2234
  13043726.39846  10595447.28543  24056109.7814                   24056109.7154
 -46617142.20747 -36277413.29345  20891434.0634                   20891429.9064
 11  8 15  1 46  0.0000000  0  7G12G10G25G05G04G29G02
 -31661040.03947 -24345104.68045  20665998.5864                   20665996.4024
 -35262246.58247 -26236073.92244  21729549.8914                   21729547.5944
  -8786195.31247  -6645015.62545  22017569.3914                   22017569.7934
 -28001178.04747 -21754772.58646  20330967.2034                   20330964.8204
 -48688899.47346 -37453880.50443  23591967.7974                   23591968.2114
  12872889.12546  10462327.35243  24023600.5314                   24023599.7734
 -46678501.97747 -36325226.11745  20879757.3054                   20879753.6994
 11  8 15  1 46 30.0000000  0  7G12G10G25G05G04G29G02
 -31739581.37547 -24406305.72346  20651053.1334                   20651050.8364
 -35278019.94547 -26248364.88744  21726548.0704                   21726546.2974
  -8930003.25847  -6757073.77045  21990203.3834                   21990203.4304
 -28121164.89847 -21848268.80946  20308134.0554                   20308131.6214
 -48696171.65246 -37459547.15643  23590583.8134                   23590583.8914
  12702010.83646  10329175.47343  23991083.7734                   23991082.9614
 -46739702.37547 -36372914.73845  20868111.6724                   20868107.5394
 11  8 15  1 47  0.0000000  0  7G12G10G25G05G04G29G02
 -31817529.69147 -24467044.68045  20636219.6724                   20636217.6294
 -35293335.39847 -26260299.01644  21723633.8444                   21723631.5904
  -9073301.98047  -6868735.09845  21962934.0394                   21962934.7504
 -28240574.25047 -21941315.03946  20285411.3834                   20285409.1844
 -48703468.81646 -37465233.28542  23589195.5314                   23589195.4534
  12531091.08646  10195991.27343  23958558.6174                   23958558.6294
 -46800745.84447 -36420481.08645  20856495.5784                   20856491.1524
 11  8 15  1 47 30.0000000  0  7G12G10G25G05G04G29G02
 -30319462.19147 -23299719.36345  20921292.9534                   20921289.9184
 -33732774.00847 -25044277.17244  22020598.2194                   22020596.8874
  -7640664.28147  -5752394.02745  22235556.0394                   22235556.1174
 -26783980.79347 -20806307.12146  20562591.6484                   20562589.8284
 -47135370.64546 -36243338.58243  23887594.5004                   23887595.4144
  13935557.09846  11290380.40243  24225819.2344                   24225820.3284
 -45286210.33247 -35240323.56245  21144701.9774                   21144697.6334
 11  8 15  1 48  0.0000000  0  7G12G10G25G05G04G29G02
 -30396225.49647 -23359534.93746  20906684.5944                   20906682.6684
 -33747180.52347 -25055503.03544  22017857.1954                   22017855.3594
  -7782938.79347  -5863257.29345  22208482.2814                   22208482.6644
 -26902232.77747 -20898451.50846  20540089.0164                   20540087.0944
 -47142719.48446 -36249064.95743  23886196.7194                   23886196.5274
  13764557.26646  11157133.77343  24193278.8054                   24193279.4804
 -45346941.99647 -35287646.95345  21133145.2344                   21133141.5434
 11  8 15  1 48 30.0000000  0  7G12G10G25G05G04G29G02
 -30472396.68747 -23418889.10546  20892189.8754                   20892187.7934
 -33761136.45747 -25066377.81244  22015201.2734                   22015199.3554
  -7924698.17647  -5973719.15645  22181506.2274                   22181507.1054
 -27019904.90647 -20990144.04346  20517697.2664                   20517694.5124
 -47150095.08246 -36254812.25842  23884793.2894                   23884792.0354
  13593518.87146  11023857.16443  24160730.9694                   24160731.4654
 -45407519.28147 -35334850.03145  21121618.0004                   21121613.8714
 11  8 15  1 49  0.0000000  0  7G12G10G25G05G04G29G02
 -30547976.47347 -23477782.46146  20877807.8914                   20877805.1954
 -33774645.21547 -25076904.14144  22012631.0944                   22012628.8674
  -8065941.19947  -6083778.65645  22154628.8524                   22154628.8014
 -27136996.97747 -21081384.59846  20495414.8444                   20495412.8874
 -47157498.63346 -36260581.21543  23883385.2974                   23883383.6804
  13422442.20746  10890550.75843  24128177.2734                   24128176.5044
 -45467943.07447 -35381933.50445  21110120.2584                   21110115.2934
 11  8 15  1 49 30.0000000  0  7G12G10G25G05G04G29G02
 -30622966.81647 -23536216.50045  20863537.1884                   20863534.6884
 -33787710.48847 -25087084.87544  22010144.0474                   22010142.7034
  -8206667.33647  -6193435.38345  22127849.2584                   22127849.7624
 -27253509.72747 -21172173.72746  20473243.6094                   20473241.2544
 -47164932.00446 -36266373.50443  23881970.1484                   23881969.1564
  13251326.66846  10757214.00443  24095614.4384                   24095614.2154
 -45528215.87947 -35428899.34845  21098649.8134                   21098645.3834
 11  8 15  1 50  0.0000000  0  7G12G10G25G05G04G29G02
 -30697367.13747 -23594190.78945  20849379.5084                   20849377.0824
 -33800333.69147 -25096921.13744  22007742.6094                   22007740.7544
  -8346873.31247  -6302686.79345  22101168.8984                   22101169.4844
 -27369440.89847 -21262509.67246  20451182.3134                   20451180.1954
 -47172394.40246 -36272188.32442  23880549.1804                   23880549.3244
  13080174.92646  10623849.08643  24063045.5234                   24063044.5084
 -45588337.10547 -35475747.06645  21087209.1174                   21087204.9614
 11  8 15  1 50 30.0000000  0  7G12G10G25G05G04G29G02
 -30771177.64847 -23651705.49246  20835334.3674                   20835331.8554
 -33812517.09447 -25106414.73044  22005424.2584                   22005422.1254
  -8486556.97747  -6411531.20345  22074587.8754                   22074588.8284
 -27484789.70747 -21352391.84046  20429232.1334                   20429229.9734
 -47179885.96146 -36278025.89542  23879123.7114                   23879123.1294
  12908988.09846  10490456.79743  24030469.7344                   24030469.2504
 -45648307.10947 -35522476.94145  21075797.3984                   21075793.1804
 11  8 15  1 51  0.0000000  0  7G12G10G25G05G04G29G02
 -30844400.14847 -23708761.98846  20821400.0634                   20821397.8674
 -33824264.96147 -25115568.92244  22003188.6094                   22003186.7774
  -8625718.15247  -6519968.48445  22048106.3444                   22048107.1024
 -27599557.19147 -21441821.02746  20407392.9694                   20407390.6214
 -47187408.89546 -36283887.92243  23877692.8134                   23877691.7934
  12737765.46546  10357036.57843  23997886.8134                   23997887.2734
 -45708128.20347 -35569090.78145  21064414.0634                   21064409.6884
 11  8 15  1 51 30.0000000  0  7G12G10G25G05G04G29G02
 -30917031.44547 -23765357.81246  20807579.0234                   20807576.5744
 -33835576.45747 -25124383.07444  22001036.2664                   22001034.2234
  -8764351.64847  -6627994.59445  22021725.4844                   22021726.0274
 -27713739.20747 -21530794.00446  20385665.0704                   20385662.4144
 -47194960.48046 -36289772.29743  23876255.5704                   23876255.4304
  12566511.73846  10223592.17643  23965298.9384                   23965298.3284
 -45767797.94547 -35615586.68745  21053058.0474                   21053054.6134
 11  8 15  1 52  0.0000000  0  7G12G10G25G05G04G29G02
 -30989075.92247 -23821496.37945  20793869.3674                   20793866.9264
 -33846458.54347 -25132862.62944  21998964.5944                   21998963.4494
  -8902459.73447  -6735611.28145  21995444.2194                   21995444.7854
 -27827339.11347 -21619313.38346  20364047.2894                   20364045.3714
 -47202545.25846 -36295682.49643  23874812.5704                   23874812.2504
  12395223.71146  10090120.99243  23932703.1804                   23932703.0084
 -45827321.57047 -35661968.73045  21041732.1254                   21041728.0084
 11  8 15  1 52 30.0000000  0  7G12G10G25G05G04G29G02
 -31060531.73847 -23877176.24645  20780271.8594                   20780269.1604
 -33856910.46947 -25141006.97744  21996976.2504                   21996974.8634
  -9040037.22747  -6842814.53945  21969264.5474                   21969264.8164
 -27940353.09047 -21707376.20346  20342541.0164                   20342539.0164
 -47210160.30146 -36301616.26642  23873363.1954                   23873362.8404
  12223906.16046   9956626.82843  23900102.6884                   23900102.2154
 -45886695.88747 -35708234.42645  21030433.6804                   21030429.7274
 11  8 15  1 53  0.0000000  0  7G12G10G25G05G04G29G02
 -31131401.05547 -23932399.10546  20766786.2584                   20766783.3874
 -33866936.93047 -25148819.82444  21995068.4064                   21995066.6374
  -9177084.49647  -6949604.61345  21943184.6724                   21943185.7074
 -28052782.68747 -21794983.66046  20321146.5394                   20321144.2194
 -47217808.49645 -36307575.90242  23871906.5164                   23871907.3674
  12052557.36346   9823108.31343  23867495.6484                   23867496.1294
 -45945923.34847 -35754385.69145  21019162.7034                   21019158.7894
 11  8 15  1 53 30.0000000  0  7G12G10G25G05G04G29G02
 -31201685.19147 -23987165.97346  20753411.0164                   20753409.2704
 -33876540.91047 -25156303.44944  21993240.7194                   21993238.8984
  -9313600.34447  -7055980.60245  21917207.0704                   21917207.6414
 -28164627.98847 -21882135.81646  20299863.4534                   20299861.1214
 -47225490.52345 -36313561.84842  23870445.7034                   23870445.1764
  11881177.85946   9689565.85943  23834883.5944                   23834883.7234
 -46005005.95347 -35800424.08245  21007920.2814                   21007915.4224
 11  8 15  1 54  0.0000000  0  7G12G10G25G05G04G29G02
 -31271384.33247 -24041477.00845  20740147.7814                   20740145.6174
 -33885725.24246 -25163460.07444  21991493.1094                   21991490.9224
  -9449582.88347  -7161941.01645  21891330.3204                   21891331.1564
 -28275888.16047 -21968832.03946  20278691.2344                   20278688.9614
 -47233206.88746 -36319574.62943  23868977.7894                   23868976.9454
  11709769.39146   9556000.86343  23802265.5554                   23802265.6954
 -46063944.24647 -35846350.01645  20996704.5314                   20996700.0434
 11  8 15  1 54 30.0000000  0  7G12G10G25G05G04G29G02
 -31340499.39547 -24095332.90645  20726995.9304                   20726993.1844
 -33894492.30147 -25170291.55944  21989824.5944                   21989822.9384
  -9585030.37547  -7267484.50445  21865555.6094                   21865556.2464
 -28386562.93447 -22055072.09446  20257630.4534                   20257628.1884
 -47240958.02346 -36325614.46943  23867502.9534                   23867501.7344
  11538332.89546   9422413.98443  23769643.1024                   23769642.2114
 -46122738.71947 -35892163.88745  20985516.5234                   20985512.1644
 11  8 15  1 55  0.0000000  0  7G12G10G25G05G04G29G02
 -31409031.59847 -24148734.63745  20713954.5004                   20713951.6804
 -33902845.48847 -25176800.55544  21988235.1414                   21988233.5554
  -9719941.58647  -7372610.10945  21839883.1414                   21839883.1844
 -28496652.21147 -22140855.93046  20236681.0084                   20236678.7894
 -47248744.89146 -36331682.07443  23866020.6884                   23866020.4694
  11366868.93446   9288805.75443  23737013.7194                   23737013.8834
 -46181390.66447 -35937866.69945  20974354.9844                   20974350.7504
 11  8 15  1 55 30.0000000  0  7G12G10G25G05G04G29G02
 -31476981.32847 -24201682.48846  20701023.9384                   20701021.6054
 -33910787.62947 -25182989.24244  21986724.6644                   21986722.0124
  -9854314.71947  -7477316.42245  21814312.9844                   21814313.1054
 -28606155.32447 -22226183.00846  20215843.5634                   20215841.2424
 -47256567.72346 -36337777.78143  23864532.1334                   23864531.4574
  11195378.44946   9155176.81343  23704380.4454                   23704380.2894
 -46239900.63347 -35983458.88345  20963220.8914                   20963216.2114
 11  8 15  1 56  0.0000000  0  7G12G10G25G05G04G29G02
 -31544349.71147 -24254177.34845  20688204.2504                   20688202.5704
 -33918321.49647 -25188859.79744  21985290.7274                   21985288.1724
  -9988148.55947  -7581602.52045  21788844.7974                   21788845.1684
 -28715072.34447 -22311053.39546  20195117.3914                   20195115.1564
 -47264427.39146 -36343902.12542  23863036.2734                   23863035.8484
  11023862.38346   9021527.95743  23671741.6644                   23671741.4534
 -46298269.69147 -36028941.27045  20952113.3134                   20952109.6644
 11  8 15  1 56 30.0000000  0  7G12G10G25G05G04G29G02
 -30035715.56647 -23078618.28545  20975287.8444                   20975285.2584
 -32350029.58246 -23966814.18444  22283726.1254                   22283724.5124
  -8546017.35947  -6457863.91845  22063272.9924                   22063273.3244
 -27247979.55547 -21167864.19546  20474295.6174                   20474293.5594
 -45696904.60546 -35122455.74242  24161326.2814                   24161325.2114
  12427747.35946  10115464.32443  23938891.6174                   23938891.8914
 -44781077.04347 -34846713.22345  21240825.5234                   21240821.7114
 11  8 15  1 57  0.0000000  0  7G12G10G25G05G04G29G02
 -30101924.31247 -23130209.51645  20962689.3204                   20962686.0314
 -32356755.32446 -23972055.02744  22282446.7274                   22282444.6844
  -8678768.29747  -6561306.18745  22038011.1414                   22038011.8714
 -27355723.88747 -21251820.79346  20453792.8754                   20453790.1724
 -45704839.90646 -35128639.00842  24159816.1174                   24159815.3094
  12256182.63346   9981777.55543  23906244.6094                   23906244.9844
 -44839166.88347 -34891978.03945  21229771.9924                   21229767.5554
 11  8 15  1 57 30.0000000  0  7G12G10G25G05G04G29G02
 -30167557.34047 -23181352.14145  20950199.1804                   20950196.4884
 -32363084.30146 -23976986.69144  22281242.4064                   22281240.5434
  -8810978.42647  -6664327.04745  22012852.6334                   22012853.4024
 -27462884.27047 -21335322.36346  20433400.4144                   20433398.5944
 -45712816.82446 -35134854.75442  24158298.4064                   24158296.7504
  12084592.75846   9848071.17243  23873593.1484                   23873591.9884
 -44897121.59847 -34937137.56245  21218742.8984                   21218739.1334
 11  8 15  1 58  0.0000000  0  7G12G10G25G05G04G29G02
 -30232614.12947 -23232045.74645  20937819.5784                   20937816.8754
 -32369018.11747 -23981610.46544  22280112.7894                   22280111.0164
  -8942644.93747  -6766924.32045  21987797.6804                   21987798.3754
 -27569459.28147 -21418367.80546  20413120.0164                   20413117.7114
 -45720834.27346 -35141102.06642  24156772.1174                   24156771.5354
  11912979.83246   9714346.85543  23840934.9384                   23840935.0744
 -44954940.17647 -34982191.00045  21207740.2974                   21207736.7664
 11  8 15  1 58 30.0000000  0  7G12G10G25G05G04G29G02
 -30297095.09047 -23282290.64145  20925549.2114                   20925546.6294
 -32374558.58646 -23985927.73844  22279058.5634                   22279056.9964
  -9073765.48847  -6869096.15645  21962845.9774                   21962846.7384
 -27675447.99647 -21500956.39546  20392951.2814                   20392948.5664
 -45728892.07845 -35147380.87942  24155238.0474                   24155238.7034
  11741345.82446   9580606.12143  23808273.8444                   23808273.6294
 -45012622.60947 -35027138.35545  21196764.1024                   21196760.2704
 11  8 15  1 59  0.0000000  0  7G12G10G25G05G04G29G02
 -30361002.31247 -23332088.48045  20913388.0704                   20913385.3554
 -32379709.46947 -23989941.42244  22278078.3364                   22278076.7814
  -9204339.66047  -6970842.25445  21937998.6334                   21937999.2384
 -27780850.97747 -21583088.55546  20372893.5314                   20372890.8794
 -45736991.78145 -35153692.25842  24153697.2344                   24153698.0634
  11569690.78146   9446848.97343  23775609.0394                   23775608.9024
 -45070170.47347 -35071980.84445  21185813.2734                   21185808.4884
 11  8 15  1 59 30.0000000  0  7G12G10G25G05G04G29G02
 -30424334.91047 -23381438.55945  20901336.2584                   20901333.9384
 -32384472.62946 -23993652.98044  22277171.4304                   22277170.0704
  -9334364.74647  -7072160.48845  21913255.7344                   21913256.0744
 -27885666.79347 -21664763.19546  20352947.8834                   20352945.5704
 -45745132.29745 -35160035.45342  24152147.9064                   24152148.9454
  11398016.97746   9313077.24643  23742940.3524                   23742940.7544
 -45127583.27747 -35116718.10545  21174887.5314                   21174883.5634
 11  8 15  2  0  0.0000000  0  7G12G10G25G05G04G29G02
 -30487091.53547 -23430339.82845  20889394.1094                   20889391.2384
 -32388847.90646 -23997062.29744  22276339.6414                   22276337.8594
  -9463836.77047  -7173047.75445  21888618.0234                   21888618.0004
 -27989893.04747 -21745978.43446  20333113.9064                   20333111.6334
 -45753311.46145 -35166408.78142  24150591.4454                   24150591.9534
  11226328.10946   9179293.73043  23710269.7504                   23710269.1334
 -45184859.41447 -35161348.85545  21163988.2894                   21163984.4184
 11  8 15  2  0 30.0000000  0  7G12G10G25G05G04G29G02
 -30549278.16447 -23478796.93445  20877560.1334                   20877557.9654
 -32392842.98046 -24000175.37944  22275579.3594                   22275577.4184
  -9592758.92247  -7273506.56245  21864084.3134                   21864085.2304
 -28093534.07447 -21826737.65246  20313392.0004                   20313389.5664
 -45761534.39545 -35172816.25442  24149026.6884                   24149027.2854
  11054620.75846   9045495.81343  23677594.3984                   23677594.4024
 -45242004.43047 -35205877.44145  21153113.9614                   21153110.4304
 11  8 15  2  1  0.0000000  0  7G12G10G25G05G04G29G02
 -30610894.21947 -23526809.44545  20865835.2894                   20865832.2584
 -32396459.33246 -24002993.30144  22274891.5004                   22274889.0824
  -9721128.62547  -7373534.88345  21839656.8754                   21839657.6604
 -28196588.34847 -21907039.65246  20293781.4454                   20293778.8594
 -45769800.60945 -35179257.43042  24147453.0554                   24147454.6174
  10882897.44546   8911685.46143  23644917.1414                   23644915.9414
 -45299017.38347 -35250303.12945  21142264.5634                   21142260.5704
 11  8 15  2  1 30.0000000  0  7G12G10G25G05G04G29G02
 -30671938.83247 -23574376.68745  20854219.0004                   20854216.2154
 -32399697.48446 -24005516.55544  22274274.6024                   22274273.0744
  -9848942.28547  -7473129.91845  21815334.9144                   21815335.2384
 -28299053.72347 -21986882.78146  20274282.8984                   20274280.3444
 -45778108.09045 -35185730.78542  24145873.7584                   24145873.5004
  10711161.24246   8777865.08643  23612237.0944                   23612236.0044
 -45355896.73447 -35294624.69145  21131440.9064                   21131436.7664
 11  8 15  2  2  0.0000000  0  7G12G10G25G05G04G29G02
 -30732414.44947 -23621500.55145  20842710.3444                   20842707.9964
 -32402561.54346 -24007748.30544  22273730.0394                   22273727.9574
  -9976199.84047  -7572291.63745  21791117.8444                   21791118.6254
 -28400931.72347 -22066268.20346  20254895.8594                   20254893.8404
 -45786458.44145 -35192237.49642  24144282.8134                   24144284.3754
  10539412.28146   8644034.75443  23579554.1954                   23579553.5044
 -45412644.53547 -35338843.76645  21120642.5554                   21120638.4844
 11  8 15  2  2 30.0000000  0  7G12G10G25G05G04G29G02
 -30792323.80547 -23668183.16045  20831309.6414                   20831307.3634
 -32405056.37946 -24009692.34044  22273255.5164                   22273254.0744
 -10102902.00847  -7671020.58245  21767007.7734                   21767008.3984
 -28502224.06647 -22145197.27746  20235620.7274                   20235617.9924
 -45794854.13345 -35198779.57042  24142686.6024                   24142686.2704
  10367649.64546   8510193.76643  23546867.9384                   23546867.6954
 -45469263.57847 -35382962.49645  21109868.1484                   21109864.1604
 11  8 15  2  3  0.0000000  0  7G12G10G25G05G04G29G02
 -30851669.07447 -23714426.23445  20820017.2894                   20820014.7814
 -32407185.78146 -24011351.61744  22272850.1484                   22272848.3554
 -10229048.29747  -7769316.35545  21743003.1174                   21743003.6954
 -28602931.59047 -22223670.65246  20216456.8054                   20216454.0354
 -45803296.33246 -35205357.86343  24141079.7344                   24141079.3834
  10195873.73046   8376342.45743  23514180.9924                   23514180.4454
 -45525755.01247 -35426981.78945  21099118.0704                   21099113.6484
 11  8 15  2  3 30.0000000  0  7G12G10G25G05G04G29G02
 -30910450.46947 -23760229.91445  20808831.3444                   20808828.5084
 -32408951.75046 -24012727.69944  22272514.2344                   22272511.9454
 -10354636.56247  -7867177.32845  21719103.8524                   21719104.9304
 -28703053.36747 -22301687.60246  20197404.0704                   20197401.6174
 -45811784.68046 -35211972.11743  24139465.0474                   24139464.0124
  10024086.73846   8242482.48843  23481490.7274                   23481489.7504
 -45582118.70747 -35470901.55945  21088392.6564                   21088388.2854
 11  8 15  2  4  0.0000000  0  7G12G10G25G05G04G29G02
 -30968667.44547 -23805593.79346  20797753.3524                   20797750.3134
 -32410355.25846 -24013821.35244  22272247.0784                   22272245.1414
 -10479663.79347  -7964601.14145  21695312.3054                   21695312.9104
 -28802588.01647 -22379247.04346  20178463.0944                   20178460.7304
 -45820317.59446 -35218621.11742  24137840.6724                   24137840.4494
   9852291.51246   8108616.13343  23448798.7894                   23448798.8404
 -45638353.69947 -35514721.03545  21077691.1644                   21077687.0124
 11  8 15  2  4 30.0000000  0  7G12G10G25G05G04G29G02
 -31026322.48847 -23850519.80945  20786781.9774                   20786779.1764
 -32411400.19946 -24014635.62143  22272047.9534                   22272046.1054
 -10604129.77047  -8061587.58245  21671627.2664                   21671627.3524
 -28901536.53147 -22456349.75846  20159633.8984                   20159631.6994
 -45828896.43745 -35225305.91842  24136208.2814                   24136208.0904
   9680488.32846   7974743.56343  23416105.1884                   23416105.3674
 -45694461.87547 -35558441.68745  21067014.5314                   21067010.2424
 11  8 15  2  5  0.0000000  0  7G12G10G25G05G04G29G02
 -31083415.85547 -23895008.14545  20775917.1954                   20775914.2384
 -32412088.44946 -24015171.91443  22271917.1564                   22271915.1214
 -10728032.50447  -8158135.14145  21648049.3524                   21648049.8244
 -28999898.03547 -22532995.05946  20140916.6484                   20140913.6884
 -45837520.97345 -35232026.36342  24134566.3524                   24134566.8094
   9508679.33646   7840866.48843  23383411.9304                   23383411.5394
 -45750443.18447 -35602063.48445  21056361.5704                   21056357.7464
 11  8 15  2  5 30.0000000  0  7G12G10G25G05G04G29G02
 -29564527.94147 -22711459.11745  21064952.1024                   21064949.2034
 -30837003.96546 -22787833.36344  22571645.6174                   22571643.5234
  -9275947.73047  -7026640.52045  21924371.8754                   21924372.7894
 -27522250.53547 -21381581.39146  20422103.7034                   20422101.0044
 -44270771.99646 -34011183.00442  24432709.3914   24432709.2504   10912290.10546
   8934589.18444                  23650510.3364                   23650509.7704
 -44230876.78147 -34417985.77745  21345525.1094                   21345521.2664
 11  8 15  2  6  0.0000000  0  8G12G10G25G26G05G04G29G02
 -29620502.93447 -22755075.99645  21054300.8524                   21054298.1524
 -30836989.08246 -22787821.79744  22571647.9454                   22571647.2034
  -9398722.06647  -7122308.82045  21901008.2974
  21901009.4184                   23377401.04715                  24940062.008
 -27619440.18447 -21457313.56246  20403608.6954                   20403606.1844
 -44279490.27346 -34017976.43742  24431050.4614   24431050.5514   10740471.07446
   8800704.29344                  23617813.2274                   23617814.3204
 -44286606.57847 -34461411.58245  21334920.1484                   21334916.3954
 11  8 15  2  6 30.0000000  0  8G12G10G25G26G05G04G29G02
 -29675923.49247 -22798260.85245  21043754.0554                   21043752.1954
 -30836629.87146 -22787541.89544  22571716.8524                   22571714.9144
  -9520933.35247  -7217538.38745  21877752.6484
  21877752.6884                   23195895.480 5                  24905521.242
 -27716047.07047 -21532591.63346  20385224.9694                   20385222.5004
 -44288258.641 5                  24429382.250                    10568646.14846
   8666814.78144                  23585116.8674                   23585116.0004
 -44342214.89147 -34504742.72745  21324338.2034                   21324334.3134
 11  8 15  2  7  0.0000000  0  8G12G10G25G26G05G04G29G02
 -29730793.77747 -22841016.92645  21033312.4384                   21033310.4224
 -30835931.34846 -22786997.61743  22571849.5784                   22571847.6524
  -9642582.66447  -7312330.04745  21854603.8134
  21854603.3404   23014264.38746  18368606.02353  24870957.2814   24870956.9304
 -27812073.79347 -21607417.62546  20366951.9064                   20366949.1254
 -44297079.957 5                  24427702.359                    10396814.50446
   8532920.02743                  23552417.9844                   23552416.9964
 -44397704.31247 -34547981.23845  21313779.5474                   21313775.0274
 11  8 15  2  7 30.0000000  0  8G12G10G25G26G05G04G29G02
 -29785116.37147 -22883346.21945  21022975.2664                   21022973.1024
 -30834897.90646 -22786192.34844  22572046.6174                   22572044.4534
  -9763670.50447  -7406684.18445  21831560.7194
  21831561.3054   22832508.94546  18226978.49243  24836370.8984   24836370.9774
 -27907521.77047 -21681792.64146  20348788.4454                   20348786.1484
 -44305955.852 5                  24426014.617                    10224976.07446
   8399019.99243                  23519717.9384                   23519718.0234
 -44453077.16447 -34591128.90645  21303242.0554                   21303238.1214
 11  8 15  2  8  0.0000000  0  8G12G10G25G26G05G04G29G02
 -29838888.69147 -22925246.72745  21012742.6804                   21012740.0124
 -30833528.47746 -22785125.27743  22572306.8284                   22572306.0354
  -9884191.74247  -7500596.83245  21808626.6564
  21808627.2234   22650636.21946  18085259.58643  24801761.9694   24801762.4804
 -28002387.42647 -21755713.91846  20330736.0944                   20330733.4924
 -44314882.574 5                  24424314.766                    10053135.69546
   8265118.43843                  23487018.7194                   23487017.8834
 -44508329.91047 -34634182.99645  21292727.8754                   21292723.7934
 11  8 15  2  8 30.0000000  0  8G12G10G25G26G05G04G29G02
 -29892110.78147 -22966718.48445  21002614.9454                   21002612.1334
 -30831824.51246 -22783797.53143  22572631.1414                   22572629.8914
 -10004144.14847  -7594066.22745  21785800.1724
  21785800.6724   22468650.49645  17943452.57043  24767130.9384   24767130.8954
 -28096669.79347 -21829180.66846  20312794.6884                   20312792.0514
 -44323859.328 5                  24422607.781
   9881296.05946   8131217.43043  23454318.6414                   23454317.5984
 -44563461.73447 -34677142.85545  21282236.1174                   21282232.1294
 11  8 15  2  9  0.0000000  0  8G12G10G25G26G05G04G29G02
 -29944784.14147 -23007762.66045  20992591.5864                   20992589.4734
 -30829789.22746 -22782211.58643  22573018.2814                   22573016.6914
 -10123526.75847  -7687091.62145  21763082.5314
  21763083.4494   22286554.38346  17801559.54743  24732479.7034   24732479.1804
 -28190369.32447 -21902193.26246  20294964.8364                   20294961.9064
 -44332886.293 6                  24420889.539
   9709458.37946   7997317.99243  23421618.0944                   23421618.6914
 -44618473.70347 -34720009.32845  21271768.1414                   21271764.1994
 11  8 15  2  9 30.0000000  0  8G12G10G25G26G05G04G29G02
 -29996910.01247 -23048380.23045  20982672.5314                   20982670.3634
 -30827424.76246 -22780369.13743  22573468.5234                   22573466.6054
 -10242338.15247  -7779671.91045  21740473.7424
  21740474.2464   22104351.43845  17659583.36342  24697806.6254   24697807.4104
 -28283485.80547 -21974751.53546  20277244.8134                   20277242.0864
 -44341963.46546 -34025293.00052  24419162.3284                   24419161.2894
   9537624.51246   7863421.52743  23388919.2274                   23388919.2344
 -44673365.67247 -34762782.29745  21261322.7894                   21261318.7344
 11  8 15  2 10  0.0000000  0  8G12G10G25G26G05G04G29G02
 -30048493.52047 -23088575.18045  20972856.5474                   20972853.5784
 -30824738.46546 -22778275.91843  22573979.1174                   22573977.7274
 -10360581.66847  -7871809.69945  21717972.9694
  21717972.8164   21922040.13346  17517522.68042  24663114.0864   24663114.6954
 -28376024.02047 -22046859.21546  20259635.7194                   20259632.9534
 -44351095.24246 -34032408.69142  24417425.3204                   24417424.5354
   9365791.62146   7729525.84044  23356220.8134                   23356220.2894
 -44728142.66847 -34805465.67645  21250898.7034                   21250894.4614
 11  8 15  2 10 30.0000000  0  8G12G10G25G26G05G04G29G02
 -30099532.29747 -23128345.65645  20963143.9694                   20963141.5314
 -30821728.59046 -22775930.60243  22574552.1724                   22574550.2154
 -10478251.93047  -7963500.78945  21695580.9844
  21695581.2194   21739627.91046  17375383.38742  24628403.1804   24628402.4844
 -28467980.11347 -22118513.28946  20242137.0164                   20242134.6374
 -44360277.79346 -34039563.96942  24415677.7424                   24415677.0984
   9193965.30146   7595635.23844  23323523.6334                   23323522.5394
 -44782800.60247 -34848056.28545  21240497.4384                   21240493.4804
 11  8 15  2 11  0.0000000  0  8G12G10G25G26G05G04G29G02
 -30150026.82847 -23167692.04345  20953535.1644                   20953533.1374
 -30818397.73446 -22773335.10943  22575185.8444                   22575184.3364
 -10595347.27047  -8054743.87545  21673297.9224
  21673298.4884   21557118.42645  17233168.30142  24593672.2734   24593672.1764
 -28559353.35247 -22189713.19946  20224749.2894                   20224746.4964
 -44369510.08246 -34046758.02343  24413921.0314                   24413920.0164
   9022147.51646   7461751.28544  23290827.4534                   23290826.6914
 -44837339.45347 -34890554.10545  21230119.0784                   21230115.2034
 11  8 15  2 11 30.0000000  0  8G12G10G25G26G05G04G29G02
 -30199979.37547 -23206616.10945  20944029.5314                   20944027.0274
 -30814748.53946 -22770491.61743  22575880.7344                   22575878.8444
 -10711867.07447  -8145538.50445  21651125.6174
  21651125.3834   21374514.37545  17090879.53142  24558924.2734   24558924.5784
 -28650144.61347 -22260459.61746  20207471.8364                   20207469.5044
 -44378793.08646 -34053991.59042  24412153.9774                   24412153.6374
   8850339.55146   7327874.97344  23258133.8674                   23258132.1884
 -44891760.01647 -34932959.73845  21219763.4774                   21219759.6914
 11  8 15  2 12  0.0000000  0  8G12G10G25G26G05G04G29G02
 -30249391.20347 -23245118.82845  20934626.8054                   20934624.0164
 -30810783.90646 -22767402.28943  22576635.4454                   22576633.6454
 -10827810.22747  -8235883.79745  21629062.9694
  21629062.6294   21191819.17645  16948519.73842  24524159.2664   24524159.0314
 -28740354.21147 -22330752.78946  20190305.6564                   20190303.3794
 -44388126.68446 -34061264.57442  24410379.0084                   24410377.6844
   8678543.32046   7194007.84044  23225441.6024                   23225441.3014
 -44946062.65647 -34975273.48845  21209430.0004                   21209426.3164
 11  8 15  2 12 30.0000000  0  8G12G10G25G26G05G04G29G02
 -30298266.05147 -23283203.12145  20925326.2034                   20925323.8284
 -30806509.14146 -22764071.32043  22577448.2504                   22577447.4574
 -10943178.40247  -8325781.05945  21607108.1644
  21607108.5984   21009033.11745  16806089.13342  24489374.9144   24489376.4884
 -28829984.91847 -22400594.86346  20173249.4144                   20173246.7624
 -44397513.60546 -34068579.10242  24408591.5704                   24408591.4574
   8506757.22346   7060148.62144  23192751.7584                   23192751.8054
 -45000250.15647 -35017497.50845  21199118.0944                   21199114.6564
 11  8 15  2 13  0.0000000  0  8G12G10G25G26G05G04G29G02
 -30346602.61747 -23320867.98845  20916128.4304                   20916125.7624
 -30801923.92246 -22760498.45343  22578321.2814                   22578319.9024
 -11057967.79747  -8415227.31645  21585264.0004
  21585264.6294   20826162.12545  16663592.29742  24454574.4614   24454577.3054
 -28919034.52347 -22469984.15246  20156303.5084                   20156301.1484
 -44406951.21546 -34075933.14142  24406795.7194                   24406795.6724
   8334985.64846   6926300.68444  23160064.1334                   23160064.4024
 -45054320.44547 -35059630.19545  21188829.0944                   21188825.4844
 11  8 15  2 13 30.0000000  0  8G12G10G25G26G05G04G29G02
 -30394403.98447 -23358115.81245  20907031.5864                   20907028.7894
 -30797032.54346 -22756686.98843  22579252.0314                   22579250.3364
 -11172178.95347  -8504223.00445  21563531.0474
  21563531.6604   20643207.95346  16521030.57442  24419760.7114   24419762.2344
 -29007504.85247 -22538922.04746  20139468.4304                   20139465.7704
 -44416440.85546 -34083327.73442  24404989.9064                   24404990.4454
   8163228.76646   6792464.21144  23127380.4144                   23127379.9844
 -45108275.20347 -35101672.86745  21178561.8524                   21178557.8794
 11  8 15  2 14  0.0000000  0  8G12G10G25G26G05G04G29G02
 -30441671.39847 -23394947.56645  20898037.0394                   20898034.4454
 -30791837.81646 -22752639.15643  22580240.3914                   22580238.6174
 -11285810.97747  -8592767.41045  21541907.6414
  21541908.1214   20460173.66446  16378406.46942  24384931.6094   24384931.6724
 -29095396.25447 -22607408.83646  20122743.5474                   20122740.5824
 -44425982.60246 -34090762.83242  24403174.7114                   24403174.4804
   7991488.27046   6658640.48444  23094699.0864                   23094698.7704
 -45162114.80547 -35143625.80145  21168316.6254                   21168312.4344
 11  8 15  2 14 30.0000000  0  8G12G10G25G26G05G04G29G02
 -28912983.74247 -22203762.37545  21188936.5474                   21188934.5704
 -29210921.20746 -21520756.12543  22881078.7034                   22881077.4144
  -9823437.69147  -7453255.72345  21820187.7344                   21820187.8164
  21852490.41046  17463328.60542  24649879.4614                   24649880.6174
 -27607284.83247 -21447841.46946  20405921.4924                   20405918.9494
 -42860155.05145 -32870637.53542  24701140.8204                   24701142.2934
   9395192.74246   7752436.22344  23361814.9844                   23361815.0044
 -43640416.33647 -33957886.72745  21457886.1644                   21457882.0704
 11  8 15  2 15  0.0000000  0  8G12G10G25G26G05G04G29G02
 -28959188.28947 -22239765.93045  21180144.0554                   21180141.8834
 -29205127.78546 -21516241.78543  22882182.0864                   22882180.5274
  -9935908.55547  -7540895.34445  21798785.1484                   21798785.1134
  21669306.12946  17320587.64142  24615020.7114                   24615021.4224
 -27694019.52747 -21515426.93046  20389416.5314                   20389413.8054
 -42869801.371 5                  24699306.242
   9223489.82446   7618641.78144  23329141.3364                   23329141.1994
 -43694026.61347 -33999660.95745  21447684.3674                   21447680.2814
 11  8 15  2 15 30.0000000  0  8G12G10G25G26G05G04G29G02
 -29004863.99247 -22275357.39145  21171452.6024                   21171449.8914
 -29199039.70346 -21511497.85543  22883339.7424                   22883338.6954
 -10047797.92647  -7628081.83245  21777493.4384                   21777494.1994
  21486051.28946  17177791.79343  24580148.1884                   24580148.4924
 -27780176.86347 -21582562.48846  20373021.1334                   20373018.6844
 -42879500.379 5                  24697460.148
   9051807.60946   7484863.53543  23296470.1174                   23296470.5514
 -43747523.06647 -34041346.51645  21437504.6174                   21437500.5234
 11  8 15  2 16  0.0000000  0  8G12G10G25G26G05G04G29G02
 -29050013.50447 -22310538.83645  21162860.6804                   21162858.6054
 -29192660.69546 -21506527.21943  22884554.1954                   22884551.8914
 -10159106.14547  -7714815.49645  21756312.0314                   21756312.2464
  21302727.93846  17034942.59442  24545263.1094                   24545262.8794
 -27865758.66847 -21649249.58646  20356735.5704                   20356733.2114
 -42889253.043 5                  24695604.648
   8880146.41846   7351101.62144  23263805.2274                   23263804.3244
 -43800906.78547 -34082944.21545  21427346.1954                   21427341.6134
 11  8 15  2 16 30.0000000  0  8G12G10G25G26G05G04G29G02
 -29094639.23447 -22345312.13745  21154368.9064                   21154366.4964
 -29185994.17646 -21501332.53143  22885822.8364                   22885820.7664
 -10269833.08247  -7801096.20745  21735241.2114                   21735241.4734
  21119338.71546  16892041.96943  24510364.2664                   24510364.2504
 -27950765.98047 -21715489.03146  20340559.1484                   20340556.4924
 -42899060.133 5                  24693736.602
   8708507.43846   7217357.00444  23231142.7814                   23231142.7384
 -43854179.35547 -34124455.32045  21417208.3674                   21417203.8204
 11  8 15  2 17  0.0000000  0  8G12G10G25G26G05G04G29G02
 -29138742.07847 -22379677.98045  21145976.6884                   21145973.4414
 -29179041.78146 -21495915.08643  22887145.4144                   22887143.8324
 -10379977.11347  -7886922.69545  21714281.7734                   21714281.9454
  20935887.40246  16749092.97743  24475455.6484                   24475455.5904
 -28035198.61347 -21781280.68046  20324492.1724                   20324489.2704
 -42908920.984 5                  24691861.555
   8536893.32046   7083631.76644  23198486.5004                   23198485.0664
 -43907340.15247 -34165879.30945  21407092.4614                   21407087.8404
 11  8 15  2 17 30.0000000  0  8G12G10G25G26G05G04G29G02
 -29182324.56247 -22413638.35945  21137683.0554                   21137680.5944
 -29171807.05946 -21490277.66443  22888522.3834                   22888521.1604
 -10489538.28947  -7972295.01645  21693432.9694                   21693433.1174
  20752376.61346  16606097.66842  24440533.8594                   24440533.9454
 -28119057.94547 -21846625.59846  20308533.7664                   20308531.5474
 -42918836.293 5                  24689974.313
   8365304.80546   6949926.44944  23165834.1644                   23165832.9924
 -43960389.93047 -34207216.80945  21396997.3444                   21396993.2274
 11  8 15  2 18  0.0000000  0  8G12G10G25G26G05G04G29G02
 -29225389.78547 -22447195.68445  21129487.6414                   21129485.4104
 -29164294.39546 -21484423.67243  22889952.4064                   22889950.9454
 -10598517.60947  -8057213.95345  21672694.9454                   21672695.0944
  20568807.99646  16463057.28543  24405601.7424                   24405602.1024
 -28202346.20347 -21911525.52346  20292684.6414                   20292682.5744
 -42928807.840 6                  24688077.320
   8193741.55146   6816240.83643  23133186.5394                   23133185.1804
 -44013331.05147 -34248469.62145  21386922.7664                   21386918.3484
 11  8 15  2 18 30.0000000  0  7G12G10G25G26G05G29G02
 -29267937.77047 -22480349.94545  21121391.3834                   21121388.4454
 -29156504.87946 -21478353.93043  22891433.8674                   22891433.1254
 -10706912.65247  -8141677.59845  21652067.6954                   21652068.0044
  20385186.41045  16319975.61342  24370658.8444                   24370660.1024
 -28285062.26647 -21975979.57446  20276944.5164                   20276942.1334
   8022207.24646   6682577.78943  23100544.7114                   23100543.2424
 -44066162.13747 -34289636.71545  21376869.0004                   21376864.6914
 11  8 15  2 19  0.0000000  0  7G12G10G25G26G05G29G02
 -29309972.09447 -22513103.95345  21113392.2274                   21113389.8594
 -29148442.96546 -21472071.89543  22892968.3984                   22892966.7894
 -10814724.66047  -8225686.93045  21631551.6644                   21631552.5664
  20201513.27745  16176853.79342  24335706.6564                   24335708.0984
 -28367208.78147 -22039989.82446  20261312.4534                   20261309.6564
   7850701.40246   6548936.95344  23067907.4144                   23067907.7544
 -44118885.23447 -34330719.65245  21366836.3594                   21366832.1294
 11  8 15  2 19 30.0000000  0  7G12G10G25G26G05G29G02
 -29351491.96147 -22545457.10545  21105491.4924                   21105489.4494
 -29140108.87946 -21465577.80543  22894554.2814                   22894552.3984
 -10921950.25447  -8309239.31645  21611147.3134                   21611148.3244
  20017794.83645  16033696.69942  24300747.8594                   24300748.2194
 -28448784.03547 -22103554.94546  20245789.1564                   20245786.4414
   7679228.43846   6415321.74244  23035278.0004                   23035277.3134
 -44171497.76647 -34371716.43045  21356824.7114                   21356820.8594
 11  8 15  2 20  0.0000000  0  7G12G10G25G26G05G29G02
 -29392496.37547 -22577408.59445  21097688.6254                   21097686.8244
 -29131502.65646 -21458871.66043  22896191.5634                   22896190.7194
 -11028586.15247  -8392332.21545  21590854.9534                   21590855.8674
  19834036.78546  15890508.70742  24265778.9304                   24265780.0594
 -28529785.41047 -22166672.88346  20230375.4454                   20230372.5784
   7507792.86746   6281735.66044  23002654.8834                   23002653.9024
 -44223997.47347 -34412625.28545  21346834.8364                   21346830.2114
 11  8 15  2 20 30.0000000  0  7G12G10G25G26G05G29G02
 -29432987.44547 -22608960.07845  21089983.4304                   21089981.3284
 -29122627.18746 -21451955.72743  22897880.6954                   22897879.8054
 -11134632.20747  -8474965.48845  21570675.6414                   21570675.6294
  19650242.17246  15747292.21142  24230804.0554                   24230805.1644
 -28610214.39847 -22229344.80546  20215070.2974                   20215067.8324
   7336395.80946   6148179.60244  22970038.6724                   22970037.8754
 -44276385.07047 -34453446.78545  21336865.4924                   21336861.3714
 11  8 15  2 21  0.0000000  0  7G12G10G25G26G05G29G02
 -29472968.18047 -22640113.88745  21082375.1954                   21082372.6484
 -29113487.05546 -21444833.57043  22899620.1724                   22899619.0784
 -11240089.21148  -8557139.77045  21550607.7814                   21550607.5004
  19466412.86346  15604048.70342  24195822.5474                   24195823.0394
 -28690073.05547 -22291572.31246  20199873.2734                   20199871.1604
   7165037.85246   6014654.01644  22937429.9064                   22937429.2234
 -44328662.36747 -34494182.33645  21326917.1564                   21326913.4804
 11  8 15  2 21 30.0000000  0  7G12G10G25G26G05G29G02
 -29512440.21547 -22670871.31645  21074864.0234                   21074861.3324
 -29104084.34646 -21437506.79343  22901410.1174                   22901408.4344
 -11344956.30948  -8638854.37545  21530652.3054                   21530652.5864
  19282552.49646  15460781.02342  24160834.9384                   24160835.2894
 -28769362.20747 -22353356.04746  20184785.7504                   20184782.4534
   6993720.80146   5881160.28144  22904829.5944                   22904828.1844
 -44380828.91447 -34534831.57845  21316990.3984                   21316986.2344
 11  8 15  2 22  0.0000000  0  7G12G10G25G26G05G29G02
 -29551408.22347 -22701235.99645  21067448.6484                   21067446.0704
 -29094424.38746 -21429979.56643  22903247.8754                   22903246.3874
 -11449235.54347  -8720110.90245  21510808.4774                   21510808.8634
  19098661.73446  15317489.67242  24125841.6484                   24125842.2504
 -28848084.52047 -22414698.09846  20169804.8984                   20169802.5514
   6822443.78946   5747697.75044  22872236.8444                   22872236.0434
 -44432887.80147 -34575396.93045  21307084.1174                   21307079.3714
 11  8 15  2 22 30.0000000  0  7G12G10G25G26G05G29G02
 -29589873.05947 -22731208.59445  21060128.7814                   21060126.4964
 -29084508.98446 -21422253.28943  22905134.9144                   22905133.3794
 -11552925.66447  -8800908.39545  21491077.0084                   21491076.7664
  18914744.94946  15174178.02042  24090843.7814                   24090843.5634
 -28926240.01247 -22475598.46546  20154932.3204                   20154929.8554
   6651209.39146   5614268.42244  22839652.3674                   22839650.6684
 -44484838.27747 -34615877.82045  21297197.7734                   21297193.5314
 11  8 15  2 23  0.0000000  0  7G12G10G25G26G05G29G02
 -28052415.37947 -21533189.62545  21352697.5864                   21352695.1414
 -27498920.88346 -20186730.11743  23206861.5474                   23206860.8324
 -10080602.71547  -7653643.75845  21771250.5784   21771250.5704   20306231.62146
  16258453.42643                  24355633.8754                   24355634.6254
 -27428407.24247 -21308456.02746  20439960.0314                   20439957.9454
   8055445.22746   6708478.24644  23106868.9844                   23106868.2154
 -42961259.13747 -33428673.27345  21587125.3594                   21587120.8524
 11  8 15  2 23 30.0000000  0  7G12G10G25G26G05G29G02
 -28089881.80947 -21562384.25445  21345567.9144                   21345565.3134
 -27488504.48846 -20178613.46943  23208844.6094                   23208843.1484
 -10183115.27347  -7733523.65245  21751742.6644   21751743.1174   20122270.66446
  16115107.29342                  24320627.9534                   24320628.0704
 -27505434.46947 -21368477.23046  20425302.6024                   20425300.1374
   7884299.30546   6575117.89544  23074300.9064                   23074300.3674
 -43012996.01247 -33468987.71145  21577280.5084                   21577275.6844
 11  8 15  2 24  0.0000000  0  7G12G10G25G26G05G29G02
 -28126853.28547 -21591193.19545  21338532.6174                   21338530.0864
 -27477843.54746 -20170306.26643  23210873.3444                   23210872.1804
 -10285040.00047  -7812945.51245  21732347.5234   21732347.4104   19938291.11346
  15971746.68442                  24285616.8754                   24285617.3444
 -27581900.20747 -21428060.90246  20410752.1024                   20410749.0434
   7713198.62546   6441792.76644  23041740.6334                   23041739.8834
 -43064627.52047 -33509220.04345  21567455.4534                   21567451.3524
 11  8 15  2 24 30.0000000  0  7G12G10G25G26G05G29G02
 -28163332.04747 -21619618.19545  21331591.0394                   21331588.2344
 -27466940.67246 -20161810.53143  23212947.9064                   23212946.4924
 -10386376.88748  -7891909.30545  21713063.7344   21713064.2424   19754296.19546
  15828374.09843                  24250604.7274                   24250604.1884
 -27657805.94947 -21487208.21946  20396306.8524                   20396304.6914
   7542144.84446   6308504.15644  23009190.8594                   23009189.4884
 -43116154.72747 -33549371.10945  21557649.8834                   21557645.3164
 11  8 15  2 25  0.0000000  0  7G12G10G25G26G05G29G02
 -28199321.50847 -21647661.94145  21324742.2344                   21324739.9804
 -27455799.92246 -20153129.44143  23215067.5004                   23215066.7114
 -10487126.77347  -7970415.69945  21693891.7034   21693891.4414   19570287.67246
  15684990.91043                  24215588.5554                   24215588.1024
 -27733153.68447 -21545920.72346  20381969.4844                   20381966.6604
   7371138.35946   6175252.42644  22976649.6094                   22976648.7854
 -43167579.05147 -33589442.00045  21547864.3674                   21547859.7074
 11  8 15  2 25 30.0000000  0  7G12G10G25G26G05G29G02
 -28234822.80147 -21675325.27745  21317986.2894                   21317984.4844
 -27444423.08646 -20144264.40643  23217232.8594                   23217231.4694
 -10587288.48447  -8048463.77345  21674831.5084   21674831.7114   19386270.23446
  15541600.73442                  24180572.5394                   24180570.7854
 -27807943.57447 -21604198.54746  20367737.4144                   20367734.4534
   7200181.95346   6042039.69944  22944116.9064                   22944115.7624
 -43218899.57847 -33629432.01645  21538098.2814                   21538094.0274
 11  8 15  2 26  0.0000000  0  7G12G10G25G26G05G29G02
 -28269838.42647 -21702610.18045  21311323.0784                   21311320.8284
 -27432813.71146 -20135218.16443  23219441.8204                   23219440.7154
 -10686862.51247  -8126053.91045  21655882.9064   21655883.5394   19202246.26646
  15398205.53942                  24145552.7734                   24145552.2934
 -27882177.64147 -21662043.25846  20353611.1334                   20353608.1914
   7029276.30546   5908866.53944  22911594.7114                   22911594.6024
 -43270117.52047 -33669342.07045  21528351.4924                   21528347.3014
 11  8 15  2 26 30.0000000  0  7G12G10G25G26G05G29G02
 -28304369.49647 -21729517.50045  21304752.7274                   21304749.9264
 -27420973.31646 -20125991.93743  23221695.5164                   23221694.6604
 -10785847.39847  -8203184.97745  21637046.9534   21637047.1564   19018220.58646
  15254808.93442                  24110534.2894                   24110533.4534
 -27955855.07847 -21719454.23446  20339590.5554                   20339587.9614
   6858424.65246   5775735.49244  22879082.7894                   22879082.4534
 -43321231.61347 -33709171.21545  21518624.9534                   21518621.1334
 11  8 15  2 27  0.0000000  0  7G12G10G25G26G05G29G02
 -28338417.61347 -21756048.49645  21298273.2814                   21298270.3634
 -27408904.60546 -20116587.77043  23223991.2664                   23223990.3794
 -10884242.92247  -8279856.80145  21618323.0084   21618323.1564   18834196.46946
  15111413.63743                  24075515.0084                   24075514.7704
 -28028977.27747 -21776432.55146  20325675.7584                   20325672.6884
   6687628.63347   5642647.75044  22846581.1644                   22846579.8984
 -43372242.09847 -33748919.62945  21508917.8754                   21508914.2074
 11  8 15  2 27 30.0000000  0  7G12G10G25G26G05G29G02
 -28371987.34047 -21782206.71945  21291884.6954                   21291882.1884
 -27396612.53146 -20107009.59043  23226331.2734                   23226329.9614
 -10982051.17247  -8356071.01245  21599710.6254   21599710.8984   18650175.04746
  14968020.37542                  24040497.2974                   24040496.0824
 -28101547.48447 -21832980.74646  20311865.6254                   20311863.2774
   6516887.79346   5509602.98044  22814090.8054                   22814089.5594
 -43423151.76247 -33788589.49245  21499230.0944                   21499225.8594
 11  8 15  2 28  0.0000000  0  7G12G10G25G26G05G29G02
 -28405080.78147 -21807993.81245  21285587.4454                   21285585.1884
 -27384099.36346 -20097259.09843  23228712.6174                   23228711.1024
 -11079271.62547  -8431827.19145  21581210.1724   21581210.2894   18466160.00846
  14824632.11342                  24005479.8914                   24005479.5394
 -28173566.30947 -21889099.29746  20298161.1414                   20298158.7504
   6346204.47346   5376603.06344  22781610.3834                   22781609.3634
 -43473960.33647 -33828180.59045  21489561.7504                   21489556.9804
 11  8 15  2 28 30.0000000  0  7G12G10G25G26G05G29G02
 -28437701.85947 -21833412.83645  21279379.5394                   21279377.7814
 -27371369.94946 -20087340.08643  23231134.7664                   23231133.0434
 -11175906.30947  -8507126.92645  21562821.0784   21562821.3284   18282152.87546
  14681249.97742                  23970464.5634                   23970464.1724
 -28245037.46947 -21944791.09046  20284560.4454                   20284558.1644
   6175578.23046   5243647.62544  22749141.6094                   22749140.3284
 -43524670.02747 -33867694.63345  21479912.3444                   21479907.5274
 11  8 15  2 29  0.0000000  0  7G12G10G25G26G05G29G02
 -28469850.44147 -21858463.68445  21273262.3674                   21273260.0704
 -27358424.82046 -20077253.00443  23233597.1724                   23233596.0744
 -11271952.80147  -8581968.34845  21544544.5234   21544544.3324   18098159.35946
  14537878.44942                  23935452.5084                   23935450.5634
 -28315959.84447 -22000055.25846  20271064.7034                   20271061.7074
   6005013.28946   5110739.95744  22716683.5554                   22716682.7114
 -43575278.88747 -33907130.10545  21470281.0864                   21470276.8714
 11  8 15  2 29 30.0000000  0  7G12G10G25G26G05G29G02
 -28501527.31647 -21883146.96145  21267234.1724                   21267232.1254
 -27345265.17646 -20066998.73843  23236102.7504                   23236100.5044
 -11367409.87547  -8656350.46945  21526379.5004   21526379.4384   17914184.05546
  14394521.10243                  23900442.6564                   23900441.9384
 -28386332.87147 -22054891.36346  20257672.9224                   20257670.4614
   5834512.43446   4977882.22744  22684238.3754                   22684237.3634
 -43625785.87947 -33946486.19545  21460669.9454                   21460666.1334
 11  8 15  2 30  0.0000000  0  7G12G10G25G26G05G29G02
 -28532736.84047 -21907466.07445  21261295.3914                   21261292.5164
 -27331895.73446 -20056581.03943  23238645.8754                   23238644.6094
 -11462279.38747  -8730274.74645  21508326.1564   21508326.4774   17730228.38746
  14251179.06343                  23865437.2584                   23865435.8134
 -28456159.64847 -22109301.82046  20244385.4774                   20244382.6844
   5664075.97347   4845074.67644  22651805.8914                   22651804.5554
 -43676193.02747 -33985764.50045  21451077.5634                   21451073.7504
 11  8 15  2 30 30.0000000  0  7G12G10G25G26G05G29G02
 -28563481.01247 -21931422.57445  21255445.3444                   21255442.7894
 -27318319.09846 -20046001.87543  23241229.6254                   23241227.8984
 -11556561.37147  -8803741.20745  21490384.8914   21490385.5004   17546295.86346
  14107855.12543                  23830436.0314                   23830435.1914
 -28525441.67247 -22163287.78546  20231201.6024                   20231198.8874
   5493705.41847   4712318.46544  22619386.0864                   22619383.8364
 -43726500.37147 -34024965.01645  21441504.9144                   21441500.6954
 11  8 15  2 31  0.0000000  0  7G12G10G25G26G05G29G02
 -28593759.52047 -21955016.21145  21249683.2734                   21249680.3874
 -27304535.29346 -20035261.28543  23243852.4454                   23243851.6214
 -11650252.97347  -8876747.63345  21472556.3284   21472556.1914   17362392.90646
  13964554.23443                  23795439.2274                   23795440.0744
 -28594177.09047 -22216847.84046  20218122.0164                   20218119.0314
   5323405.36347   4579617.19944  22586977.8054                   22586976.6764
 -43776705.33247 -34064085.75845  21431950.7584                   21431947.0004
 11  8 15  2 31 30.0000000  0  7G12G10G25G26G05G29G02
 -28623578.44947 -21978251.73845  21244008.5864                   21244006.3324
 -27290551.10946 -20024364.55143  23246514.1024                   23246512.4574
 -11743358.19947  -8949297.14145  21454838.7194   21454838.8164   17178518.83646
  13821275.84043                  23760449.2504                   23760449.2424
 -28662371.28547 -22269986.15646  20205144.5864                   20205141.9104
   5153173.82047   4446969.32444  22554583.9064                   22554582.8054
 -43826812.19147 -34103130.07445  21422416.0554                   21422411.7194
 11  8 15  2 32  0.0000000  0  7G12G10G25G26G05G29G02
 -27077518.74647 -20773529.89145  21538213.8594                   21538211.9694
 -25700949.32846 -18785713.80943  23549005.2344                   23549003.4844
 -10260453.93747  -7793787.30145  21737025.6884   21737026.2194   18570103.44546
  14905627.53943                  24025259.2734                   24025258.7464
 -27154603.07847 -21095101.81646  20492063.8674                   20492060.5594
   6558438.43847   5541980.81344  22821996.8834                   22821995.8164
 -42301399.05147 -32914496.43745  21712692.5234                   21712688.4384
 11  8 15  2 32 30.0000000  0  7G12G10G25G26G05G29G02
 -27106423.13347 -20796052.78945  21532713.9924                   21532711.6374
 -25686570.24246 -18774509.35243  23551741.0554                   23551739.5124
 -10352384.97347  -7865421.84845  21719532.2814   21719532.3634   18386299.62946
  14762403.92643                  23990283.1564                   23990281.8634
 -27221717.10247 -21147398.44546  20479292.2894                   20479289.1644
   6388351.46547   5409445.61745  22789630.0314                   22789629.2344
 -42351308.25447 -32953386.71945  21703195.2734                   21703190.8244
 11  8 15  2 33  0.0000000  0  7G12G10G25G26G05G29G02
 -27134873.73047 -20818222.09445  21527299.4144                   21527297.3594
 -25671997.27346 -18763153.81643  23554513.8204                   23554512.5204
 -10443728.67247  -7936598.72745  21702149.7344   21702150.4104   18202536.56346
  14619212.00043                  23955313.4774                   23955312.6884
 -27288292.50447 -21199275.36746  20466623.1174                   20466620.5234
   6218339.96547   5276969.21144  22757278.4614                   22757276.6484
 -42401118.50447 -32992199.91045  21693716.3834                   21693712.1644
 11  8 15  2 33 30.0000000  0  7G12G10G25G26G05G29G02
 -27162872.00047 -20840038.92245  21521972.0004                   21521969.4804
 -25657232.56646 -18751648.84843  23557324.1724                   23557322.2424
 -10534484.77047  -8007317.73845  21684879.8364   21684879.8094   18018817.93446
  14476054.71143                  23920352.8984                   23920352.0204
 -27354330.16447 -21250733.26246  20454057.1334                   20454054.2304
   6048406.04347   5144553.25844  22724940.7664                   22724939.0824
 -42450829.34047 -33030935.62545  21684257.1094                   21684252.4264
 11  8 15  2 34  0.0000000  0  7G12G10G25G26G05G29G02
 -27190421.29747 -20861505.90645  21516729.2344                   21516727.3554
 -25642280.22346 -18739997.67643  23560169.6024                   23560168.2074
 -10624654.46547  -8077579.80945  21667721.2344   21667720.8554   17835146.47746
  14332934.14843                  23885401.1254                   23885400.5434
 -27419832.57047 -21301774.08646  20441592.0634                   20441589.2114
   5878550.62147   5012198.46944  22692618.5164                   22692617.0944
 -42500442.06247 -33069594.87945  21674815.8834                   21674811.6804
 11  8 15  2 34 30.0000000  0  7G12G10G25G26G05G29G02
 -27217523.28147 -20882624.34445  21511571.6174                   21511570.0634
 -25627141.90246 -18728201.59043  23563050.3364                   23563048.7704
 -10714237.37147  -8147384.64145  21650673.7274   21650674.0594   17651526.20746
  14189853.52343                  23850459.5474                   23850459.1684
 -27484800.32447 -21352398.29746  20429228.7274                   20429226.3634
   5708776.26247   4879906.84044  22660310.9614                   22660309.9654
 -42549956.00847 -33108177.16845  21665393.6724                   21665389.2894
 11  8 15  2 35  0.0000000  0  7G12G10G25G26G05G29G02
 -27244182.81647 -20903398.01245  21506498.8984                   21506496.7774
 -25611822.62946 -18716264.50842  23565964.6804                   23565963.9344
 -10803236.19947  -8216734.34445  21633737.4694   21633737.4774   17467958.22746
  14046813.60243                  23815527.4144                   23815527.1604
 -27549237.37147 -21402608.96946  20416967.1564                   20416964.3914
   5539082.42647   4747677.96144  22628018.2974                   22628018.5274
 -42599373.91847 -33146684.63745  21655990.2274                   21655985.0124
 11  8 15  2 35 30.0000000  0  7G12G10G25G26G05G29G02
 -27270401.02747 -20923827.77345  21501509.9454                   21501507.7974
 -25596323.89546 -18704187.58242  23568914.5864                   23568912.9534
 -10891649.84847  -8285628.06245  21616913.2814   21616913.4924   17284447.35946
  13903818.16043                  23780606.2114                   23780605.0824
 -27613143.63747 -21452406.04346  20404806.5944                   20404803.1334
   5369472.54347   4615514.50844  22595743.2734                   22595742.5394
 -42648694.63747 -33185116.36745  21646604.4534                   21646599.8914
 11  8 15  2 36  0.0000000  0  7G12G10G25G26G05G29G02
 -27296180.39847 -20943915.59845  21496604.2274                   21496601.5234
 -25580648.52046 -18691972.98842  23571897.5234                   23571896.7304
 -10979478.83247  -8354066.21545  21600199.3524   21600200.2624   17100997.12946
  13760870.00042                  23745696.7584                   23745696.0394
 -27676521.03147 -21501791.01246  20392745.3674                   20392742.7464
   5199948.31647   4483417.78944  22563484.5394                   22563483.1134
 -42697918.42247 -33223472.55145  21637237.1174                   21637232.8794
 11  8 15  2 36 30.0000000  0  7G12G10G25G26G05G29G02
 -27321523.68447 -20963663.60545  21491781.5164                   21491778.6954
 -25564799.45746 -18679623.07842  23574913.9304                   23574912.4104
 -11066723.95347  -8422049.38745  21583597.1564   21583597.9844   16917610.48446
  13617971.41843                  23710800.6804                   23710799.4064
 -27739371.16447 -21550765.13346  20380785.9694                   20380782.9304
   5030511.14547   4351388.89544  22531241.4304                   22531239.4884
 -42747045.83247 -33261753.66445  21627888.7344                   21627884.5004
 11  8 15  2 37  0.0000000  0  8G12G10G25G26G05G15G29G02
 -27346433.07847 -20983073.52345  21487041.3754                   21487039.1804
 -25548779.59446 -18667140.03542  23577961.8984                   23577961.1914
 -11153385.48447  -8489577.83645  21567106.7274   21567106.7774   16734291.14146
  13475125.27042                  23675915.0864                   23675914.5044
 -27801695.74647 -21599329.73046  20368925.8674                   20368922.7814
  28087453.04356  22038222.23053  24596332.8284                   24596332.7234
   4861163.01247   4219429.38744  22499015.4924                   22499014.0164
 -42796076.85947 -33299959.66045  21618558.7894                   21618553.7504
 11  8 15  2 37 30.0000000  0  8G12G10G25G26G05G15G29G02
 -27370913.75447 -21002149.36745  21482382.5634                   21482379.7544
 -25532593.53946 -18654527.53743  23581042.3054                   23581041.3364
 -11239465.85547  -8556653.43045  21550725.7974   21550726.1994   16551040.37546
  13332332.54743                  23641043.9144                   23641043.3324
 -27863498.13747 -21647487.43746  20357164.9844                   20357162.2734
  27905656.13346  21896562.43043  24561738.9534                   24561737.7974
   4691903.72347   4087539.07844  22466806.4064                   22466804.9104
 -42845013.62147 -33338092.21145  21609246.2974                   21609241.9104
 11  8 15  2 38  0.0000000  0  8G12G10G25G26G05G15G29G02
 -27394969.92647 -21020894.43745  21477804.9614                   21477802.6334
 -25516245.82046 -18641789.04343  23584152.9844                   23584151.9224
 -11324967.39147  -8623277.98445  21534455.2194   21534455.7894   16367859.96946
  13189594.61343                  23606186.0944                   23606184.9734
 -27924781.70347 -21695240.85546  20345503.3054                   20345500.3404
  27723735.35946  21754806.07843  24527119.7274                   24527119.7584
   4522733.18447   3955717.94944  22434614.5634                   22434612.7544
 -42893858.20747 -33376152.92645  21599952.0864                   21599947.3054
 11  8 15  2 38 30.0000000  0  8G12G10G25G26G05G15G29G02
 -27418604.37147 -21039310.88345  21473307.4774                   21473304.8244
 -25499739.52346 -18628926.96543  23587293.5784                   23587293.1254
 -11409891.19147  -8689452.35245  21518294.8284   21518295.2304   16184752.89546
  13046913.87543                  23571341.2734                   23571340.7274
 -27985548.68047 -21742591.73846  20333939.4454                   20333936.6884
  27541692.69546  21612954.71543  24492479.1484                   24492477.9144
   4353652.89847   3823967.14144  22402439.5704                   22402437.9654
 -42942611.28947 -33414142.33645  21590674.2114                   21590669.6954
 11  8 15  2 39  0.0000000  0  8G12G10G25G26G05G15G29G02
 -27441818.78147 -21057400.03145  21468889.9694                   21468887.7774
 -25483076.84046 -18615943.03543  23590464.4844                   23590463.7464
 -11494237.07447  -8755176.41445  21502245.1414   21502244.8244   16001723.27046
  12904293.46143                  23536511.9384                   23536511.8284
 -28045800.26647 -21789541.02046  20322474.0554                   20322471.2154
  27359531.30946  21471010.87943  24457814.9304                   24457814.0274
   4184665.52747   3692288.72744  22370282.0084                   22370280.3444
 -42991272.25447 -33452059.96945  21581414.0704                   21581410.2704
 11  8 15  2 39 30.0000000  0  8G12G10G25G26G05G15G29G02
 -27464614.88747 -21075163.23445  21464551.8914                   21464549.6604
 -25466259.30146 -18602838.44543  23593664.7734                   23593664.3674
 -11578004.54347  -8820449.76245  21486303.9774   21486304.1174   15818775.58646
  12761736.87943                  23501698.1954                   23501697.6644
 -28105536.84447 -21836088.98846  20311106.8134                   20311103.4344
  27177254.82046  21328977.36343  24423127.1884                   24423127.2624
   4015774.00747   3560685.00444  22338142.6644                   22338141.4734
 -43039840.37147 -33489905.26245  21572172.0004                   21572167.8164
 11  8 15  2 40  0.0000000  0  8G12G10G25G26G05G15G29G02
 -27486993.57047 -21092601.17245  21460293.8444                   21460290.9064
 -25449287.84446 -18589613.94542  23596894.8134                   23596893.7704
 -11661192.60247  -8885271.62145  21470473.9924   21470474.4264   15635915.10546
  12619248.23843                  23466901.6024                   23466900.5984
 -28164758.41847 -21882235.66846  20299837.3284                   20299834.1804
  26994867.40246  21186857.41843  24388420.7274                   24388421.0474
   3846981.94947   3429158.78144  22306022.7344                   22306021.3324
 -43088314.19547 -33527677.05545  21562947.6254                   21562943.2154
 11  8 15  2 40 30.0000000  0  8G12G10G25G26G05G15G29G02
 -27508958.60547 -21109716.78545  21456113.6954                   21456111.4884
 -25432166.42246 -18576272.52742  23600153.1334                   23600152.2974
 -11743803.05947  -8949643.41045  21454754.0704   21454753.5354   15453144.15646
  12476829.36743                  23432121.2504                   23432120.1294
 -28223467.93747 -21927983.34446  20288664.8524                   20288662.2234
  26812370.65245  21044652.28142  24353692.8754                   24353692.4454
   3678289.91447   3297710.49244  22273922.0944                   22273920.2154
 -43136694.93747 -33565376.33245  21553741.2274                   21553736.7774
 11  8 15  2 41  0.0000000  0  8G12G10G25G26G05G15G29G02
 -25955092.34047 -19898911.90245  21751804.8984                   21751801.9494
 -23839478.58646 -17335217.07442  23903231.4064                   23903230.0664
 -10250413.95347  -7785963.59045  21738936.2584   21738936.2074   16845892.07446
  13562087.53543                  23697151.5944                   23697151.3914
 -26706245.25047 -20745731.88746  20577382.6414                   20577380.2424
  28205192.79745  22129968.37142  24618736.5864                   24618737.4384
   5085125.29747   4393945.91044  22541633.6484                   22541632.2624
 -41609561.21547 -32375401.99645  21844345.4224                   21844340.6994
 11  8 15  2 41 30.0000000  0  8G12G10G25G26G05G15G29G02
 -25976235.82047 -19915387.34045  21747781.2734                   21747778.7234
 -23822062.95346 -17321646.39842  23906545.3204                   23906544.0164
 -10331868.71547  -7849434.84445  21723435.8054   21723436.0634   16663313.14146
  13419818.27343                  23662408.4454                   23662407.8164
 -26763933.08647 -20790683.45346  20566405.5944                   20566402.6414
  28022487.18045  21987600.53542  24583969.5084                   24583969.5554
   4916641.65647   4262660.01244  22509572.7974                   22509571.1914
 -41657753.58247 -32412954.48845  21835174.3134                   21835170.3054
 11  8 15  2 42  0.0000000  0  8G12G10G25G26G05G15G29G02
 -25996971.84847 -19931545.28145  21743835.0004                   21743832.7584
 -23804503.73046 -17307963.87542  23909887.4694                   23909886.0084
 -10412746.28547  -7912456.32445  21708045.3594   21708045.8164   16480835.86746
  13277628.24643                  23627684.4384                   23627683.5234
 -26821112.46547 -20835238.80946  20555524.4614                   20555521.6954
  27839681.35545  21845154.59042  24549182.2424                   24549183.2194
   4748265.45747   4131457.84044  22477531.1724                   22477529.4494
 -41705851.65647 -32450433.50445  21826021.6804                   21826017.3714
 11  8 15  2 42 30.0000000  0  8G12G10G25G26G05G15G29G02
 -26017303.56247 -19947388.18045  21739966.1884                   21739963.5904
 -23786804.04346 -17294171.88343  23913255.2974                   23913253.7034
 -10493047.68747  -7975028.85545  21692764.0634   21692764.8054   16298463.62146
  13135520.07443                  23592980.7584                   23592979.3054
 -26877785.23847 -20879399.40646  20544739.4694                   20544736.7894
  27656777.51646  21702632.25842  24514377.2274                   24514377.3484
   4579998.33646   4000340.66044  22445511.1724                   22445509.3164
 -41753855.66847 -32487839.22745  21816886.6094                   21816882.0944
 11  8 15  2 43  0.0000000  0  8G12G10G25G26G05G15G29G02
 -26037233.26647 -19962917.82045  21736173.2664                   21736171.4534
 -23768966.07046 -17280272.12143  23916649.6644                   23916648.2734
 -10572773.42247  -8037152.81645  21677593.1254   21677593.5164   16116200.06646
  12993496.57043                  23558295.6954                   23558295.1604
 -26933953.01247 -20923166.50846  20534051.4614                   20534048.7114
  27473778.48046  21560035.71542  24479554.6804                   24479553.6054
   4411842.60247   3869310.28144  22413512.0234                   22413510.1374
 -41801765.57447 -32525171.60545  21807769.5474                   21807765.0824
 11  8 15  2 43 30.0000000  0  8G12G10G25G26G05G15G29G02
 -26056765.68447 -19978137.90245  21732456.7894                   21732454.9304
 -23750994.28146 -17266268.14143  23920068.8204                   23920067.9964
 -10651926.31647  -8098830.40245  21662531.0634   21662531.0314   15934046.61746
  12851558.88343                  23523633.2274                   23523632.2114
 -26989619.63347 -20966543.09846  20523458.6484                   20523456.1484
  27290684.95346  21417365.51642  24444712.7664                   24444711.8134
   4243798.07447   3738366.55544  22381534.3984                   22381532.6054
 -41849583.91047 -32562432.63745  21798670.4224                   21798665.9614
 11  8 15  2 44  0.0000000  0  8G12G10G25G26G05G15G29G02
 -26075899.93047 -19993047.70345  21728815.5234                   21728813.5084
 -23732887.80945 -17252159.18743  23923513.5474                   23923513.8204
 -10730503.77347  -8160059.60545  21647578.1954   21647578.1414   15752010.32046
  12709712.47743                  23488992.8444                   23488991.7114
 -27044783.49247 -21009527.91846  20512960.9924                   20512958.6094
  27107503.10246  21274626.49243  24409854.4774                   24409852.6804
   4075870.30947   3607513.79744  22349578.6724                   22349577.0904
 -41897306.91047 -32599619.38345  21789588.9534                   21789584.5044
 11  8 15  2 44 30.0000000  0  8G12G10G25G26G05G15G29G02
 -26094639.45347 -20007649.94545  21725250.0474                   21725247.5704
 -23714650.21545 -17237948.14542  23926983.5784                   23926984.7814
 -10808507.29347  -8220841.56245  21632734.3594   21632734.5084   15570094.16146
  12567959.64743                  23454375.2344                   23454374.2664
 -27099446.91847 -21052122.79746  20502559.1644                   20502556.9024
  26924234.64146  21131820.02043  24374979.3834                   24374977.5984
   3908060.55947   3476753.02745  22317644.8914                   22317643.8794
 -41944935.39847 -32636732.47745  21780525.1724                   21780520.8984
 11  8 15  2 45  0.0000000  0  8G12G10G25G26G05G15G29G02
 -26112988.73847 -20021948.09445  21721757.5004                   21721755.5274
 -23696285.77745 -17223638.22342  23930480.0084                   23930479.4384
 -10885939.16047  -8281178.08645  21617999.4224   21618000.0274   15388300.29746
  12426302.11343                  23419781.4384                   23419779.9224
 -27153613.41847 -21094330.46546  20492251.5394                   20492248.3204
  26740880.63346  20988946.85943  24340087.9454                   24340086.5704
   3740369.36747   3346084.63744  22285734.6334                   22285733.1884
 -41992470.82847 -32673773.06245  21771479.3984                   21771475.6484
 11  8 15  2 45 30.0000000  0  8G12G10G25G26G05G15G29G02
 -26130949.53947 -20035943.53545  21718341.2344                   21718337.5944
 -23677796.14145 -17209230.87142  23933997.5704                   23933998.4384
 -10962799.50847  -8341069.25845  21603373.4454   21603373.7734   15206633.18046
  12284743.37543                  23385210.8364                   23385210.0124
 -27207283.96547 -21136151.66046  20482038.6024                   20482035.5124
  26557444.78946  20846009.93843  24305180.7114                   24305179.7854
   3572799.24647   3215510.59044  22253847.0474                   22253845.7154
 -42039912.63747 -32710740.67645  21762451.6174                   21762447.6174
 11  8 15  2 46  0.0000000  0  8G12G10G25G26G05G15G29G02
 -26148523.81247 -20049637.77345  21714996.0944                   21714993.3204
 -23659183.51646 -17194727.53942  23937539.9844                   23937539.9344
 -11039088.96947  -8400515.59045  21588855.9534   21588856.7664   15025096.21146
  12143286.04343                  23350666.3984                   23350663.9224
 -27260460.26247 -21177587.73446  20471919.1174                   20471916.7034
  26373929.67246  20703011.27743  24270259.4614                   24270257.9734
   3405352.66047   3085032.77745  22221982.7274                   22221981.2664
 -42087260.51647 -32747635.11745  21753441.7194                   21753437.3444
 11  8 15  2 46 30.0000000  0  8G12G10G25G26G05G15G29G02
 -26165714.71947 -20063033.28945  21711724.6954                   21711722.3204
 -23640450.25846 -17180130.21942  23941105.4224                   23941104.7934
 -11114808.31247  -8459517.67245  21574447.1954   21574447.3484   14843693.35246
  12001933.20343                  23316146.2424                   23316144.8954
 -27313143.91047 -21218639.93046  20461893.8674                   20461891.1134
  26190338.37946  20559953.26243  24235322.2734                   24235321.0554
   3238032.02347   2954653.12944  22190142.5394                   22190141.0824
 -42134514.52347 -32784456.40245  21744449.7504                   21744445.0434
 11  8 15  2 47  0.0000000  0  8G12G10G25G26G05G15G29G02
 -26182526.20347 -20076133.15245  21708525.4844                   21708523.3014
 -23621600.25846 -17165441.93742  23944692.8754                   23944691.6134
 -11189959.70347  -8518077.18045  21560146.1414   21560146.8754   14662427.02046
  11860686.75443                  23281652.0634                   23281650.1054
 -27365337.85947 -21259310.53946  20451961.9774                   20451959.1844
  26006672.44946  20416837.09043  24200372.1804                   24200371.4774
   3070837.91447   2824372.05944  22158326.6174                   22158325.1724
 -42181675.63347 -32821205.31245  21735475.4384                   21735471.1564
 11  8 15  2 47 30.0000000  0  8G12G10G25G26G05G15G29G02
 -26198960.22347 -20088938.87945  21705398.3284                   21705395.8244
 -23602635.69946 -17150664.31242  23948300.5704                   23948300.8794
 -11264543.84047  -8576194.68045  21545953.3364   21545953.5204   14481301.16046
  11719549.75843                  23247185.3984                   23247183.4064
 -27417043.97747 -21299601.01246  20442121.9224                   20442119.6724
  25822934.44946  20273664.76642  24165407.1884                   24165407.4304
   2903772.51647   2694191.31344  22126535.9924                   22126534.2504
 -42228743.72747 -32857881.74245  21726518.1094                   21726514.2544
 11  8 15  2 48  0.0000000  0  8G12G10G25G26G05G15G29G02
 -26215021.64547 -20101454.27045  21702341.8754                   21702339.2464
 -23583561.05146 -17135800.95742  23951931.2114                   23951930.6294
 -11338563.35547  -8633872.20745  21531868.1174   21531868.0274   14300317.91846
  11578523.90243                  23212745.2734                   23212743.8834
 -27468265.77047 -21339514.09846  20432375.3524                   20432372.9024
  25639125.71146  20130437.33643  24130430.1484                   24130429.2504
   2736836.56647   2564111.41845  22094768.5394                   22094767.2424
 -42275720.56647 -32894487.05145  21717578.7664                   21717574.6374
 11  8 15  2 48 30.0000000  0  8G12G10G25G26G05G15G29G02
 -26230710.45747 -20113679.31645  21699356.7974                   21699353.8364
 -23564375.77346 -17120851.27342  23955581.7974                   23955581.4144
 -11412016.65247  -8691108.51645  21517890.6254   21517890.4144   14119483.04346
  11437613.67243                  23178333.1484                   23178332.2974
 -27519002.37947 -21379049.10246  20422720.5784                   20422717.8014
  25455251.48846  19987158.81643  24095440.5084                   24095439.6134
   2570034.48047   2434135.82444  22063027.2584                   22063025.0274
 -42322603.68747 -32931019.34045  21708656.9224                   21708653.2384
 11  8 15  2 49  0.0000000  0  8G12G10G25G26G05G15G29G02
 -26246030.44547 -20125616.95345  21696441.1484                   21696438.1684
 -23545083.64846 -17105818.50442  23959252.5474                   23959252.5634
 -11484905.73447  -8747905.17645  21504020.2274   21504020.0204   13938799.81446
  11296821.62743                  23143949.5234                   23143948.8204
 -27569256.58247 -21418208.21146  20413157.1724                   20413154.1604
  25271313.46546  19843830.58642  24060437.1954                   24060436.5554
   2403367.56647   2304265.56644  22031311.1724                   22031309.2504
 -42369393.61747 -32967479.02045  21699753.1884                   21699748.9734
 11  8 15  2 49 30.0000000  0  8G12G10G25G26G05G15G29G02
 -26260984.25047 -20137269.27045  21693595.2504                   21693593.2234
 -23525687.23845 -17090704.48042  23962943.6094                   23962944.2704
 -11557231.65247  -8804263.02345  21490256.5864   21490256.7774   13758271.48846
  11156150.27343                  23109596.6804                   23109595.5164
 -27619030.57447 -21456993.12946  20403685.5634                   20403682.5434
  25087314.63746  19700454.97343  24025423.6094                   24025422.1414
   2236837.69947   2174502.09045  21999621.5864                   21999620.0044
 -42416090.71947 -33003866.35245  21690867.7974                   21690862.8834
 11  8 15  2 50  0.0000000  0  8G12G10G25G26G05G15G29G02
 -24700154.48447 -18921038.28145  21990610.7814                   21990609.4494
 -21930769.67245 -15847911.62142  24266447.2504                   24266447.3634
 -10053573.34047  -7632581.20345  21776393.9144   21776393.2854   15153327.69146
  12243207.10243                  23375067.7194                   23375065.4534
 -26092905.13347 -20267804.46546  20694097.5634                   20694094.7894
  26478683.51246  20784638.64843  24290192.6564                   24290190.6604
   3645872.49247   3272451.32845  22267752.4774                   22267750.2974
 -40887273.32447 -31812580.04744  21981790.9454                   21981787.1884
 11  8 15  2 50 30.0000000  0  8G12G10G25G26G05G15G29G02
 -24714385.14147 -18932127.09845  21987903.3364                   21987901.5904
 -21911173.05545 -15832641.53942  24270174.3054                   24270176.4804
 -10124777.47747  -7688064.91845  21762843.5474   21762843.6604   14973119.18046
  12102784.90643                  23340774.6644                   23340773.3054
 -26141725.84047 -20305846.57046  20684807.6644                   20684804.6564
  26294569.77346  20641173.52043  24255156.6564                   24255154.9454
   3479622.18047   3142905.69545  22236115.6094                   22236113.7344
 -40933785.34047 -31848823.16044  21972940.6954                   21972936.3674
 11  8 15  2 51  0.0000000  0  8G12G10G25G26G05G15G29G02
 -24728257.13747 -18942936.44545  21985263.8524                   21985261.1564
 -21891478.05945 -15817294.95342  24273923.0314                   24273924.3284
 -10195420.46947  -7743111.38345  21749400.6174   21749401.0354   14793077.91046
  11962493.03543                  23306514.4064                   23306513.0004
 -26190070.84847 -20343517.98846  20675607.4534                   20675604.9844
  26110404.60946  20497668.30542  24220111.3054                   24220109.3914
   3313516.35547   3013472.64544  22204507.1724                   22204505.3204
 -40980203.21147 -31884992.89544  21964107.4534                   21964103.3674
 11  8 15  2 51 30.0000000  0  8G12G10G25G26G05G15G29G02
 -24741775.35947 -18953470.12945  21982691.3364                   21982688.6954
 -21871689.69145 -15801875.53142  24277689.9694                   24277689.3714
 -10265505.88347  -7797723.37145  21736064.1024   21736064.0084   14613205.25046
  11822332.53943                  23272285.5234                   23272284.1174
 -26237944.29347 -20380821.96546  20666497.6484                   20666495.0204
  25926188.86346  20354123.69543  24185055.3204                   24185054.4104
   3147555.34447   2884152.42645  22172925.3754                   22172923.4534
 -41026529.02747 -31921090.92244  21955291.9304                   21955287.7114
 11  8 15  2 52  0.0000000  0  8G12G10G25G26G05G15G29G02
 -24754940.93747 -18963729.01645  21980185.6884                   21980183.6024
 -21851808.90646 -15786384.06643  24281473.0394                   24281471.5004
 -10335033.42647  -7851900.66445  21722833.0784   21722833.1604   14433506.24646
  11682307.36343                  23238089.7584                   23238087.5944
 -26285347.02047 -20417759.13346  20657477.4534                   20657474.3674
  25741925.91846  20210542.28543  24149991.2894                   24149990.5274
   2981742.35547   2754947.55945  22141371.9614                   22141370.3874
 -41072761.41447 -31957116.13744  21946494.3984                   21946489.6914
 11  8 15  2 52 30.0000000  0  8G12G10G25G26G05G15G29G02
 -24767758.78947 -18973716.95345  21977746.5784                   21977744.3554
 -21831840.00046 -15770823.94543  24285272.9384                   24285271.9884
 -10404006.17647  -7905645.66045  21709708.1174   21709708.3134   14253982.77046
  11542418.95343                  23203929.1884                   23203926.0354
 -26332282.80947 -20454332.46946  20648545.1644                   20648542.9454
  25557616.98446  20066925.06643  24114918.9534                   24114917.0274
   2816077.85247   2625858.39545  22109847.5474                   22109845.5744
 -41118901.95747 -31993069.79345  21937713.9534                   21937709.7624
 11  8 15  2 53  0.0000000  0  8G12G10G25G26G05G15G29G02
 -24780230.45747 -18983435.13345  21975373.5704                   21975371.3244
 -21811784.55546 -15755196.35943  24289089.5004                   24289087.9844
 -10472424.34847  -7958958.52045  21696688.6024   21696689.0704   14074639.51246
  11402670.97343                  23169800.0084                   23169797.5164
 -26378752.95747 -20490542.96546  20639702.4694                   20639699.9224
  25373266.12946  19923275.19143  24079837.4774                   24079836.6214
   2650564.77747   2496887.21545  22078351.5704                   22078349.2584
 -41164949.68447 -32028951.14544  21928951.4534                   21928947.0944
 11  8 15  2 53 30.0000000  0  8G12G10G25G26G05G15G29G02
 -24792360.08247 -18992886.78945  21973065.5314                   21973063.1484
 -21791645.86746 -15739503.95343  24292921.0234                   24292920.4224
 -10540290.20347  -8011840.98445  21683774.2734   21683774.2584   13895479.03546
  11263065.44143                  23135706.2114                   23135704.4694
 -26424760.21947 -20526392.75846  20630947.3364                   20630944.8714
  25188874.91846  19779593.86743  24044748.6024                   24044748.1454
   2485204.52347   2368035.12145  22046884.1484                   22046882.4144
 -41210905.38747 -32064760.77044  21920206.7974                   21920201.6954
 11  8 15  2 54  0.0000000  0  8G12G10G25G26G05G15G29G02
 -24804149.25447 -19002073.14845  21970822.0704                   21970820.1294
 -21771425.20745 -15723747.66442  24296768.2274                   24296768.1804
 -10607604.05547  -8064293.34445  21670964.7194   21670965.2114   13716506.20346
  11123606.11343                  23101647.5784                   23101647.4304
 -26470305.37547 -20561882.47746  20622280.8134                   20622278.0124
  25004447.12946  19635884.01243  24009653.5084                   24009652.5514
   2320000.29347   2239304.60545  22015446.8914                   22015445.2274
 -41256768.32847 -32100498.10945  21911479.2344                   21911474.5664
 11  8 15  2 54 30.0000000  0  8G12G10G25G26G05G15G29G02
 -24815601.11347 -19010996.68445  21968643.0234                   21968640.4184
 -21751125.30545 -15707929.62942  24300631.7664                   24300631.3484
 -10674367.35947  -8116316.69545  21658260.5234   21658260.2424   13537724.43046
  10984295.65243                  23067628.4534                   23067626.7114
 -26515391.22347 -20597014.28946  20613701.5004                   20613698.1844
  24819985.59046  19492147.84443  23974551.3444                   23974550.3594
   2154953.67247   2110696.90245  21984039.0234                   21984037.3674
 -41302538.44947 -32136163.12144  21902769.0234                   21902765.2854
 11  8 15  2 55  0.0000000  0  8G12G10G25G26G05G15G29G02
 -24826716.83247 -19019658.28945  21966527.1334                   21966525.6454
 -21730747.21545 -15692050.66042  24304510.1564                   24304510.4264
 -10740579.91847  -8167910.87145  21645660.5004   21645660.6294   13359138.89546
  10845138.11744                  23033643.9454                   23033642.9264
 -26560018.00047 -20631788.38746  20605209.0784                   20605206.2664
  24635494.31346  19348388.47743  23939444.2344                   23939442.7664
   1990068.61347   1982215.10545  21952662.8364                   21952660.7664
 -41348214.21547 -32171754.59444  21894076.9454                   21894072.9614
 11  8 15  2 55 30.0000000  0  8G12G10G25G26G05G15G29G02
 -24837501.73047 -19028062.10245  21964475.2814                   21964472.8634
 -21710295.39845 -15676114.25042  24308401.3524                   24308403.2344
 -10806245.41447  -8219078.80945  21633164.4844   21633164.9224   13180750.96546
  10706134.56643                  22999698.0704                   22999696.5864
 -26604189.98447 -20666208.10546  20596803.2814                   20596800.7734
  24450974.06346  19204606.54743  23904331.9924                   23904330.0824
   1825344.95347   1853859.05544  21921316.8054                   21921314.9884
 -41393797.95747 -32207274.37545  21885403.4224                   21885398.7544
 11  8 15  2 56  0.0000000  0  8G12G10G25G26G05G15G29G02
 -24847958.32447 -19036210.09845  21962485.6094                   21962483.2664
 -21689772.09845 -15660122.07442  24312308.0234                   24312308.6214
 -10871364.91047  -8269821.27745  21620773.1414   21620773.0634   13002564.62546
  10567288.05943                  22965790.0314                   22965788.4774
 -26647909.03547 -20700274.88346  20588483.6094                   20588481.2704
  24266428.16846  19060804.64143  23869212.6484                   23869211.5704
   1660785.24647   1725630.76245  21890001.9224                   21890000.1024
 -41439289.00447 -32242721.93045  21876746.8054                   21876742.1254
 11  8 15  2 56 30.0000000  0  8G12G10G25G26G05G15G29G02
 -24858087.00447 -19044102.57445  21960557.7584                   21960556.0554
 -21669177.05145 -15644074.08642  24316226.9064                   24316227.3754
 -10935937.16047  -8320137.31245  21608485.1094   21608485.2034   12824586.37146
  10428603.71943                  22931922.0474                   22931920.7464
 -26691174.85947 -20733988.50446  20580250.0474                   20580247.5664
  24081861.94546  18916986.89543  23834091.1724                   23834089.8244
   1496394.09047   1597533.81345  21858719.4384                   21858717.9694
 -41484684.82447 -32278095.29345  21868107.7664                   21868102.9774
 11  8 15  2 57  0.0000000  0  8G12G10G25G26G05G15G29G02
 -24867894.34847 -19051744.66445  21958691.7034                   21958689.3284
 -21648516.09046 -15627974.69542  24320157.9844                   24320158.6994
 -10999967.11347  -8370030.77345  21596300.2974   21596300.5514   12646816.48446
  10290081.73443                  22898094.0314                   22898092.6024
 -26733992.90247 -20767353.19946  20572102.4144                   20572099.7624
  23897274.68846  18773152.75443  23798964.6174                   23798964.4924
   1332170.37547   1469567.34045  21827469.1644                   21827467.2584
 -41529988.50447 -32313396.84445  21859486.7344                   21859482.3674
 11  8 15  2 57 30.0000000  0  8G12G10G25G26G05G15G29G02
 -24877381.47347 -19059137.23045  21956886.3444                   21956884.0274
 -21627790.17646 -15611824.66042  24324103.2734                   24324102.5084
 -11063454.74247  -8419501.65645  21584219.4304   21584219.4694   12469259.82846
  10151725.92643                  22864305.9064                   22864304.1604
 -26776363.78947 -20800369.46545  20564039.9304                   20564037.0664
  23712670.58646  18629305.44543  23763835.8914                   23763834.5274
   1168117.64147   1341734.09045  21796250.4614                   21796248.5824
 -41575198.73447 -32348625.56244  21850882.7584                   21850879.3054
 11  8 15  2 58  0.0000000  0  9G12G10G25G26G05G15G29G21G02
 -24886551.87947 -19066282.99645  21955141.5164                   21955138.6374
 -21607001.96945 -15595626.16442  24328058.1804                   24328058.3014
 -11126402.06647  -8468551.50845  21572241.1024   21572241.3714   12291919.72746
  10013538.81643                  22830559.1414                   22830556.9384
 -26818290.30547 -20833039.46146  20556061.4614                   20556058.8634
  23528052.25846  18485447.05943  23728704.9304                   23728702.9804
   1004237.70347   1214035.48045  21765065.0704                   21765063.1724
  31292945.71515                  25037570.109
 -41620315.93747 -32383781.80144  21842298.0554                   21842293.4224
 11  8 15  2 58 30.0000000  0  9G12G10G25G26G05G15G29G21G02
 -24895411.16847 -19073186.32845  21953455.6414                   21953452.5664
 -21586156.80945 -15579383.19942  24332024.5704                   24332024.6884
 -11188813.54747  -8517183.84445  21560364.8204   21560364.7034   12114796.89546
   9875521.01643                  22796853.8524                   22796852.1994
 -26859777.55547 -20865367.18046  20548166.6254                   20548163.7814
  23343419.22346  18341577.18843  23693570.5554                   23693568.6414
    840529.64547   1086470.82445  21733912.6884                   21733910.6134
  31147986.676 5                  25009984.773
 -41665343.00447 -32418867.80544  21833729.8284                   21833725.3094
 11  8 15  2 59  0.0000000  0  9G12G10G25G26G05G15G29G21G02
 -23328546.38347 -17852252.72345  22251619.8284                   22251617.1054
 -19989841.69945 -14335501.39842  24635794.0944                   24635793.9304
  -9675272.39547  -7337801.12145  21848381.8834   21848381.8874   13513317.16046
  10965277.07843                  23062983.9144                   23062981.6484
 -25325410.05547 -19669756.13746  20840146.9384                   20840144.5554
  24734197.07046  19425300.18043  23958226.2584                   23958224.9384
   2252417.39847   2186643.16445  22002586.2114                   22002583.6254
  32578462.46145                  25690718.75452  25282195.2424   25282195.0434
 -40134861.71947 -31226284.97344  22124971.0554                   22124966.0124
 11  8 15  2 59 30.0000000  0  9G12G10G25G26G05G15G29G21G02
 -23336799.31247 -17858683.58644  22250049.2894                   22250046.8634
 -19968896.19945 -14319180.28142  24639780.2274                   24639779.3244
  -9736623.05547  -7385606.83245  21836707.4844   21836707.4924   13336633.63346
  10827601.59443                  23029361.0634                   23029359.5044
 -25366031.53147 -19701409.23446  20832416.7194                   20832414.2274
  24549537.52346  19281409.65243  23923086.8524                   23923085.5594
   2089053.79347   2059346.88345  21971498.7664                   21971496.6644
  32433524.20746                  25577780.01242  25254614.4144   25254615.1214
 -40179713.96547 -31261234.74645  22116436.2424                   22116430.8834
 11  8 15  3  0  0.0000000  0  9G12G10G25G26G05G15G29G21G02
 -23344751.13747 -17864879.81245  22248535.9534                   22248533.2584
 -19947901.49245 -14302820.86342  24643774.1884                   24643774.9414
  -9797443.34047  -7432999.23045  21825133.5164   21825133.2624   13160177.78146
  10690103.48043                  22995782.6024                   22995781.2304
 -25406221.27047 -19732725.89845  20824768.9144                   20824766.3794
  24364871.29346  19137513.91043  23887946.2504                   23887944.1564
   1925868.00847   1932189.18045  21940445.5474                   21940444.2384
  32288597.89546                  25464850.53942  25227035.3524   25227036.3364
 -40224476.45747 -31296114.57844  22107917.6884                   22107913.6724
 11  8 15  3  0 30.0000000  0  9G12G10G25G26G05G15G29G21G02
 -23352403.46147 -17870842.67245  22247080.0084                   22247077.5474
 -19926858.898 5                  24647779.711
  -9857733.50847  -7479978.57445  21813660.9304   21813660.2934   12983954.37546
  10552786.55143                  22962248.6414                   22962247.0234
 -25445980.06247 -19763706.76646  20817203.2504                   20817200.3014
  24180202.56646  18993616.22743  23852804.4694                   23852802.6174
   1762863.56647   1805172.79745  21909426.7034                   21909425.0044
  32143684.11346                  25351930.83242  25199460.1094   25199460.2234
 -40269147.54347 -31330923.18445  22099416.7814                   22099412.7074
 11  8 15  3  1  0.0000000  0  9G12G10G25G26G05G15G29G21G02
 -23359757.60247 -17876573.17245  22245680.6174                   22245678.2704
 -19905769.059 5                  24651792.367
  -9917493.74247  -7526544.98845  21802287.6724   21802288.5124   12807968.77746
  10415654.92243                  22928759.5864                   22928758.2114
 -25485308.17647 -19794352.05546  20809719.2814                   20809716.4534
  23995536.00846  18849720.25843  23817662.9924                   23817662.1884
   1600044.34047   1678300.73445  21878443.0234                   21878440.9264
  31998784.01246                  25239021.75042  25171885.9774   25171886.4924
 -40313725.84847 -31365659.46944  22090933.8204                   22090929.5664
 11  8 15  3  1 30.0000000  0  8G12G25G26G05G15G29G21G02
 -23366819.94947 -17882076.28945  22244336.8914                   22244333.9224
  -9976729.17247  -7572702.45745  21791015.9844   21791016.4494   12632221.17246
  10278708.71543                  22895316.2194                   22895314.4104
 -25524211.64147 -19824666.43446  20802316.2034                   20802313.2974
  23810870.63346  18705825.21943  23782523.2664                   23782521.4924
   1437408.55947   1551571.60245  21847494.3834                   21847492.3244
  31853893.29346                  25126120.06342  25144314.3674   25144314.3284
 -40358214.65247 -31400326.01644  22082467.7734                   22082463.7774
 11  8 15  3  2  0.0000000  0  8G12G25G26G05G15G29G21G02
 -23373588.93747 -17887350.82445  22243048.5314                   22243045.9654
 -10035436.70747  -7618448.58245  21779844.2194   21779844.7074   12456719.99246
  10141954.57043                  22861919.2194                   22861917.8794
 -25562688.17647 -19854648.15646  20794994.8204                   20794991.6564
  23626214.38346  18561937.29343  23747383.7344                   23747382.8674
   1274963.50847   1424991.08645  21816581.8914                   21816580.1334
  31709016.33645                  25013229.09442  25116745.1334   25116745.6214
 -40402609.11347 -31434919.05144  22074020.3594                   22074015.5234
 11  8 15  3  2 30.0000000  0  8G12G25G26G05G15G29G21G02
 -23380065.52347 -17892397.52745  22241815.9144                   22241814.0554
 -10093616.17247  -7663783.22345  21768773.4694   21768773.6414   12281470.94146
  10005396.87944                  22828570.8524                   22828569.1954
 -25600737.97747 -19884297.35246  20787753.4534                   20787750.8014
  23441572.04746  18418060.18443  23712247.3984                   23712246.4064
   1112713.46147   1298562.52745  21785706.8594                   21785704.9804
  31564154.46145                  24900349.83642  25089178.3674   25089178.5784
 -40446906.98847 -31469436.84844  22065589.9064                   22065584.9964
 11  8 15  3  3  0.0000000  0  8G12G25G26G05G15G29G21G02
 -23386251.34847 -17897217.64845  22240638.7274                   22240636.5634
 -10151267.66047  -7708706.44545  21757802.8914   21757802.5474   12106479.00046
   9869039.54744                  22795270.8444                   22795269.6094
 -25638361.82847 -19913614.63746  20780594.1644                   20780591.4844
  23256947.80546  18274197.21143  23677114.2894                   23677113.2034
    950662.30147   1172288.94545  21754869.5004                   21754867.5664
  31419308.79345                  24787483.14542  25061615.9844   25061615.7544
 -40491106.70747 -31503878.15644  22057179.2424                   22057174.1254
 11  8 15  3  3 30.0000000  0  8G12G25G26G05G15G29G21G02
 -23392149.96947 -17901813.99645  22239517.0864                   22239514.5204
 -10208393.65647  -7753220.19545  21746932.0554   21746932.2894   11931747.40646
   9732885.08244                  22762021.4144                   22762018.7234
 -25675562.30147 -19942602.02045  20773515.4224                   20773512.3444
  23072344.07846  18130350.21143  23641984.8134                   23641984.0164
    788811.46147   1046171.45345  21724070.7504                   21724069.0274
  31274477.77745                  24674627.96142  25034054.2974   25034055.7774
 -40535208.68047 -31538243.27344  22048787.1724                   22048782.0234
 11  8 15  3  4  0.0000000  0  8G12G25G26G05G15G29G21G02
 -23397764.14547 -17906188.67644  22238448.0004                   22238445.9534
 -10264995.84447  -7797325.77345  21736161.2194   21736160.6454   11757279.93046
   9596936.44944                  22728821.3364                   22728819.0944
 -25712341.73847 -19971261.32046  20766515.9924                   20766513.7234
  22887763.81146  17986521.54043  23606861.0164                   23606859.6644
    627163.07047    920211.71545  21693309.7344                   21693307.5234
  31129661.35945                  24561784.10242  25006496.5004   25006498.5664
 -40579212.60247 -31572532.00044  22040412.9454                   22040408.2814
 11  8 15  3  4 30.0000000  0  8G12G25G26G05G15G29G21G02
 -23403098.48047 -17910345.29345  22237432.8594                   22237430.6884
 -10321077.43047  -7841025.70345  21725489.0314   21725489.1884   11583078.85246
   9461195.37944                  22695671.2974                   22695669.5864
 -25748703.96947 -19999595.53146  20759597.0084                   20759594.1454
  22703208.54746  17842712.30943  23571741.6414                   23571740.0274
    465718.18047    794410.54345  21662587.4064                   21662585.8914
  30984857.21945                  24448949.84042  24978940.7344   24978943.0474
 -40623120.12547 -31606745.60544  22032057.4614                   22032053.5514
 11  8 15  3  5  0.0000000  0  8G12G25G26G05G15G29G21G02
 -23408155.37147 -17914285.74244  22236470.3834                   22236468.0434
 -10376639.75447  -7884321.02745  21714916.2194   21714916.0394   11409148.45746
   9325665.24644                  22662573.1954                   22662571.0784
 -25784650.86347 -20027606.10246  20752756.3364                   20752753.6054
  22518681.91846  17698925.40643  23536627.7274                   23536625.8914
    304479.43847    668770.01645  21631905.3204                   21631903.0634
  30840065.36746                  24336125.13342  24951388.2344   24951389.2624
 -40666930.31647 -31640883.35944  22023720.7974                   22023716.6564
 11  8 15  3  5 30.0000000  0  8G12G25G26G05G15G29G21G02
 -23412939.48047 -17918013.62944  22235560.1804                   22235557.7774
 -10431686.05547  -7927214.23845  21704441.0634   21704440.6454   11235490.89847
   9190347.72344                  22629527.2894                   22629525.6094
 -25820186.00847 -20055295.82446  20745994.2734                   20745991.5044
  22334185.22346  17555161.81343  23501518.9064                   23501516.5704
    143447.75047    543290.82045  21601261.4844                   21601259.8364
  30695283.70346                  24223308.40642  24923837.6804   24923838.2774
 -40710644.49647 -31674946.31244  22015402.1804                   22015397.9024
 11  8 15  3  6  0.0000000  0  8G12G25G26G05G15G29G21G02
 -23417453.46147 -17921531.02345  22234701.3444                   22234698.6844
 -10486218.57847  -7969707.09845  21694063.8054   21694063.6094   11062109.31646
   9055245.27743                  22596533.2664                   22596531.6844
 -25855312.12547 -20082666.82046  20739309.9454                   20739307.1374
  22149721.14146  17411423.62143  23466416.3834                   23466414.0394
    -17374.85947    417974.54345  21570657.8134                   21570655.8324
  30550511.41845                  24110498.94142  24896288.7584   24896289.0744
 -40754262.81647 -31708934.57444  22007102.4534                   22007097.5164
 11  8 15  3  6 30.0000000  0  8G12G25G26G05G15G29G21G02
 -23421701.25847 -17924841.01244  22233893.1804                   22233890.9884
 -10540239.09847  -8011801.00045  21683783.7114   21683784.2344   10889007.75047
   8920361.03143                  22563593.3444                   22563591.6214
 -25890031.55947 -20109720.93446  20732703.5704                   20732700.6214
  21965292.36346  17267712.96543  23431320.2894                   23431319.0554
   -177986.04747    292823.02045  21540094.9144                   21540092.8594
  30405748.07045                  23997696.47342  24868740.1254   24868741.6524
 -40797785.12547 -31742848.04344  21998820.0314                   21998814.8674
 11  8 15  3  7  0.0000000  0  8G12G25G26G05G15G29G21G02
 -23425686.17247 -17927946.14545  22233135.3134                   22233132.6524
 -10593750.06247  -8053497.84045  21673601.3364   21673600.9304   10716189.03946
   8785697.18044                  22530707.1644                   22530705.2424
 -25924347.30547 -20136460.46546  20726172.8364                   20726170.1214
  21780901.67246  17124031.96544  23396232.4614                   23396230.7854
   -338384.22747    167837.47345  21509572.1724                   21509570.3674
  30260992.78945                  23884900.20742  24841194.2974   24841195.9924
 -40841211.58647 -31776686.81244  21990556.2734                   21990551.3324
 11  8 15  3  7 30.0000000  0  8G12G25G26G05G15G29G21G02
 -23429410.18047 -17930847.98844  22232426.3134                   22232423.8954
 -10646752.77047  -8094798.64145  21663515.1804   21663515.1684   10543657.83646
   8651257.35544                  22497875.3054                   22497873.3244
 -25958260.53547 -20162886.34846  20719719.6484                   20719716.7464
  21596552.51246  16980383.32443  23361151.9614                   23361150.0044
   -498566.54347     43020.12545  21479090.0394                   21479088.0004
  30116245.39145                  23772110.05542  24813648.8754   24813650.8324
 -40884541.52047 -31810450.40244  21982310.4614                   21982305.7384
 11  8 15  3  8  0.0000000  0  8G12G25G26G05G15G29G21G02
 -21857454.89847 -16705947.77744  22531559.5164                   22531556.7854
  -9123825.72347  -6908102.22745  21953318.3984   21953318.8754   11946845.06646
   9744650.06344                  22764892.6484                   22764890.5394
 -24416351.20747 -18961398.55545  21013135.3284                   21013132.1254
  22987675.37946  18064375.22343  23625873.9454                   23625871.6174
    916896.45347   1145978.34845  21748443.5704                   21748441.7894
  31546931.99645                  24886930.93842  25085900.3204   25085901.8714
 -39352351.32447 -30616535.94944  22273876.9534                   22273871.8364
 11  8 15  3  8 30.0000000  0  8G12G25G26G05G15G29G21G02
 -21860667.29747 -16708450.94544  22530948.2194                   22530945.2464
  -9175818.08247  -6948615.75445  21943424.1724   21943424.4734   11774899.11747
   9610666.28144                  22732173.2114                   22732170.7344
 -24449467.62947 -18987203.54746  21006833.2664                   21006830.5354
  22803417.98846  17920798.09043  23590811.0164                   23590808.0824
    757152.37147   1021502.47745  21718045.3834                   21718043.2154
  31402198.56645                  24774151.75042  25058357.9844   25058359.6564
 -39395487.78547 -30650148.77044  22265668.3674                   22265663.5634
 11  8 15  3  9  0.0000000  0  8G12G25G26G05G15G29G21G02
 -21863629.68047 -16710759.30944  22530384.2734                   22530381.8874
  -9227309.63747  -6988739.03145  21933625.9844   21933626.1484   11603250.03147
   9476913.79744                  22699509.1094                   22699506.9844
 -24482190.27347 -19012701.71146  21000605.9924                   21000603.5824
  22619209.49646  17777259.02043  23555756.7814                   23555754.1844
    597629.66447    897199.12545  21687689.3914                   21687686.9144
  31257469.80545                  24661376.12142  25030817.5004   25030818.5864
 -39438528.59047 -30683687.02044  22257477.8594                   22257474.0274
 11  8 15  3  9 30.0000000  0  8G12G25G26G05G15G29G21G02
 -21866344.21147 -16712874.53544  22529867.2194                   22529865.4414
  -9278301.47747  -7028472.91845  21923922.7664   21923922.3984   11431902.31347
   9343396.12144                  22666902.3984                   22666900.6134
 -24514520.80947 -19037894.32446  20994454.1024                   20994451.3674
  22435053.62546  17633760.99243  23520713.2814                   23520711.1764
    438331.53947    773070.75845  21657375.9144                   21657373.8204
  31112746.57845                  24548604.86342  25003276.8444   25003278.1294
 -39481472.57047 -30717149.83644  22249305.0554                   22249301.6804
 11  8 15  3 10  0.0000000  0  8G12G25G26G05G15G29G21G02
 -21868813.02047 -16714798.28144  22529397.5084                   22529395.3634
  -9328794.65647  -7067818.26245  21914313.7814   21914314.1294   11260860.59046
   9210116.86744                  22634354.6564                   22634353.1724
 -24546460.77747 -19062782.60545  20988375.8524                   20988372.8754
  22250954.64846  17490307.29743  23485679.9534                   23485678.9144
    279261.04347    649119.76245  21627106.0864                   21627103.8794
  30968028.77045                  24435837.85542  24975737.5704   24975739.9964
 -39524318.61347 -30750536.35944  22241152.7274                   22241148.0124
 11  8 15  3 10 30.0000000  0  8G12G25G26G05G15G29G21G02
 -21871040.59047 -16716534.04344  22528973.9384                   22528971.9534
  -9378792.71147  -7106777.77745  21904799.5084   21904799.8674   11090127.21947
   9077077.90244                  22601864.9224                   22601863.5864
 -24578013.54747 -19087369.16446  20982371.9694                   20982368.9104
  22066914.00846  17346899.05943  23450657.5944                   23450656.3984
    120419.10247    525346.86345  21596879.3524                   21596877.0704
  30823314.40245                  24323073.57042  24948200.0084   24948201.2344
 -39567067.96947 -30783847.52044  22233017.7424                   22233012.8014
 11  8 15  3 11  0.0000000  0  8G12G25G26G05G15G29G21G02
 -21873029.74647 -16718084.05144  22528595.8834                   22528593.2854
  -9428297.45747  -7145352.89145  21895379.2734   21895379.1524   10919705.85247
   8944282.02744                  22569434.4064                   22569433.3484
 -24609181.64847 -19111655.99646  20976441.0234                   20976437.6604
  21882934.98446  17203538.85243  23415648.3834                   23415645.3714
    -38191.79747    401754.00845  21566696.5704                   21566694.2734
  30678603.09045                  24210311.56642  24920661.9534   24920663.7894
 -39609720.41447 -30817083.15244  22224901.7504                   22224896.7624
 11  8 15  3 11 30.0000000  0  8G12G25G26G05G15G29G21G02
 -21874782.70347 -16719450.00444  22528261.7424                   22528259.6604
  -9477310.43747  -7183544.81245  21886052.2814   21886051.9064   10749600.59446
   8811732.44544                  22537065.0004                   22537063.4024
 -24639966.85947 -19135644.45346  20970582.3204                   20970579.6684
  21699020.93046  17060229.23843  23380650.0084                   23380647.8634
   -196568.65647    278343.52345  21536557.9384                   21536555.7384
  30533895.09045                  24097552.16042  24893124.5634   24893125.8794
 -39652274.75447 -30850242.37544  22216803.3834                   22216798.5824
 11  8 15  3 12  0.0000000  0  8G12G25G26G05G15G29G21G02
 -21876303.74247 -16720635.25044  22527972.1484                   22527970.6684
  -9525834.28147  -7221355.60545  21876818.0704   21876818.7664   10579814.98047
   8679431.93844                  22504755.9384                   22504753.8634
 -24670372.15647 -19159336.89146  20964796.7194                   20964793.1174
  21515174.42646  16916972.28544  23345665.3204                   23345663.2934
   -354709.97347    155116.57445  21506464.9844                   21506462.2894
  30389189.48045                  23984794.69142  24865588.4614   24865588.4264
 -39694731.45747 -30883325.51644  22208724.5864                   22208719.8444
 11  8 15  3 12 30.0000000  0  8G12G25G26G05G15G29G21G02
 -21877595.73447 -16721642.01244  22527726.5314                   22527724.5554
  -9573871.21147  -7258786.96945  21867677.6644   21867677.5004   10410352.37546
   8547383.15244                  22472508.3364                   22472506.5594
 -24700399.66047 -19182734.93745  20959083.0864                   20959079.7424
  21331398.36746  16773770.19944  23310693.8594                   23310692.2774
   -512613.19547     32075.14845  21476417.2734                   21476414.5984
  30244485.62145                  23872038.42242  24838051.4614   24838051.4064
 -39737090.45747 -30916332.49644  22200663.3754                   22200659.3244
 11  8 15  3 13  0.0000000  0  8G12G25G26G05G15G29G21G02
 -21878660.33247 -16722471.57844  22527524.5314                   22527521.6294
  -9621421.98847  -7295839.53545  21858628.7344   21858628.9144   10241217.81347
   8415589.97344                  22440322.6174                   22440321.0314
 -24730050.91447 -19205839.80545  20953440.1254                   20953437.1054
  21147696.85246  16630626.20344  23275737.1564                   23275735.0004
   -670274.55147    -90777.81245  21446414.7344                   21446412.4184
  30099783.90645                  23759283.98442  24810514.8674   24810516.4064
 -39779350.09047 -30949262.04344  22192622.0634                   22192617.6174
 11  8 15  3 13 30.0000000  0  8G12G25G26G05G15G29G21G02
 -21879501.39546 -16723126.97344  22527363.6564                   22527361.9494
  -9668489.58647  -7332515.59445  21849672.2424   21849672.6054   10072414.14147
   8284054.62144                  22408200.7034                   22408198.7624
 -24759328.95347 -19228653.85946  20947868.5084                   20947865.7974
  20964072.66846  16487542.46144  23240794.3134                   23240792.4654
   -827692.82047   -213441.34445  21416458.8914                   21416457.0474
  29955083.15245                  23646530.22742  24782980.3444   24782981.2814
 -39821510.71947 -30982114.46944  22184598.4304                   22184594.6374
 11  8 15  3 14  0.0000000  0  8G12G25G26G05G15G29G21G02
 -21880121.60247 -16723610.27344  22527245.8914                   22527243.9534
  -9715075.98447  -7368816.67245  21840807.2344   21840807.2854
   9903945.13347   8152780.02344  22376142.4224                   22376140.3674
 -24788235.95747 -19251178.78945  20942367.8054                   20942364.6914
  20780528.43046  16344521.02044  23205867.4064                   23205865.5434
   -984865.51247   -335913.52345  21386550.5164                   21386548.1214
  29810383.12945                  23533777.00842  24755444.2734   24755445.8754
 -39863572.04347 -31014889.51644  22176594.2664                   22176590.1454
 11  8 15  3 14 30.0000000  0  8G12G25G26G05G15G29G21G02
 -21880525.43747 -16723924.96144  22527168.8984                   22527166.8094
  -9761184.64547  -7404745.50045  21832032.8674   21832033.1254
   9735813.37146   8021768.25844  22344147.8134                   22344146.3094
 -24816775.43447 -19273417.34445  20936936.9384                   20936934.1174
  20597066.41446  16201563.65644  23170955.3524                   23170953.7544
  -1141791.60547   -458193.55145  21356688.3134                   21356685.8244
  29665681.93045                  23421022.96142  24727909.2734   24727909.4654
 -39905535.25847 -31047588.12144  22168609.7194                   22168605.1914
 11  8 15  3 15  0.0000000  0  8G12G25G26G05G15G29G21G02
 -21880715.17247 -16724072.83244  22527132.4694                   22527131.1024
  -9806816.94947  -7440303.13745  21823349.7114   21823349.7894
   9568023.07046   7891022.52044  22312217.9304                   22312216.2934
 -24844949.09447 -19295370.84445  20931575.3594                   20931572.4804
  20413690.39546  16058673.27043  23136059.5554                   23136057.7704
  -1298467.64847   -580278.73445  21326873.9064                   21326871.1254
  29520980.10545                  23308268.37542  24700372.6174   24700373.1684
 -39947399.12547 -31080209.28544  22160643.3444                   22160638.5004
 11  8 15  3 15 30.0000000  0  8G12G25G26G05G15G29G21G02
 -21880695.86347 -16724057.80544  22527136.9384                   22527134.6564
  -9851977.07047  -7475492.85545  21814755.9064   21814756.2114
   9400576.24646   7760544.46544  22280353.7814                   22280352.1484
 -24872761.40647 -19317042.77345  20926282.7114                   20926280.4494
  20230401.46146  15915850.76244  23101180.8594                   23101178.9454
  -1454893.26247   -702168.78545  21297106.8444                   21297104.5164
  29376275.11745                  23195511.30942  24672837.4304   24672836.7814
 -39989165.52047 -31112754.55144  22152695.0784                   22152690.7624
 11  8 15  3 16  0.0000000  0  8G12G25G26G05G15G29G21G02
 -21880468.73047 -16723880.84044  22527180.1644                   22527177.5594
  -9896665.40247  -7510314.92645  21806252.0784   21806251.8754
   9233478.18846   7630338.16044  22248555.9534                   22248554.9064
 -24900213.08247 -19338433.68045  20921059.3364                   20921056.2234
  20047204.46946  15773099.90243  23066319.6414                   23066317.5664
  -1611064.64847   -823860.71545  21267388.3754                   21267386.2274
  29231567.91046                  23082752.55142  24645299.9694   24645299.4614
 -40030831.91047 -31145221.85544  22144766.0704                   22144761.8914
 11  8 15  3 16 30.0000000  0  8G12G25G26G05G15G29G21G02
 -21880038.02746 -16723545.23844  22527261.8054                   22527258.9344
  -9940885.56647  -7544772.20745  21797836.7194   21797837.4884
   9066730.97346   7500405.27044  22216825.3834                   22216823.9024
 -24927307.47747 -19359546.19545  20915903.3204                   20915900.6724
  19864101.06346  15630421.95743  23031476.7894                   23031474.7544
  -1766980.38747   -945353.47345  21237718.5314                   21237715.8874
  29086856.96945                  22969990.89542  24617762.4224   24617761.9344
 -40072399.46146 -31177612.14144  22136856.6954                   22136851.2704
 11  8 15  3 17  0.0000000  0  8G12G25G26G05G15G29G21G02
 -20303987.25047 -15495453.74244  22827174.6644                   22827172.1024
  -8409218.64147  -6351265.52345  22089303.3594   22089303.6024   10475763.92247
   8598353.03944                  22484955.2894                   22484954.1374
 -23378626.59847 -18152781.86745  21210607.8834                   21210604.4304
  21256520.02046  16715423.77744  23296444.7034                   23296442.4694
   -347213.34847    160958.55145  21507890.7114                   21507888.5634
  30517566.42246                  24084829.44943  24890017.3754   24890016.5314
 -38538446.83247 -29982324.36344  22428757.2034                   22428752.9734
 11  8 15  3 17 30.0000000  0  8G12G25G26G05G15G29G21G02
 -20303159.24247 -15494808.55544  22827332.6644                   22827329.9574
  -8452509.75447  -6384998.84845  22081065.4534   22081065.9534   10309729.47747
   8468975.55944                  22453360.1644                   22453358.7584
 -23405014.61347 -18173343.96545  21205585.9844                   21205583.7114
  21073612.56346  16572898.53543  23261639.0004                   23261636.8484
   -502611.44947     39869.15645  21478320.1024                   21478317.0864
  30372845.98846                  23972060.39542  24862477.9844   24862476.6334
 -38579816.44947 -30014560.41044  22420884.9224                   22420880.0394
 11  8 15  3 18  0.0000000  0  8G12G25G26G05G15G29G21G02
 -20302137.04347 -15494012.05144  22827526.0234                   22827524.4884
  -8495339.59447  -6418372.75445  22072915.1414   22072915.5204   10144056.81646
   8339880.01244                  22421833.2424                   22421831.9694
 -23431052.87947 -18193633.51245  21200630.6334                   21200628.0274
  20890807.94146  16430453.42644  23226851.5394                   23226850.3834
   -657747.15647    -81015.77745  21448798.8444                   21448796.0864
  30228120.18846                  23859287.16043  24834937.1804   24834935.9304
 -38621086.32447 -30046718.75444  22413032.3284                   22413026.6884
 11  8 15  3 18 30.0000000  0  8G12G25G26G05G15G29G21G02
 -20300922.24647 -15493065.46944  22827758.0554                   22827755.6294
  -8537709.16447  -6451388.00845  22064852.4224   22064852.7584
   9978751.09847   8211070.39144  22390376.9454                   22390374.9494
 -23456742.31647 -18213651.24245  21195742.2974                   21195739.4304
  20708110.49246  16288091.81344  23192086.4224                   23192084.1884
   -812616.58247   -201693.21545  21419327.2814                   21419325.4614
  30083389.99246                  23746510.40642  24807396.1024   24807395.0084
 -38662255.04347 -30078798.25044  22405197.5004                   22405192.4694
 11  8 15  3 19  0.0000000  0  8G12G25G26G05G15G29G21G02
 -20299517.62947 -15491970.96144  22828024.6174                   22828022.1454
  -8579620.26647  -6484046.02045  22056877.4924   22056877.9064
   9813816.22746   8082549.75844  22358991.0394                   22358988.9924
 -23482085.07047 -18233398.84445  21190919.4534                   21190916.6954
  20525523.77746  16145816.48844  23157341.2974                   23157338.9654
   -967216.82847   -322160.91045  21389908.1884                   21389905.6644
  29938655.41446                  23633730.32842  24779854.1484   24779852.6174
 -38703321.76646 -30110798.28144  22397382.5314                   22397378.1414
 11  8 15  3 19 30.0000000  0  8G12G25G26G05G15G29G21G02
 -20297925.77747 -15490730.57044  22828328.1334                   22828325.1294
  -8621075.01647  -6516348.42645  22048988.5864   22048988.7234
   9649256.18846   7954321.18844  22327676.0004                   22327674.1954
 -23507083.37547 -18252878.03545  21186162.5554                   21186160.2234
  20343051.28146  16003630.16844  23122617.4224                   23122615.1454
  -1121545.34047   -442416.85945  21360540.4844                   21360538.0354
  29793916.09446                  23520946.50843  24752311.0474   24752309.8094
 -38744285.83247 -30142718.31244  22389587.1884                   22389583.0704
 11  8 15  3 20  0.0000000  0  8G12G25G26G05G15G29G21G02
 -20296151.08647 -15489347.69544  22828665.0474                   22828663.4734
  -8662077.11347  -6548298.13745  22041186.3594   22041186.6334
   9485073.26247   7826386.48044  22296433.1884                   22296431.1524
 -23531740.65247 -18272091.48845  21181470.5084                   21181468.1524
  20160694.64546  15861534.14544  23087915.8444                   23087914.4184
  -1275601.14847   -562460.30945  21331224.8754                   21331222.1254
  29649170.12546                  23408157.55142  24724766.4614   24724765.5044
 -38785148.31247 -30174559.16844  22381811.7504                   22381806.9574
 11  8 15  3 20 30.0000000  0  8G12G25G26G05G15G29G21G02
 -20294196.91447 -15487824.98844  22829037.8984                   22829035.5434
  -8702629.06247  -6579897.05145  22033469.9064   22033469.5434
   9321270.85546   7698748.31344  22265262.4064                   22265260.5594
 -23556059.69547 -18291041.39145  21176842.4924                   21176840.5204
  19978456.93846  15719530.79744  23053237.3524                   23053235.6764
  -1429381.93747   -682289.47345  21301960.8284                   21301958.5044
  29504417.23046                  23295363.19542  24697220.7504   24697219.7194
 -38825908.68447 -30206320.45744  22374055.2664                   22374050.5784
 11  8 15  3 21  0.0000000  0  8G12G25G26G05G15G29G21G02
 -20292065.47747 -15486164.13344  22829443.1484                   22829440.5824
  -8742732.41847  -6611146.42245  22025838.1024   22025837.8914
   9157853.45746   7571410.13744  22234165.1334                   22234164.0354
 -23580042.04747 -18309728.92245  21172279.3054                   21172276.7504
  19796342.12146  15577623.20744  23018581.7344                   23018579.8954
  -1582884.37947   -801901.73045  21272750.5004                   21272748.0204
  29359657.57446                  23182563.53942  24669674.5234   24669672.6884
 -38866566.11347 -30238001.55144  22366318.2424                   22366314.0984
 11  8 15  3 21 30.0000000  0  8G12G25G26G05G15G29G21G02
 -20289760.61347 -15484368.16444  22829881.5944                   22829879.2974
  -8782390.49247  -6642048.83245  22018291.5634   22018291.3364
   8994823.87547   7444374.15644  22203141.4454                   22203139.7974
 -23603691.20747 -18328156.83645  21167778.8444                   21167776.4884
  19614352.36746  15435813.07044  22983950.5234                   22983948.7304
  -1736107.11347   -921296.03545  21243593.3524                   21243591.0554
  29214890.00045                  23069757.76642  24642125.5704   24642124.6564
 -38907120.95746 -30269602.74244  22358601.0394                   22358596.2544
 11  8 15  3 22  0.0000000  0  8G12G25G26G05G15G29G21G02
 -20287283.87147 -15482438.23844  22830352.9614                   22830350.6134
  -8821604.30547  -6672605.04745  22010829.5234   22010829.3754
   8832186.76646   7317644.00044  22172192.4924                   22172190.7154
 -23627007.86347 -18346325.64545  21163341.6884                   21163338.9614
  19432492.28946  15294103.98044  22949343.6334                   22949341.6684
  -1889046.36347  -1040469.44945  21214489.6724                   21214487.0824
  29070115.35945                  22956946.46542  24614575.1804   24614575.1804
 -38947571.80947 -30301122.87944  22350903.7034                   22350898.4184
 11  8 15  3 22 30.0000000  0  8G12G25G26G05G15G29G21G02
 -20284641.08246 -15480378.95344  22830855.5864                   22830853.3874
  -8860378.92247  -6702819.03545  22003450.8914   22003451.3634
   8669943.41047   7191220.67644  22141318.7734                   22141316.4534
 -23649997.22347 -18364239.43045  21158966.9924                   21158964.3914
  19250762.24246  15152496.21544  22914761.1724                   22914759.4344
  -2041702.29747  -1159422.09445  21185440.2584                   21185438.2274
  28925330.62945                  22844127.35242  24587024.9694   24587023.8094
 -38987920.72346 -30332563.59044  22343224.7584                   22343220.5784
 11  8 15  3 23  0.0000000  0  9G12G18G25G26G05G15G29G21G02
 -20281835.11346 -15478192.50044  22831390.3284                   22831387.8524
  35800356.77315                  24592400.117
  -8898716.69547  -6732692.63345  21996155.0944   21996155.3954
   8508097.15247   7065106.75044  22110520.7664                   22110518.4924
 -23672661.71547 -18381900.05545  21154654.4384                   21154651.6414
  19069165.39146  15010992.23044  22880204.7274                   22880202.6764
  -2194072.57047  -1278152.12945  21156445.2194                   21156443.1094
  28780535.00845                  22731299.70342  24559469.6804   24559469.6374
 -39028167.20347 -30363924.47344  22335566.1174                   22335562.3484
 11  8 15  3 23 30.0000000  0  9G12G18G25G26G05G15G29G21G02
 -20278871.30947 -15475883.05544  22831953.9614                   22831951.9304
  35623083.848 5                  24558666.109
  -8936622.71147  -6762229.80145  21988941.9694   21988942.1134
   8346649.06647   6939303.06644  22079797.3914                   22079795.9804
 -23695006.26247 -18399311.38745  21150402.2814                   21150399.5704
  18887702.36746  14869592.53544  22845673.1724                   22845671.1684
  -2346157.26647  -1396659.64545  21127504.7034                   21127501.5904
  28635725.73445                  22618461.46542  24531912.7504   24531914.6374
 -39068313.45746 -30395207.23044  22327927.7504                   22327922.4694
 11  8 15  3 24  0.0000000  0  9G12G18G25G26G05G15G29G21G02
 -20275755.55946 -15473455.21544  22832546.5704                   22832544.8594
  35445974.016 5                  24524961.984
  -8974101.84047  -6791434.33645  21981810.3204   21981810.4024
   8185600.38347   6813810.64844  22049151.4534                   22049149.5784
 -23717035.99247 -18416477.40245  21146209.8054                   21146207.0634
  18706374.03146  14728297.79344  22811167.8364                   22811165.8874
  -2497956.34847  -1514944.59445  21098617.9534                   21098615.4224
  28490899.91845                  22505610.24642  24504354.3594   24504353.7034
 -39108361.67647 -30426413.61344  22320306.0004                   22320301.3954
 11  8 15  3 24 30.0000000  0  9G12G18G25G26G05G15G29G21G02
 -20272489.14846 -15470909.96544  22833168.5634                   22833166.5394
  35269030.699 5                  24491291.352
  -9011154.80547  -6820306.79345  21974758.8594   21974758.9304
   8024956.34047   6688633.54344  22018581.6724                   22018579.5824
 -23738751.20347 -18433398.34845  21142077.8524                   21142075.1134
  18525184.88346  14587111.53144  22776688.6564                   22776687.4534
  -2649465.54347  -1633003.66845  21069786.4454                   21069784.6604
  28346059.07446                  22392747.35942  24476792.7194   24476791.4804
 -39148309.59447 -30457541.87144  22312704.1484                   22312699.3794
 11  8 15  3 25  0.0000000  0  9G12G18G25G26G05G15G29G21G02
 -20269073.27046 -15468248.27044  22833819.1414                   22833816.3404
  35092256.305 5                  24457652.391
  -9047782.37147  -6848847.75045  21967789.5004   21967789.1214
   7864722.19147   6563775.80944  21988090.6254                   21988088.1844
 -23760152.61747 -18450074.76245  21138005.5474                   21138002.9774
  18344140.15646  14446037.78544  22742236.9924                   22742234.8834
  -2800681.01647  -1750833.87145  21041011.3284                   21041008.3594
  28201204.52046                  22279873.79342  24449225.9064   24449226.2974
 -39188155.05147 -30488590.29344  22305121.5474                   22305116.7894
 11  8 15  3 25 30.0000000  0  9G12G18G25G26G05G15G29G21G02
 -20265510.02047 -15465471.71944  22834497.0314                   22834494.6484
  34915653.176 5                  24424045.859
  -9083986.32847  -6877058.64545  21960899.7974   21960899.8554
   7704902.37147   6439240.91044  21957677.5084                   21957675.5984
 -23781241.90647 -18466507.97745  21133992.1804                   21133989.6134
  18163243.41046  14305079.32444  22707813.7814                   22707811.4574
  -2951599.62147  -1868432.74645  21012292.0394                   21012289.7624
  28056336.37546                  22166989.57442  24421659.7814   24421658.4264
 -39227897.12146 -30519558.14844  22297558.9144                   22297554.3714
 11  8 15  3 26  0.0000000  0  9G12G18G25G26G05G15G29G21G02
 -18686382.28547 -14234982.60244  23134994.4844                   23134992.5044
  36314649.344 5                  24690265.625
  -7544347.50047  -5677340.08245  22253883.4384   22253883.5124
   9120926.05947   7542636.05944  22227138.1564                   22227135.8714
 -22226600.50447 -17255099.09445  21429830.7584                   21429828.0664
  19557924.75046  15391844.04744  22973212.3594                   22973209.9924
  -1526793.12947   -758193.87145  21283423.5944                   21283421.4884
  29486879.54346                  23281698.61742  24693882.4384   24693880.9344
 -37692113.52347 -29322843.67644  22589809.0634                   22589804.3874
 11  8 15  3 26 30.0000000  0  9G12G18G25G26G05G15G29G21G02
 -18682532.84847 -14231983.03544  23135727.4774                   23135725.5744
  36138394.074 5                  24656725.477
  -7579710.79347  -5704895.90645  22247154.2584   22247153.8634
   8961946.06347   7418755.58644  22196885.2974                   22196882.7464
 -22247072.19147 -17271051.05545  21425935.2424                   21425932.3524
  19377335.09047  15251124.86744  22938847.1174                   22938844.6724
  -1677109.38747   -875323.39545  21254820.0314                   21254817.0274
  29341984.16846                  23168793.26642  24666309.3284   24666309.2664
 -37731646.42246 -29353648.54744  22582287.3834                   22582281.6914
 11  8 15  3 27  0.0000000  0  9G12G18G25G26G05G15G29G21G02
 -18678542.93047 -14228874.02044  23136487.0004                   23136484.3634
  35962316.148 5                  24623219.039
  -7614656.01247  -5732125.94945  22240504.1564   22240503.7304
   8803393.08247   7295207.85244  22166712.7504                   22166710.9344
 -22267237.00447 -17286763.89845  21422097.6644                   21422094.8674
  19196905.36346  15110530.34044  22904512.0704                   22904510.3484
  -1827119.19547   -992214.11345  21226273.6724                   21226271.1414
  29197075.98046                  23055877.90242  24638734.0554   24638733.2424
 -37771072.53947 -29384370.21144  22574784.1254                   22574778.6954
 11  8 15  3 27 30.0000000  0  9G12G18G25G26G05G15G29G21G02
 -18674416.04746 -14225658.27044  23137271.6254                   23137269.7624
                                  24589745.070
  -7649185.78147  -5759032.27045  22233932.8054   22233933.5204
   8645270.14547   7171995.22744  22136623.1484                   22136621.4264
 -22287097.64847 -17302239.72745  21418318.8054                   21418315.7974
  19016638.35546  14970062.56344  22870208.9064                   22870206.4224
  -1976820.33247  -1108864.30945  21197787.1954                   21197784.4304
  29052154.58646                  22942952.16843  24611157.0394   24611155.6294
 -37810391.52047 -29415008.38344  22567302.3364                   22567296.7424
 11  8 15  3 28  0.0000000  0  9G12G18G25G26G05G15G29G21G02
 -18670156.34046 -14222339.01244  23138082.4844                   23138080.0634
  35610696.078 5                  24556307.883
  -7683303.89847  -5785617.82845  22227441.0234   22227441.0744
   8487579.82847   7049119.72744  22106615.1334                   22106614.1024
 -22306657.26647 -17317480.98845  21414596.4454                   21414593.4454
  18836536.08646  14829723.16844  22835936.7194                   22835934.0864
  -2126211.73447  -1225273.15245  21169357.9064                   21169355.5944
  28907218.38746                  22830015.02343  24583575.6334   24583575.0904
 -37849604.23846 -29445563.75444  22559839.9304                   22559835.1884
 11  8 15  3 28 30.0000000  0  9G12G18G25G26G05G15G29G21G02
 -18665767.59446 -14218919.23444  23138917.3834                   23138915.0944
  35435154.340 5                  24522904.094
  -7717013.91847  -5811885.38745  22221025.8754   22221026.3244
   8330324.46947   6926583.13344  22076691.4144                   22076689.0354
 -22325919.57047 -17332490.58245  21410930.7584                   21410928.5044
  18656601.11346  14689514.13344  22801695.6954                   22801693.8284
  -2275292.03147  -1341439.57845  21140989.3204                   21140986.6994
  28762265.78146                  22717065.06642  24555992.3834   24555991.4064
 -37888711.20746 -29476036.73044  22552397.6884                   22552393.2584
 11  8 15  3 29  0.0000000  0  9G12G18G25G26G05G15G29G21G02
 -18661251.64546 -14215400.31643  23139776.5004                   23139774.0904
  35259794.586 5                  24489533.398
  -7750317.03947  -5837835.86345  22214688.6644   22214688.6884
   8173509.08647   6804389.39544  22046849.8524                   22046847.8204
 -22344885.59047 -17347269.31245  21407321.8914                   21407319.5234
  18476837.60946  14549438.74644  22767488.5394                   22767485.9384
  -2424057.23047  -1457360.47745  21112679.8284                   21112677.2344
  28617298.12146                  22604103.33242  24528405.6884   24528404.1334
 -37927710.38746 -29506425.71944  22544977.1804                   22544972.3134
 11  8 15  3 29 30.0000000  0  9G12G18G25G26G05G15G29G21G02
 -18656611.69946 -14211784.79744  23140659.3594                   23140657.5864
  35084616.930 5                  24456199.594
  -7783216.38747  -5863471.74245  22208427.8674   22208428.1804
   8017136.55947   6682540.71544  22017093.6414                   22017091.1564
 -22363558.37147 -17361819.53145  21403768.3444                   21403765.6884
  18297248.13346  14409498.97344  22733313.5944                   22733310.7234
  -2572505.48447  -1573034.41045  21084431.7894                   21084429.2194
  28472314.44545                  22491129.11742  24500816.2504   24500814.4614
 -37966602.14846 -29536731.02044  22537576.4144                   22537571.3324
 11  8 15  3 30  0.0000000  0  9G12G18G25G26G05G15G29G21G02
 -18651849.77746 -14208074.23444  23141565.5234                   23141564.1724
  34909624.55115                  24422898.969
  -7815713.47347  -5888794.15645  22202244.1094   22202244.2074
   7861211.47347   6561040.70744  21987422.1484                   21987419.3324
 -22381938.91447 -17376142.03945  21400271.1254                   21400268.2034
  18117837.23047  14269698.34044  22699172.5004                   22699170.0234
  -2720632.76247  -1688458.21145  21056243.8834                   21056241.3834
  28327315.60545                  22378143.09842  24473223.7664   24473223.1134
 -38005384.89847 -29566951.38744  22530196.2974                   22530191.0944
 11  8 15  3 30 30.0000000  0  9G12G18G25G26G05G15G29G21G02
 -18646970.12146 -14204271.93444  23142494.8524                   23142492.7734
  34734817.020 5                  24389633.016
  -7847812.21547  -5913806.18444  22196135.6954   22196135.5354
   7705735.98447   6439891.03544  21957835.9224                   21957833.3554
 -22400031.13747 -17390239.87545  21396827.8364                   21396825.1294
  17938606.82047  14130038.33644  22665066.4064                   22665063.7934
  -2868438.87947  -1803631.77045  21028116.4534                   21028114.6564
  28182299.76246                  22265143.84843  24445627.9774   24445626.7854
 -38044059.52046 -29597087.48444  22522836.6254                   22522830.7194
 11  8 15  3 31  0.0000000  0  9G12G18G25G26G05G15G29G21G02
 -18641975.03946 -14200379.69944  23143444.7894                   23143443.3244
  34560196.438 5                  24356404.594
  -7879514.17647  -5938509.00845  22190103.3754   22190103.1764
   7550714.59847   6319095.17644  21928335.7974                   21928334.0744
 -22417836.21547 -17404113.95345  21393439.6254                   21393436.8204
  17759561.10546  13990522.21544  22630993.4694                   22630992.0124
  -3015919.91047  -1918552.02345  21000052.0394                   21000049.6684
  28037267.69946                  22152131.98043  24418029.1804   24418028.5084
 -38082624.32447 -29627138.01244  22515497.9454                   22515492.8284
 11  8 15  3 31 30.0000000  0  9G12G18G25G26G05G15G29G21G02
 -18636868.82846 -14196400.85544  23144416.6644                   23144415.0394
  34385762.289 5                  24323210.234
  -7910823.93447  -5962906.22745  22184145.2814   22184144.9344
   7396148.86747   6198654.39844  21898923.0004                   21898921.5554
 -22435358.45747 -17417767.65645  21390105.5634                   21390102.1884
  17580701.23446  13851150.88344  22596959.5864                   22596956.1604
  -3163075.25847  -2033218.50845  20972049.2894                   20972046.7344
  27892217.05546                  22039105.57843  24390427.8204   24390426.6524
 -38121080.98047 -29657104.25044  22508179.6254                   22508175.0394
 11  8 15  3 32  0.0000000  0  9G12G18G25G26G05G15G29G21G02
 -18631653.60946 -14192337.08244  23145409.6254                   23145407.7034
  34211517.074 6                  24290053.008
  -7941742.98847  -5986999.00045  22178261.4304   22178261.6134
   7242043.28947   6078572.19544  21869597.4454                   21869595.7624
 -22452599.21147 -17431202.02045  21386824.6644                   21386821.8594
  17402031.49246  13711927.64544  22562959.2504                   22562956.6374
  -3309901.42647  -2147628.47745  20944109.6024                   20944107.0274
  27747148.90246                  21926065.54343  24362821.8364   24362820.6994
 -38159427.66447 -29686984.81644  22500883.0314                   22500878.3164
 11  8 15  3 32 30.0000000  0  9G12G18G25G26G05G15G29G21G02
 -18626330.94546 -14188189.56644  23146422.2814                   23146420.1374
  34037463.441 5                  24256932.070
  -7972272.64847  -6010788.35945  22172451.9534   22172451.6294
   7088402.71147   5958852.33244  21840361.0394                   21840359.0664
 -22469559.50847 -17444417.83245  21383597.1174                   21383594.5984
  17223556.65646  13572856.28144  22528996.1254                   22528994.4104
  -3456394.71547  -2261779.05545  20916232.7034                   20916229.9614
  27602063.95746                  21813012.44942  24335212.8204   24335211.7234
 -38197662.87147 -29716778.50444  22493606.4614                   22493601.9964
 11  8 15  3 33  0.0000000  0  9G12G18G25G26G05G15G29G21G02
 -18620906.14146 -14183962.45344  23147454.9144                   23147452.7504
  33863600.352 6                  24223846.406
  -8002417.87147  -6034278.16445  22166715.9614   22166715.0984
   6935227.96147   5839495.44544  21811212.7344                   21811210.7704
 -22486243.90647 -17457418.66845  21380422.3834                   21380419.4304
  17045277.45747  13433937.34044  22495071.6724                   22495069.1764
  -3602554.82047  -2375670.02745  20888419.4844                   20888416.7544
  27456959.75445                  21699944.34442  24307599.9384   24307599.1134
 -38235788.21947 -29746486.60244  22486351.9224                   22486347.2274
 11  8 15  3 33 30.0000000  0  9G12G18G25G26G05G15G29G21G02
 -18615382.30546 -14179658.21944  23148506.3984                   23148504.0944
  33689928.938 6                  24190797.414
  -8032181.54747  -6057470.64145  22161051.6024   22161051.7704
   6782522.33247   5720504.11744  21782153.3134                   21782151.3404
 -22502655.23847 -17470206.70745  21377299.0704                   21377296.5354
  16867197.11746  13295173.35244  22461184.1724                   22461181.3754
  -3748379.42647  -2489299.54745  20860670.0234                   20860667.2344
  27311835.54745                  21586860.69142  24279983.5474   24279982.8874
 -38273803.55547 -29776108.97344  22479118.0634                   22479113.3524
 11  8 15  3 34  0.0000000  0  9G12G18G25G26G05G15G29G21G02
 -18609760.18446 -14175277.34444  23149575.7034                   23149573.5234
  33516452.273 6                  24157786.203
  -8061564.07847  -6080366.09845  22155460.1094   22155460.1604
   6630291.53547   5601882.79344  21753185.6414                   21753183.5394
 -22518793.27747 -17482781.80545  21374227.8524                   21374225.4104
  16689321.07846  13156568.55144  22427335.5784                   22427332.1214
  -3893863.83647  -2602664.00045  20832984.7344                   20832982.6484
  27166693.36746                  21473762.92242  24252364.4614   24252362.5394
 -38311705.95346 -29805643.34044  22471904.7894                   22471900.3404
 11  8 15  3 34 30.0000000  0  9G12G18G25G26G05G15G29G21G02
 -18604043.23046 -14170822.60244  23150663.4224                   23150661.0984
  33343171.055 6                  24124811.922
  -8090569.03547  -6102967.40244  22149940.4454   22149941.1764
   6478538.30147   5483633.57844  21724307.8284                   21724305.5784
 -22534661.31647 -17495146.50045  21371208.4454                   21371205.6684
  16511651.69146  13018124.79744  22393525.3834                   22393523.3594
  -4039007.01647  -2715762.54345  20805364.9694                   20805362.9144
  27021532.28546                  21360650.55542  24224740.9694   24224740.2034
 -38349496.02346 -29835090.18744  22464713.9064                   22464709.3714
 11  8 15  3 35  0.0000000  0  9G12G18G25G26G05G15G29G21G02
 -17022816.20346 -12938697.67643  23451560.8594                   23451559.0824
  34745510.742 5                  24391667.766
  -6543779.59047  -4897676.96145  22444285.0864   22444285.4574
   7902689.27047   6593361.68444  21995313.8834                   21995312.4774
 -20974842.72347 -16279703.44145  21668031.8754                   21668029.0744
  17909616.49647  14107447.94544  22659549.8984                   22659547.8364
  -2608382.84047  -1600990.44145  21077604.1484                   21077601.0824
  28451774.94546                  22475125.48843  24496907.5634   24496905.3714
 -36811753.03146 -28636848.91844  22757336.3284                   22757332.0904
 11  8 15  3 35 30.0000000  0  9G12G18G25G26G05G15G29G21G02
 -17016921.94146 -12934104.77043  23452682.2194                   23452680.3524
  34572620.852 5                  24358767.922
  -6572040.64847  -4919698.55945  22438907.1414   22438907.4924
   7751897.63347   6475861.77744  21966619.1484                   21966617.1764
 -20990181.00447 -16291655.34445  21665113.2584                   21665110.1914
  17732366.93446  13969331.39144  22625819.9304                   22625817.7234
  -2752838.73047  -1713553.44546  21050115.2034                   21050112.4104
  28306571.99246                  22361980.41842  24469275.6724   24469273.7194
 -36849319.55546 -28666121.57044  22750188.3524                   22750183.5904
 11  8 15  3 36  0.0000000  0  9G12G18G25G26G05G15G29G21G02
 -17010941.32846 -12929444.55543  23453820.8364                   23453818.6134
  34399930.660 6                  24325905.656
  -6599931.53547  -4941431.70345  22433599.8284   22433599.6884
   7601594.19147   6358742.28544  21938017.4774                   21938015.3364
 -21005255.82447 -16303401.94145  21662245.0394                   21662241.6174
  17555334.54346  13831384.09044  22592132.1484                   22592130.0234
  -2896944.91047  -1825843.95745  21022692.7974                   21022689.6214
  28161349.46146                  22248820.14843  24441640.5164   24441639.3524
 -36886771.47346 -28695304.90643  22743061.8054                   22743056.3794
 11  8 15  3 36 30.0000000  0  9G12G18G25G26G05G15G29G21G02
 -17004876.07046 -12924718.40243  23454974.6174                   23454973.4414
  34227442.125 6                  24293082.336
  -6627454.20347  -4962877.95745  22428362.5004   22428362.2504
   7451782.96947   6242006.36344  21909508.5864                   21909507.1954
 -21020068.76247 -16314944.49245  21659426.4614                   21659423.1454
  17378523.32046  13693609.19944  22558486.1804                   22558483.8754
  -3040698.53947  -1937859.75845  20995336.9694                   20995333.8634
  28016108.37946                  22135645.41042  24414001.8754   24414000.4804
 -36924107.42246 -28724397.92244  22735956.3914                   22735951.5514
 11  8 15  3 37  0.0000000  0  9G12G18G25G26G05G15G29G21G02
 -16998733.55546 -12919932.05143  23456143.9614                   23456141.7934
  34055152.605 5                  24260296.570
  -6654615.32047  -4984042.47344  22423193.7344   22423193.5704
   7302463.24247   6125653.41844  21881094.8674                   21881092.6094
 -21034625.80947 -16326287.64545  21656656.3054                   21656652.5904
  17201932.33247  13556005.93444  22524881.9534                   22524879.8794
  -3184100.88347  -2049601.83245  20968048.0864                   20968045.8914
  27870843.87146                  22022452.39543  24386358.9534   24386357.4184
 -36961331.01646 -28753403.34044  22728872.2344                   22728868.7114
 11  8 15  3 37 30.0000000  0  9G12G18G25G26G05G15G29G21G02
 -16992513.47346 -12915085.25443  23457328.1254                   23457325.3364
  33883065.828 6                  24227549.867
  -6681415.10947  -5004925.42244  22418093.9454   22418094.2154
   7153640.89147   6009688.03944  21852775.6804                   21852772.8984
 -21048926.91847 -16337431.35545  21653934.6644                   21653931.6094
  17025567.11346  13418578.59044  22491320.2114                   22491318.5354
  -3327146.81247  -2161066.18446  20940827.8364                   20940824.6844
  27725558.84446                  21909243.38743  24358712.1254   24358710.6994
 -36998438.79746 -28782318.52344  22721811.1564                   22721806.5434
 11  8 15  3 38  0.0000000  0  9G12G18G25G26G05G15G29G21G02
 -16986219.61346 -12910180.96543  23458525.3524                   23458522.6644
  33711183.203 5                  24194841.063
  -6707856.57847  -5025529.19145  22413061.8524   22413062.8634
   7005319.09847   5894112.69944  21824550.1954                   21824547.7544
 -21062974.53947 -16348377.56245  21651261.1804                   21651258.2894
  16849430.79347  13281329.60544  22457802.4924                   22457800.6994
  -3469834.39847  -2272251.29745  20913674.9144                   20913672.4064
  27580252.78146                  21796017.94543  24331061.7344   24331058.4534
 -37035430.81246 -28811143.48044  22714772.1094                   22714767.5664
 11  8 15  3 38 30.0000000  0  9G12G18G25G26G05G15G29G21G02
 -16979855.46546 -12905221.89543  23459736.5234                   23459733.3674
  33539504.398 5                  24162172.078
  -6733943.27047  -5045856.49245  22408098.1804   22408099.0394
   6857500.16447   5778929.19144  21796420.6174                   21796418.0864
 -21076771.93747 -16359128.78545  21648635.6564                   21648632.8094
  16673525.99647  13144260.97744  22424329.4224                   22424326.6294
  -3612162.19547  -2383156.04745  20886591.0704                   20886588.0434
  27434924.32846                  21682775.11743  24303407.1564   24303404.3754
 -37072307.35246 -28839878.46544  22707754.8524                   22707750.3054
 11  8 15  3 39  0.0000000  0  9G12G18G25G26G05G15G29G21G02
 -16973425.79346 -12900211.77744  23460959.7664                   23460957.2114
  33368028.605 6                  24129540.664
  -6759680.02347  -5065911.11745  22403201.0314   22403201.1254
   6710185.33247   5664138.49244  21768388.1024                   21768385.4924
 -21090323.52347 -16369688.44945  21646057.3594                   21646053.9344
  16497854.12147  13007373.85944  22390899.3984                   22390897.4024
  -3754129.45747  -2493779.87545  20859575.7114                   20859572.6214
  27289571.37946                  21569513.16843  24275746.7424   24275744.5634
 -37109069.73846 -28868524.50844  22700759.5084                   22700754.8834
 11  8 15  3 39 30.0000000  0  9G12G18G25G26G05G15G29G21G02
 -16966932.10246 -12895151.77044  23462195.7664                   23462193.6684
  33196758.547 6                  24096949.836
  -6785068.20347  -5085694.12944  22398369.1644   22398369.8674
   6563379.24247   5549744.20744  21740451.3914                   21740449.0234
 -21103630.12947 -16380057.23845  21643525.0634                   21643522.1024
  16322419.30547  12870671.42644  22357515.0784                   22357513.1724
  -3895732.49247  -2604119.88745  20832629.3134                   20832626.5204
  27144195.07446                  21456233.04343  24248082.0704   24248079.8444
 -37145716.19146 -28897080.23844  22693786.5164                   22693780.5434
 11  8 15  3 40  0.0000000  0  9G12G18G25G26G05G15G29G21G02
 -16960377.58646 -12890044.39144  23463443.1644                   23463440.9144
  33025695.422 6                  24064396.648
  -6810110.66047  -5105207.72744  22393604.4844   22393604.5634
   6417085.00047   5435748.75844  21712612.3054                   21712610.3594
 -21116694.25847 -16390237.08245  21641038.9144                   21641035.7934
  16147224.68047  12734156.14844  22324177.0474                   22324174.3244
  -4036969.23047  -2714174.46945  20805752.9064                   20805750.1994
  26998794.88746                  21342934.25843  24220413.9064   24220411.4064
 -37182246.17246 -28925545.17643  22686834.4614                   22686829.5984
 11  8 15  3 40 30.0000000  0  9G12G18G25G26G05G15G29G21G02
 -16953765.53146 -12884892.14544  23464702.0004                   23464699.0124
  32854839.656 6                  24031883.594
  -6834810.82847  -5124454.61744  22388903.6954   22388903.6804
   6271304.94947   5322153.98844  21684871.5084                   21684869.3054
 -21129518.63347 -16400230.11345  21638598.5234                   21638595.5554
  15972273.06347  12597830.21544  22290885.2584                   22290882.5864
  -4177837.59447  -2823941.99645  20778946.8754                   20778943.8524
  26853370.28546                  21229616.44943  24192739.9224   24192737.6564
 -37218659.84046 -28953919.50844  22679905.3674                   22679901.2074
 11  8 15  3 41  0.0000000  0  9G12G18G25G26G05G15G29G21G02
 -16947097.96146 -12879696.66444  23465969.9614                   23465967.9414
  32684193.273 5                  23999411.055
  -6859170.78947  -5143436.42244  22384268.6724   22384268.2854
   6126043.59447   5208963.39544  21657229.0474                   21657226.7734
 -21142104.74647 -16410037.48845  21636203.7894                   21636200.4734
  15797568.42247  12461696.75044  22257639.9384                   22257637.3594
  -4318334.20347  -2933419.85546  20752210.8444                   20752208.3014
  26707921.54746                  21116279.86343  24165061.9774   24165059.9654
 -37254955.79346 -28982202.08644  22672997.7194                   22672994.3284
 11  8 15  3 41 30.0000000  0  9G12G18G25G26G05G15G29G21G02
 -16940380.22746 -12874462.10544  23467249.2114                   23467245.9924
  32513755.28146  30634354.58253  23966978.6254                   23966977.0234
  -6883195.52047  -5162157.00045  22379696.7814   22379696.8444
   5981301.35947   5096177.32844  21629686.1724                   21629683.1954
 -21154457.44947 -16419662.97345  21633853.1884                   21633849.9574
  15623111.82447  12325756.61744  22224442.0784                   22224439.1524
  -4458459.61747  -3042608.45746  20725545.6954                   20725543.1524
  26562446.47246                  21002922.67343  24137379.0864   24137376.4304
 -37291135.85546 -29010394.37144  22666114.3524                   22666109.3794
 11  8 15  3 42  0.0000000  0  9G12G18G25G26G05G15G29G21G02
 -16933615.89146 -12869191.21943  23468535.8364                   23468533.1094
  32343525.29346  30501707.91042  23934584.0394                   23934583.1374
  -6906888.71547  -5180619.24645  22375187.5314   22375188.1484
   5837080.76247   4983797.69544  21602241.5704                   21602238.7624
 -21166579.83247 -16429109.00045  21631545.9064                   21631543.0394
  15448905.72347  12190011.67644  22191291.2504                   22191288.9224
  -4598212.00847  -3151506.40645  20698951.5704                   20698948.9804
  26416943.73446                  20889544.00443  24109690.3914   24109688.1024
 -37327200.18046 -29038496.49644  22659251.3284                   22659246.7774
 11  8 15  3 42 30.0000000  0  9G12G18G25G26G05G15G29G21G02
 -16926804.48446 -12863883.66843  23469831.4304                   23469829.6484
  32173507.85946  30369226.81342  23902230.7344                   23902229.9104
  -6930250.07047  -5198822.90244  22370742.4064   22370742.5784
   5693387.75847   4871829.17644  21574897.6024                   21574894.6914
 -21178470.96947 -16438374.83245  21629282.6334                   21629280.3554
  15274956.14847  12054466.64544  22158189.7894                   22158187.2074
  -4737585.71947  -3260109.26646  20672429.9694                   20672426.7704
  26271416.20746                  20776145.97343  24081997.6954   24081995.1564
 -37363145.54746 -29066505.92244  22652410.3674                   22652406.2894
